Selectionnez le mois :


30/04/2018:Tournoi n°17718 mokanne(1550)-nef1(1450):1-0
30/04/2018:Tournoi n°18051 verson(1840)-gari(1960):1-0
30/04/2018:Défi katastrofic(1510)-aigle12(1400):1-0
30/04/2018:Francaise Tarrasch fermee laronix(2330)-dpcarballo(1810):0-1
30/04/2018:Tournoi n°17191 breitenbach(2310)-berniz(2220):0-1
30/04/2018:Eq:Vikings-Les Seigneurs de l Atlantide : ngeorget(2470)-capitaine(2100):1-0
30/04/2018:Coupe Niveau 6 saurug(2480)-z1000(2349):0-1
30/04/2018:Memorial Lara XXXII pgo(1660)-tiounet(1650):0-1
30/04/2018:Tournoi échelle division 1 spectre(1780)-patau(1770):0-1
30/04/2018:Tournoi n°18096 arno(1630)-verson(1860):1-0
30/04/2018:Tournoi n°18096 upsalin(1880)-verson(1850):1/2-1/2
30/04/2018:Tournoi n°17972 arno(1700)-lepiton(1780):0-1
30/04/2018:Tournoi n°18082 spectre(1780)-verson(1850):1-0
30/04/2018:Eq:LES CHATTERBOX-Les Oiseaux d Amsterdam : sorim(2030)-patau(1710):0-1
30/04/2018:Défi missmich(1500)-missjo(1090):1-0
30/04/2018:Défi bertelsen(1630)-patau(1770):0-1
30/04/2018:Défi jpjay(1770)-encore1fois(1980):1-0
30/04/2018:Défi jpjay(1770)-plaisance(1940):1-0
30/04/2018:Défi superman(1810)-papymiche(1700):1-0
30/04/2018:Défi magyar(1520)-patau(1780):1-0
30/04/2018:Défi otrigo3(1730)-temistocles(1450):1-0
30/04/2018:Et une Grunfeld une flmnh(1730)-crca(1850):0-1
30/04/2018:Gisèle 35 jyf(1860)-bertelsen(1620):1-0
30/04/2018:Les cloches ptitefrez(2040)-ascensseur(1630):1-0
30/04/2018:Le vieux Roi 11 ascensseur(1640)-bricekiller(1630):1-0
30/04/2018:pour le plaisir61 coyotov(1560)-zozo(1670):1-0
30/04/2018:les pirates interne blutch70(2260)-rackam(2130):1-0
30/04/2018:Tournoi échelle élite ptitefrez(2090)-rvsinovitch(2020):1-0
30/04/2018:Tournoi n°18016 patau(1770)-verson(1860):1-0
30/04/2018:Tournoi n°18026 clemm(1680)-verson(1890):0-1
30/04/2018:Tournoi n°18040 zozo(1680)-azur(1640):1-0
30/04/2018:Tournoi n°18077 epervier14(1520)-albescab(1540):0-1
30/04/2018:Coupe Niveau 8 titeuf(2340)-maitreabord(2790):0-1
30/04/2018:Défi epervier14(1520)-colyoun(1530):0-1
30/04/2018:Défi epervier14(1520)-noos(1490):0-1
30/04/2018:Défi lepich(1780)-fisher22(1799):0-1
30/04/2018:Défi patau(1780)-alena1(1770):1-0
30/04/2018:Défi tomislav(1760)-matsonic(1860):0-1
30/04/2018:Défi gobois(1680)-gilberthellemans(1590):0-1
30/04/2018:Défi roidechecs(1240)-julie(1090):1-0
30/04/2018:Défi asvel69(1690)-flo71(1780):0-1
30/04/2018:Défi mrmatchnul(2330)-capitaine(2080):1-0
30/04/2018:Défi maluel(1570)-maximax(1360):1-0
30/04/2018:Défi patau(1800)-roquefort(1960):0-1
30/04/2018:Défi katastrofic(1480)-temistocles(1410):0-1
30/04/2018:Défi vvvv(1640)-algors(1730):1-0
30/04/2018:Défi pourquoipas(1470)-doudou(1640):0-1
30/04/2018:albatros13 sylvainwb(1660)-maya24(1600):1-0
30/04/2018:pour le plaisir61 zozo(1670)-coyotov(1560):1/2-1/2
30/04/2018:wild zozo(1620)-salut(1910):0-1
30/04/2018:Tournoi échelle division 1 domenico(1810)-karkaskat(2120):0-1
30/04/2018:Tournoi n°18044 pionfou(1690)-azur(1630):1-0
30/04/2018:Tournoi n°18060 gwada50(1300)-jlr(1500):0-1
30/04/2018:Tournoi n°17989 scarfield(1830)-mistralgagnant(1920):0-1
30/04/2018:Tournoi n°17989 scarfield(1830)-percy62(2040):0-1
30/04/2018:Tournoi n°18010 verson(1860)-mistralgagnant(1960):0-1
30/04/2018:Tournoi n°18051 dukehemon(1950)-fly(1990):1-0
30/04/2018:Tournoi n°18094 verson(1840)-fredbauduret(1970):0-1
30/04/2018:Coupe Niveau 2 fly(1980)-cereus69300(1849):0-1
30/04/2018:Défi roidechecs(1240)-julie(1040):0-1
30/04/2018:Défi morloch(1930)-guig47(2110):0-1
30/04/2018:Défi pgo(1670)-fabio985(1840):1-0
30/04/2018:Défi zachilan(1330)-anumisme(1360):0-1
30/04/2018:Défi fisher(1620)-chess54(1590):1-0
30/04/2018:Défi boucher28(1530)-joelcouturier(1230):1-0
30/04/2018:Défi flmnh(1760)-patau(1810):0-1
30/04/2018:Défi joel(1440)-pierrejean(1470):0-1
30/04/2018:Défi anumisme(1370)-chaton(1149):1-0
30/04/2018:Défi chaton(1149)-anumisme(1370):0-1
30/04/2018:Défi roidechecs(1240)-julie(1010):0-1
30/04/2018:Défi gobois(1660)-vvvv(1640):1-0
30/04/2018:Anglosaxonneleretour emmanuel(1940)-fly(2000):0-1
30/04/2018:Pion chang fly(2010)-karkaskat(1980):0-1
30/04/2018:Brice07 bricekiller(1610)-yyyg(1610):0-1
30/04/2018:Francaise Tarrasch fermee bubblegum(1810)-laronix(2330):1-0
30/04/2018:Tournoi échelle division 1 kartush(2050)-patau(1790):1-0
30/04/2018:Tournoi n°18074 brettsinclair(1840)-verson(1830):0-1
30/04/2018:Tournoi n°18038 patau(1810)-moris54(1960):0-1
30/04/2018:Tournoi n°17769 pionfou(1810)-patau(1800):1-0
30/04/2018:Tournoi n°18101 verson(1870)-patau(1770):1/2-1/2
30/04/2018:Tournoi n°18091 verson(1850)-upsalin(1880):0-1
30/04/2018:Tournoi n°17981 sampiero2a(1330)-phlox(1460):1-0
30/04/2018:Tournoi n°18026 simer(1720)-clemm(1690):1-0
30/04/2018:Tournoi n°18051 fly(1990)-verson(1840):1-0
30/04/2018:Tournoi n°18068 supertomate(1499)-gilcello(1570):1-0
30/04/2018:Tournoi n°18078 moris54(1960)-kala(1920):1-0
30/04/2018:Tournoi n°18074 patau(1750)-brettsinclair(1830):1-0
30/04/2018:Tournoi n°18085 verson(1870)-simer(1700):1-0
30/04/2018:Eq:O fou d hello-Pirates du Mat : boucher28(1540)-rackam(2090):0-1
30/04/2018:Eq:Mission Impossible-Pirates du Mat : alizarine(2360)-afeyte(1690):1-0
30/04/2018:Défi lens37(2380)-moumou(2200):1-0
30/04/2018:Défi tunellavage(1790)-blackbishop(1810):0-1
30/04/2018:Défi perepeinard34(1270)-turbo(1490):0-1
30/04/2018:Défi neily(1590)-chevalice(1660):0-1
30/04/2018:Défi roidechecs(1240)-gregmasten(1309):0-1
30/04/2018:Défi roidechecs(1250)-julie(1000):1-0
30/04/2018:Défi fabio985(1830)-tbeau44(1680):1-0
30/04/2018:Défi bezug66(1770)-patau(1770):1-0
30/04/2018:Défi apocalypce(1810)-elghribi(1980):0-1
30/04/2018:Défi roidechecs(1240)-julie(1030):1-0
30/04/2018:pour le plaisir61 turbo(1490)-coyotov(1560):1-0
30/04/2018:Tournoi échelle division 3 bigkahuna(1299)-jlr(1510):1-0
30/04/2018:Tournoi échelle division 3 julie(1010)-gregmasten(1309):0-1
30/04/2018:Tournoi n°17909 patau(1800)-dragon(1920):1/2-1/2
30/04/2018:Tournoi n°18082 spectre(1780)-tiounet(1610):1-0
30/04/2018:Eq:les biquetoces-Les Gens du Sud : dragon(1880)-mequinho(1810):1-0
30/04/2018:Coupe Niveau 2 senegaulois(1900)-leet(1660):1-0
30/04/2018:Coupe Niveau 6 levelmax(2800)-alf74(2130):1-0
30/04/2018:Défi mayaapof(1650)-colyoun(1530):1/2-1/2
30/04/2018:Défi lens37(2390)-nunnmiles(2520):0-1
30/04/2018:Défi guillaumefi(1399)-jm29(1510):1-0
30/04/2018:Défi perepeinard34(1280)-malvina(1280):1-0
30/04/2018:Défi gambitor(1440)-speedyfil(1510):1-0
30/04/2018:Défi bigkahuna(1539)-alena1(1780):0-1
30/04/2018:Printemps 2018 n°2 bubblegum(1820)-eldiablo90(2820):0-1
30/04/2018:la folie des grandeurs bubblegum(1800)-ptitefrez(2090):1/2-1/2
30/04/2018:Parties ouvertes e4 e5 salut(1860)-fly(1990):0-1
30/04/2018:Le vieux Roi 11 tiounet(1680)-roschecx(1630):0-1
30/04/2018:Francaise avec e5 spectre(1760)-tiounet(1630):1-0
30/04/2018:Tournoi n°18041 pourquoipas(1490)-bastien1(1360):1-0
30/04/2018:Tournoi n°17849 supernono(1510)-tjspret(1710):0-1
30/04/2018:Tournoi n°17839 chrislee76(2000)-ponaparte(1850):1-0
30/04/2018:Tournoi n°18064 simer(1710)-kendo2d(1830):0-1
30/04/2018:Tournoi n°17988 mick13(1670)-aramis(1740):0-1
30/04/2018:Coupe Niveau 1 bastien1(1340)-baranowsky(1730):0-1
30/04/2018:Défi moi50(1780)-kaby771(2040):0-1
30/04/2018:Défi zatopek(1510)-vvvv(1650):0-1
30/04/2018:Défi kawa750(1520)-xao(1490):0-1
30/04/2018:Défi tootsienet(1030)-chaton(999):1-0
30/04/2018:Défi julie(1269)-zatopek(1570):0-1
30/04/2018:Défi deric(1570)-bastien1(999):1-0
30/04/2018:Helleborus argutifolius salut(2000)-crca(1860):0-1
30/04/2018:Les cloches crca(1830)-karkaskat(2120):1-0
30/04/2018:Brice07 bricekiller(1610)-lecevenol(1370):0-1
30/04/2018:Tournoi échelle division 1 domenico(1810)-kartush(2080):0-1
30/04/2018:Tournoi n°17614 fly(1950)-silveur(1930):0-1
30/04/2018:Tournoi n°18039 ghostdog(1650)-patau(1780):0-1
30/04/2018:Tournoi n°18049 magyar(1530)-qsdmlk(1590):0-1
30/04/2018:Tournoi n°18022 gulliver(2010)-jazzzz(1940):1-0
30/04/2018:Tournoi n°18041 speedyfil(1500)-joel(1440):1-0
30/04/2018:Tournoi n°18078 kala(1920)-scarfield(1830):1-0
30/04/2018:Eq:Vikings-Les Quebecois : lecavaliernoir(1460)-flmnh(1780):0-1
30/04/2018:Eq:Les Gens du Sud-LES CHATTERBOX : jazzzz(1930)-emmanuel(2000):1-0
30/04/2018:Eq:Pirates du Mat-Les diplomates : sp52(2410)-bibisept(1840):1-0
30/04/2018:Coupe Niveau 1 senegaulois(1890)-fly(1800):1-0
30/04/2018:Coupe Niveau 3 alf74(1930)-senegaulois(1910):0-1
30/04/2018:Coupe Niveau 2 patau(1730)-senegaulois(1930):1-0
30/04/2018:Coupe Niveau 6 levelmax(2800)-hilts(2150):1-0
30/04/2018:Défi buzz84(1510)-supertomate(1499):0-1
30/04/2018:Défi apocalypce(1900)-senegaulois(1940):0-1
30/04/2018:Défi berjay(1690)-superman(1730):1-0
30/04/2018:Défi cortaz(1740)-sergiodevienne(1750):1-0
30/04/2018:Défi azur(1640)-fabio985(1830):0-1
30/04/2018:Défi rocketman(2010)-carabas(1960):0-1
30/04/2018:Défi bibisept(1840)-jaco(1750):1-0
30/04/2018:Défi ziviol(1520)-turbo(1490):0-1
30/04/2018:Défi perepeinard34(1260)-turbo(1500):0-1
30/04/2018:Défi tootsienet(1020)-anumisme(1360):0-1
30/04/2018:Défi dan84(1440)-pascalou50(1760):0-1
30/04/2018:Défi ecjc(1980)-feudevorant(1910):1-0
30/04/2018:Anglosaxonneleretour bertelsen(1600)-fly(2000):0-1
30/04/2018:albatros13 lecevenol(1360)-sylvainwb(1660):0-1
30/04/2018:albatros13 maya24(1600)-sampiero2a(1340):1-0
30/04/2018:les pirates interne volatile(2510)-eltche(2450):1/2-1/2
30/04/2018:Tournoi n°18062 tiounet(1600)-panchoa(1510):0-1
30/04/2018:Tournoi n°18028 bastien1(1399)-bubbly(1310):0-1
30/04/2018:Tournoi n°18070 ghostdog(1630)-arno(1660):1-0
30/04/2018:Défi jm29(1490)-ziviol(1500):1/2-1/2
30/04/2018:Défi jmr(1560)-tryphon(1540):0-1
30/04/2018:Défi lancov(1930)-arno(1700):0-1
30/04/2018:Défi lool(2580)-nunnmiles(2540):1-0
30/04/2018:Défi anumisme(1330)-gina(1390):1-0
30/04/2018:Défi berjay(1710)-pascalou50(1760):1-0
30/04/2018:Défi pgo(1670)-ghostdog(1630):1-0
30/04/2018:Défi ghostdog(1630)-tiounet(1610):0-1
30/04/2018:Francaise Tarrasch fermee mathador93(1440)-laronix(2330):1-0
30/04/2018:Memorial Lara XXXII karkaskat(2100)-tiounet(1650):1-0
30/04/2018:Memorial Lara XXXII tiounet(1650)-bertelsen(1650):0-1
01/05/2018:Défi cortaz(1740)-tiounet(1610):0-1
01/05/2018:Défi fredbauduret(1970)-hugogo(999):1-0
01/05/2018:Rapide uliczny(1370)-blackrider(1390):0-1
01/05/2018:Rapide crca(1480)-uliczny(1370):1-0
01/05/2018:Rapide scarfield(1450)-degun(1580):1-0
01/05/2018:Rapide bigkahuna(1599)-scarfield(1450):1-0
01/05/2018:Pion chang fly(2010)-connecticcut(1730):1-0
01/05/2018:Tournoi échelle division 2 electronlibre(1830)-bertelsen(1610):1-0
01/05/2018:Brice07 bricekiller(1610)-roschecx(1630):0-1
01/05/2018:Francaise Tarrasch fermee dpcarballo(1810)-laronix(2330):1-0
01/05/2018:Tournoi échelle division 3 nathalie(1259)-bigkahuna(1299):0-1
01/05/2018:Tournoi n°18048 supertomate(1499)-nathalie(1359):1-0
01/05/2018:Défi roschecx(1610)-vvvv(1670):0-1
01/05/2018:Brice07 yyyg(1610)-bricekiller(1610):1-0
01/05/2018:Le vieux Roi 11 yyyg(1610)-bricekiller(1630):1-0
01/05/2018:Le vieux Roi 11 intrigue(1590)-bricekiller(1630):1-0
01/05/2018:Eq:Royal Kids-Les Quebecois : manulatus(1850)-zukchess(1640):1-0
01/05/2018:Défi anumisme(1370)-pitchoune50(1190):1-0
01/05/2018:Défi pasq60(1210)-anumisme(1420):0-1
01/05/2018:Tournoi n°17796 verson(1870)-chomi64(1980):0-1
01/05/2018:Tournoi n°17995 dragon(1880)-annakhine(1910):0-1
01/05/2018:Tournoi n°18060 jlr(1500)-joel(1440):1-0
01/05/2018:Tournoi n°17900 nicodemouscron(2130)-uliczny(2020):1-0
01/05/2018:Tournoi n°18015 jlr(1490)-joel(1420):1-0
01/05/2018:Eq:Mission Impossible-Les Rebelles : apage(2110)-mehr(2550):0-1
01/05/2018:Coupe Niveau 1 bastien1(999)-jlr(1490):0-1
01/05/2018:Coupe Niveau 1 jlr(1500)-retraite53(2099):0-1
01/05/2018:Défi tryphon(1540)-fr7d(1500):1-0
01/05/2018:Défi anglais(1660)-pgo(1660):1/2-1/2
01/05/2018:Défi pasq60(1220)-anumisme(1420):0-1
01/05/2018:albatros13 lecevenol(1360)-sampiero2a(1340):0-1
01/05/2018:Tournoi échelle division 3 pasctin(1940)-cereus69300(2120):0-1
01/05/2018:Tournoi échelle division 2 zozo(1620)-bertelsen(1650):1-0
01/05/2018:Tournoi n°17744 chronik(2040)-alfazero(1999):1-0
01/05/2018:Tournoi n°18078 scarfield(1830)-moris54(1960):0-1
01/05/2018:Défi elghribi(2010)-loco11(1950):0-1
01/05/2018:Défi burgman(2100)-salut(1950):1-0
01/05/2018:Défi castor(1420)-xav(1540):1-0
01/05/2018:Défi scarfield(1840)-zatopek(1550):0-1
01/05/2018:Défi ascensseur(1600)-zozo(1630):0-1
01/05/2018:Saint-Valentin 2018 n°6 boisdechene(1650)-mimie(1660):0-1
01/05/2018:Printemps 2018 n°2 patrick(1600)-boisdechene(1680):1-0
01/05/2018:Tous sur la Française flmnh(1690)-fly(1940):0-1
01/05/2018:Le vieux Roi 11 bricekiller(1630)-ascensseur(1640):0-1
01/05/2018:Le vieux Roi 11 spectre(1740)-bricekiller(1630):1-0
01/05/2018:Francaise avec e5 tiounet(1630)-spectre(1760):1-0
01/05/2018:Gisèle 37 spectre(1760)-pgo(1660):1-0
01/05/2018:Tournoi échelle champions jajaf1959(1920)-fly(2010):0-1
01/05/2018:Tournoi échelle division 3 nathalie(1259)-supertomate(1499):0-1
01/05/2018:Tournoi échelle division 2 zozo(1620)-tiounet(1640):1-0
01/05/2018:Tournoi n°17898 oliver5(1660)-neily(1679):1-0
01/05/2018:Tournoi n°17928 arno(1730)-geantvert(1690):1-0
01/05/2018:Tournoi n°17995 kiki24(1940)-dragon(1880):1-0
01/05/2018:Tournoi n°18062 geantvert(1670)-panchoa(1510):1-0
01/05/2018:Tournoi n°17990 epervier14(1500)-panchoa(1510):1/2-1/2
01/05/2018:Tournoi n°17990 epervier14(1500)-morlante(1600):0-1
01/05/2018:Tournoi n°18048 nathalie(1359)-jlr(1510):0-1
01/05/2018:Tournoi n°18084 jlr(1500)-nathalie(1380):1-0
01/05/2018:Tournoi n°18078 moris54(1960)-verson(1860):1-0
01/05/2018:Tournoi n°18032 julie(999)-lantana(1240):0-1
01/05/2018:Eq:les modestes-Les Corsaires de Lechiquier : mohamedarab(2830)-levelmax(2820):0-1
01/05/2018:Eq:La Crim Team-Les Corsaires de Lechiquier : levelmax(2820)-agashak(2870):0-1
01/05/2018:Eq:cotenstock-Pirates du Mat : djayphil(2140)-gonca90(2300):0-1
01/05/2018:Eq:Les Gens du Sud-O fou d hello : champignac(1800)-ryba(1960):1-0
01/05/2018:Coupe Niveau 1 fly(1950)-yyyg(1620):1-0
01/05/2018:Défi albescab(1570)-deric(1560):1-0
01/05/2018:Défi shailo(2000)-loco11(1870):1-0
01/05/2018:Défi kawa750(1530)-tbeau44(1670):0-1
01/05/2018:Défi tunellavage(1760)-felin(1750):0-1
01/05/2018:Défi superman(1730)-midas(1790):1-0
01/05/2018:Défi roidechecs(1230)-bigkahuna(1680):0-1
01/05/2018:Défi tunellavage(1760)-kawa750(1560):1/2-1/2
01/05/2018:Défi roidechecs(1230)-bigkahuna(1669):0-1
01/05/2018:Défi bigkahuna(1669)-gregmasten(1309):1-0
01/05/2018:Défi matsonic(1840)-cortaz(1760):1-0
01/05/2018:Défi xao(1510)-julie(1010):1-0
01/05/2018:Défi chaton(999)-tranquillou66(1089):0-1
01/05/2018:Défi lecavaliernoir(1450)-katastrofic(1530):1-0
01/05/2018:Défi joelcouturier(1230)-anumisme(1420):0-1
01/05/2018:Défi verone(2020)-loco11(1950):0-1
01/05/2018:Défi malvina(1250)-voyageur14(1260):0-1
01/05/2018:Défi julie(1269)-luc20(1630):0-1
01/05/2018:Défi chaton(1149)-cathy17(1060):0-1
01/05/2018:Défi thebest(1140)-chaton(1149):0-1
01/05/2018:Défi tiounet(1640)-zozo(1630):0-1
01/05/2018:Défi roidechecs(1230)-julie(1100):1-0
01/05/2018:Printemps 2018 n°6 yyyg(1630)-casparuf(1480):0-1
01/05/2018:Pion chang pgo(1680)-fly(2010):1-0
01/05/2018:albatros13 sylvainwb(1660)-ascensseur(1630):1/2-1/2
01/05/2018:Le vieux Roi 11 yyyg(1610)-zozo(1650):1-0
01/05/2018:les pirates interne alizarine(2360)-sp52(2410):1/2-1/2
01/05/2018:Memorial Lara XXXII ascensseur(1590)-karkaskat(2100):0-1
01/05/2018:Memorial Lara XXXII tiounet(1650)-bigkahuna(1299):0-1
01/05/2018:Memorial Lara XXXII ascensseur(1590)-bigkahuna(1299):0-1
01/05/2018:Memorial Lara XXXII bigkahuna(1299)-ascensseur(1590):1/2-1/2
01/05/2018:Francaise avec e5 ascensseur(1610)-karkaskat(2100):0-1
01/05/2018:wild karkaskat(2100)-ascensseur(1600):1-0
01/05/2018:wild ascensseur(1600)-zozo(1620):0-1
01/05/2018:wild zozo(1620)-ascensseur(1600):1-0
01/05/2018:wild salut(1910)-pgo(1670):1-0
01/05/2018:Gisèle 37 ascensseur(1600)-karkaskat(2100):0-1
01/05/2018:coupe biquetoces biquet(1850)-bazart(2010):0-1
01/05/2018:Tournoi n°17802 chomi64(1970)-baranowsky(1810):1-0
01/05/2018:Tournoi n°17882 yyyg(1630)-geantvert(1660):1/2-1/2
01/05/2018:Tournoi n°18099 retraite53(2049)-verson(1860):1-0
01/05/2018:Tournoi n°17889 louis67(1580)-yyyg(1620):0-1
01/05/2018:Tournoi n°17900 nodilo(2100)-uliczny(2020):1-0
01/05/2018:Tournoi n°17951 annakhine(1850)-chomi64(2010):1-0
01/05/2018:Tournoi n°18068 supertomate(1499)-surcouf(1680):1-0
01/05/2018:Tournoi n°18077 tiounet(1610)-geantvert(1680):0-1
01/05/2018:Eq:les modestes-Pirates du Mat : eltche(2470)-mohamedarab(2820):1-0
01/05/2018:Eq:Les Seigneurs de l Atlantide-Les diplomates : fafamanga(2120)-kartush(2030):1/2-1/2
01/05/2018:Eq:Royal Kids-CHESS MASTER : uliczny(2050)-chocotov(1920):0-1
01/05/2018:Eq:Royal Kids-CHESS MASTER : chocotov(1920)-uliczny(2050):1-0
01/05/2018:Coupe Niveau 2 verson(1850)-cereus69300(2090):0-1
01/05/2018:Défi loco11(1870)-ecjc(2030):1/2-1/2
01/05/2018:Défi roidechecs(1250)-julie(1000):1/2-1/2
01/05/2018:Défi roidechecs(1240)-boxit(1810):0-1
01/05/2018:Défi bilitis(1810)-tiounet(1640):1-0
01/05/2018:Défi turbo(1500)-julie(999):1-0
01/05/2018:Défi roidechecs(1240)-julia(1500):0-1
01/05/2018:La Française qui avance bis yyyg(1580)-tiounet(1680):1-0
01/05/2018:Tournoi n°18037 geantvert(1680)-katastrofic(1510):1-0
01/05/2018:Tournoi n°18091 supertomate(1599)-verson(1860):1-0
01/05/2018:Tournoi n°18016 manulatus(1850)-verson(1860):1/2-1/2
01/05/2018:Tournoi n°18069 upsalin(1890)-lychar(1750):1-0
01/05/2018:Tournoi n°18048 mathador93(1450)-nathalie(1359):1-0
01/05/2018:Eq:CHESS MASTER-Les diplomates : chocotov(1920)-desmoulins(2600):0-1
01/05/2018:Coupe Niveau 1 gregmasten(1309)-julie(1100):1-0
01/05/2018:Défi pitchoune50(1180)-pascalou50(1770):0-1
01/05/2018:Défi pascalou50(1780)-pitchoune50(1190):1-0
01/05/2018:Défi julie(1100)-roidechecs(1230):1-0
01/05/2018:Défi bigoudi(1000)-malvina(1260):0-1
01/05/2018:Défi pj612(1800)-moi50(1800):1-0
01/05/2018:Défi voyageur14(1270)-anumisme(1360):0-1
01/05/2018:Défi julie(999)-flo71(1790):0-1
01/05/2018:Défi julie(999)-temistocles(1380):0-1
01/05/2018:Tournoi cinquantenaire hub(1870)-janolapin(1840):1/2-1/2
01/05/2018:Brice07 roschecx(1630)-bricekiller(1610):1-0
01/05/2018:wild tiounet(1600)-pgo(1670):0-1
01/05/2018:wild pgo(1670)-tiounet(1600):0-1
01/05/2018:Gisèle 37 pgo(1660)-tiounet(1640):0-1
01/05/2018:Tournoi n°18048 gregmasten(1309)-jlr(1500):0-1
01/05/2018:Tournoi n°18071 brettsinclair(1840)-cineyxp(2040):0-1
01/05/2018:Tournoi n°18089 verson(1850)-brettsinclair(1830):1-0
01/05/2018:Eq:La Crim Team-Les Corsaires de Lechiquier : agashak(2870)-levelmax(2820):1-0
01/05/2018:Eq:les fous de bassans-Les Gens du Sud : verson(1860)-ericb(2270):0-1
01/05/2018:Eq:Les Gens du Sud-Danielsen City : verson(1840)-eanouis(2050):0-1
01/05/2018:Défi temistocles(1410)-buzz84(1510):1-0
01/05/2018:Défi philou(1850)-gege24(2040):1-0
01/05/2018:Défi bastet(1000)-quentaro(1310):0-1
01/05/2018:Défi pgo(1690)-bilitis(1860):1-0
01/05/2018:Défi tiounet(1660)-roschecx(1610):1-0
01/05/2018:Défi anumisme(1370)-siger72(1260):1-0
01/05/2018:Défi roschecx(1620)-tbeau44(1660):0-1
01/05/2018:Défi electronlibre(1830)-mrmatchnul(2300):1/2-1/2
01/05/2018:Défi jajaf1959(1930)-nimzoindien(1850):1-0
01/05/2018:Brice07 turbo(1490)-roschecx(1630):1-0
01/05/2018:Memorial Lara XXXII pgo(1660)-bigkahuna(1299):1-0
01/05/2018:Tournoi n°18063 verson(1830)-bylka(1700):0-1
01/05/2018:Tournoi n°18085 legrillon(1700)-verson(1870):0-1
01/05/2018:Eq:Les Gens du Sud-Royal Kids : ryba(2000)-uliczny(2080):1-0
01/05/2018:Eq:Les Gens du Sud-Royal Kids : uliczny(2080)-ryba(2000):0-1
01/05/2018:Eq:Les Gens du Sud-Les Seigneurs de l Atlantide : pgcd(2330)-ryba(1980):1-0
01/05/2018:Coupe Niveau 6 elghribi(2000)-levelmax(2800):0-1
01/05/2018:Défi julie(1060)-roidechecs(1230):1-0
01/05/2018:Défi chrislee76(1970)-patau(1800):1-0
01/05/2018:Défi katastrofic(1490)-pierrejean(1460):1-0
01/05/2018:Défi julie(1029)-anumisme(1400):1-0
01/05/2018:Défi perepeinard34(1270)-turbo(1470):0-1
01/05/2018:Défi julie(999)-joel(1460):0-1
01/05/2018:Défi julie(1269)-pasq60(1210):1-0
01/05/2018:Défi mequinho(1830)-hberlioz(1690):0-1
01/05/2018:Défi testbon(1499)-michel(1180):0-1
01/05/2018:Défi perepeinard34(1280)-turbo(1510):0-1
01/05/2018:Défi anumisme(1430)-laetitia67(1430):1-0
01/05/2018:pour le plaisir61 petitlulu64(1620)-tartu(1690):0-1
01/05/2018:Memorial Lara XXXII bertelsen(1650)-bigkahuna(1299):0-1
01/05/2018:wild salut(1910)-tiounet(1600):1-0
01/05/2018:Gisèle 37 turbo(1510)-tiounet(1640):0-1
01/05/2018:Tournoi n°17941 legrillon(1680)-arno(1720):1-0
01/05/2018:Tournoi n°17775 bobo(2240)-nodilo(2110):1-0
01/05/2018:Tournoi n°18062 legrillon(1690)-roxane(1590):0-1
01/05/2018:Tournoi n°18030 legrillon(1690)-leet(1770):1-0
01/05/2018:Tournoi n°17987 selmoun(1470)-ditmir(999):1-0
01/05/2018:Tournoi n°18062 roxane(1590)-geantvert(1660):1-0
01/05/2018:Tournoi n°18062 geantvert(1660)-tiounet(1590):1-0
01/05/2018:Tournoi n°18080 vvvv(1630)-bed2bed(1830):1-0
01/05/2018:Tournoi n°18080 bed2bed(1830)-tiounet(1620):1-0
01/05/2018:Eq:Les Seigneurs de l Atlantide-Pirates du Mat : daiwen(2280)-mazdaroket(2040):1-0
01/05/2018:Eq:les modestes-Pirates du Mat : mohamedramdane(2750)-sp52(2340):1-0
01/05/2018:Eq:O fou d hello-Mission Impossible : olivyeah(1840)-anakin(2120):1-0
01/05/2018:Eq:Mission Impossible-Pirates du Mat : volatile(2510)-nathan(2920):0-1
01/05/2018:Eq:Les Corsaires de Lechiquier-O fou d hello : yab414(1560)-unsingeenhiver(2500):0-1
01/05/2018:Eq:Pirates du Mat-Les Gens du Sud : alizarine(2360)-ryba(1950):1-0
01/05/2018:Défi ghostdog(1670)-toucco67(1720):1-0
01/05/2018:Défi fr7d(1470)-rambonov(1280):1-0
01/05/2018:Défi bidoche(1730)-pascalou50(1790):0-1
01/05/2018:Défi anumisme(1440)-pitchoune50(1190):1-0
01/05/2018:Défi felin(1750)-fragol(1720):1-0
01/05/2018:Défi pascalou50(1780)-julie(1030):1-0
01/05/2018:Défi joelcouturier(1230)-anumisme(1410):0-1
01/05/2018:Défi gaspard83(1530)-temistocles(1460):0-1
01/05/2018:Défi bibisept(1840)-cortaz(1740):1-0
01/05/2018:Défi joelcouturier(1190)-anumisme(1360):1-0
01/05/2018:Défi oxteball(1420)-maitressesse(1220):1-0
01/05/2018:Défi xao(1520)-zatopek(1550):0-1
01/05/2018:Défi alena1(1780)-biquet(1850):1-0
01/05/2018:Printemps 2018 n°3 trebillig(1580)-sampiero2a(1330):0-1
01/05/2018:Nom d un chien mathador93(1500)-bububfo(2000):0-1
01/05/2018:Le vieux Roi 10 geantvert(1660)-legrillon(1710):1-0
01/05/2018:coupe biquetoces mequinho(1820)-biquet(1850):1-0
01/05/2018:coupe biquetoces biquet(1850)-mequinho(1820):1-0
01/05/2018:Tournoi échelle division 3 bam333(1499)-yann56(1770):1-0
02/05/2018:Tournoi n°17900 kichmat(2050)-nicodemouscron(2140):1-0
02/05/2018:Tournoi n°17936 thebest(1429)-amoursincere(1199):0-1
02/05/2018:Tournoi n°18050 alena1(1770)-jipepe(1770):1-0
02/05/2018:Tournoi n°17944 amoursincere(1399)-thebest(1429):1-0
02/05/2018:Tournoi n°18024 kala(1900)-bubblegum(1800):1-0
02/05/2018:Coupe Niveau 7 z1000(2680)-yatman(2040):1-0
02/05/2018:Défi pgo(1710)-amoursincere(1199):1-0
02/05/2018:Défi roquefort(1960)-chevalice(1670):1-0
02/05/2018:Noël 2017 n°1 mimie(1690)-yab414(1600):1-0
02/05/2018:Rapide hilts(1850)-kaspadesbrik(1799):1-0
02/05/2018:Rapide salut(1610)-crca(1450):1-0
02/05/2018:Rapide cereus69300(1969)-clafouti(1759):1-0
02/05/2018:Rapide scarfield(1450)-ryba(1530):0-1
02/05/2018:Rapide foxie519(1390)-scarfield(1450):0-1
02/05/2018:Rapide kaspadesbrik(1620)-ryba(1530):0-1
02/05/2018:Rapide crokodeal(1470)-scarfield(1460):0-1
02/05/2018:Rapide scarfield(1450)-gregmasten(1599):1-0
02/05/2018:Jeanmichelle ascensseur(1620)-mathador93(1440):1-0
02/05/2018:Tournoi échelle division 3 nathalie(1360)-alena1(1780):0-1
02/05/2018:Tournoi n°18071 brettsinclair(1840)-chomi64(2030):0-1
02/05/2018:Eq:La Crim Team-les grenades : c3po(2520)-pournelle(2700):0-1
02/05/2018:Printemps 2018 n°5 gonzok67(1700)-uliczny(2040):1-0
02/05/2018:Eq:La Crim Team-les grenades : pournelle(2700)-c3po(2520):1-0
02/05/2018:Tournoi n°17867 mathildedn(1410)-janul13(1560):1-0
02/05/2018:Défi moulric(1609)-claudius94(2130):0-1
02/05/2018:Tournoi n°17932 willkommen54(1970)-patau(1870):1-0
02/05/2018:Tournoi n°17924 jipepe(1810)-vvvv(1700):0-1
02/05/2018:Tournoi n°17900 uliczny(2020)-rvsinovitch(2020):0-1
02/05/2018:Tournoi n°17964 epervier14(1510)-maya24(1590):0-1
02/05/2018:Tournoi n°18032 sayrene(999)-nathalie(1350):1-0
02/05/2018:Eq:Les Quebecois-Pirates du Mat : flmnh(1770)-blutch70(2260):0-1
02/05/2018:Coupe Niveau 1 jlr(1420)-patau(1800):0-1
02/05/2018:Coupe Niveau 2 jlr(1480)-patau(1780):0-1
02/05/2018:Défi youliyouli(1800)-patau(1790):0-1
02/05/2018:Défi gambitor(1440)-kawa750(1520):0-1
02/05/2018:Défi loki51(1690)-comte57(1620):0-1
02/05/2018:Défi alainv(1980)-patau(1750):1-0
02/05/2018:grand rapide du printemps janolapin(1920)-flmnh(1760):1-0
02/05/2018:Tournoi n°17759 homer31(1750)-maxhabran(1790):1/2-1/2
02/05/2018:Tournoi n°18101 patau(1770)-supertomate(1709):1-0
02/05/2018:Tournoi n°18081 tiounet(1610)-pilouface(1450):0-1
02/05/2018:Tournoi n°18075 zozo(1620)-lamagouille(1630):0-1
02/05/2018:Eq:Les Gens du Sud-Fair play : tetene(1680)-gtx(1820):1-0
02/05/2018:Eq:Les Gens du Sud-Danielsen City : eanouis(2050)-verson(1840):1-0
02/05/2018:Défi guillaumefi(1399)-arzbro(1510):1-0
02/05/2018:Défi youliyouli(1790)-superman(1730):1-0
02/05/2018:Défi bidoche(1730)-bed2bed(1790):0-1
02/05/2018:Défi bazart(1940)-saby(1579):1-0
02/05/2018:Printemps 2018 n°5 sylvainwb(1660)-ponyboy(1460):0-1
02/05/2018:Memorial Lara XXXII karkaskat(2100)-zozo(1620):1-0
02/05/2018:wild pgo(1670)-zozo(1620):1-0
02/05/2018:wild salut(1910)-zozo(1620):1-0
02/05/2018:Tournoi n°18038 verson(1870)-patau(1810):1-0
02/05/2018:Tournoi n°18101 supertomate(1719)-verson(1870):1-0
02/05/2018:Tournoi n°17884 samchess(1640)-verson(1840):0-1
02/05/2018:Tournoi n°17983 blackbishop(1780)-patau(1800):0-1
02/05/2018:Tournoi n°18020 patau(1780)-verson(1860):1-0
02/05/2018:Tournoi n°18085 patau(1750)-simer(1700):0-1
02/05/2018:Eq:Pirates du Mat-Royal Kids : totorov(2460)-uliczny(2040):1-0
02/05/2018:Eq:Pirates du Mat-Royal Kids : uliczny(2040)-totorov(2460):0-1
02/05/2018:Coupe Niveau 2 dodogod(2040)-mayaapof(1670):1-0
02/05/2018:Défi wenoketo(1580)-patau(1810):0-1
02/05/2018:Défi prw(1510)-mayaapof(1650):0-1
02/05/2018:Défi patau(1810)-orchidee(2100):0-1
02/05/2018:Défi anumisme(1330)-ohnopleyel(1490):1-0
02/05/2018:Défi kawa750(1550)-speedyfil(1510):1-0
02/05/2018:Défi degun(1900)-tomislav(1780):0-1
02/05/2018:Printemps 2018 n°3 saruman(1680)-trebillig(1580):1-0
02/05/2018:Le vieux Roi 10 zozo(1730)-challenger2015(1550):1/2-1/2
02/05/2018:Le vieux Roi 10 challenger2015(1550)-zozo(1730):1-0
02/05/2018:Memorial Lara XXXII karkaskat(2100)-ascensseur(1590):1-0
02/05/2018:Memorial Lara XXXII ascensseur(1590)-zozo(1620):1-0
02/05/2018:Gisèle 37 karkaskat(2100)-ascensseur(1600):1-0
02/05/2018:Tournoi n°17768 leredoutable(1730)-pahlo111(1790):0-1
02/05/2018:Tournoi n°18077 gilcello(1570)-albescab(1540):1-0
02/05/2018:Tournoi n°18080 tiounet(1620)-vvvv(1630):0-1
02/05/2018:Tournoi n°18086 tiounet(1640)-arno(1630):0-1
02/05/2018:Eq:Vikings-Pirates du Mat : tombelaine(2180)-sp52(2380):0-1
02/05/2018:Coupe Niveau 3 cereus69300(2130)-elghribi(2030):1-0
02/05/2018:Défi castor(1360)-mathildedn(1390):1-0
02/05/2018:Défi silveur(1960)-patau(1790):1-0
02/05/2018:Défi darkchossete(1870)-pascalou50(1780):0-1
02/05/2018:Défi gina(1400)-anumisme(1340):0-1
02/05/2018:Défi zozo(1630)-wenoketo(1560):1-0
02/05/2018:Défi cortaz(1740)-azur(1620):1-0
02/05/2018:Printemps 2018 n°3 trebillig(1580)-coyotov(1600):0-1
02/05/2018:Brice07 tiounet(1680)-bricekiller(1610):1-0
02/05/2018:wild tiounet(1600)-salut(1910):1-0
02/05/2018:Tournoi échelle division 2 pgo(1670)-cereus69300(2190):0-1
02/05/2018:Tournoi n°17969 magyar(1510)-jlr(1430):1-0
02/05/2018:Tournoi n°17944 bobbietje(1380)-phlox(1470):1-0
02/05/2018:Tournoi n°18049 coyotov(1570)-magyar(1530):1-0
02/05/2018:Tournoi n°18070 arno(1650)-legrillon(1690):1-0
02/05/2018:Tournoi n°18049 karclop(1660)-magyar(1530):1-0
02/05/2018:Tournoi n°18076 verson(1840)-dpcarballo(1810):0-1
02/05/2018:Tournoi n°18068 magyar(1530)-supertomate(1499):0-1
02/05/2018:Coupe Niveau 3 verson(1890)-cereus69300(2150):0-1
02/05/2018:Coupe Niveau 1 dpcarballo(1810)-verson(1840):1-0
02/05/2018:Défi bertelsen(1630)-ngeorget(2480):0-1
02/05/2018:Défi vb83(1410)-perepeinard34(1260):0-1
02/05/2018:Printemps 2018 n°4 daniel1(1730)-c3po(2520):1-0
02/05/2018:Anglosaxone tartu(1640)-fly(1950):0-1
02/05/2018:Le vieux Roi 10 challenger2015(1550)-legrillon(1710):1-0
02/05/2018:Le vieux Roi 11 bricekiller(1630)-intrigue(1590):0-1
02/05/2018:Memorial Lara XXXII bertelsen(1650)-pgo(1660):0-1
02/05/2018:Tournoi échelle champions verson(1870)-alizarine(2380):0-1
02/05/2018:Tournoi n°18087 verson(1810)-supertomate(1850):1/2-1/2
02/05/2018:Tournoi n°18093 magyar(1530)-coyotov(1580):0-1
02/05/2018:Tournoi n°17992 miramar(1470)-magyar(1510):1-0
02/05/2018:Tournoi n°18046 bubblegum(1810)-verson(1850):1-0
02/05/2018:Tournoi n°18054 arno(1680)-bubblegum(1810):1-0
02/05/2018:Tournoi n°18055 verson(1850)-bubblegum(1810):0-1
02/05/2018:Tournoi n°18084 nathalie(1360)-cicerond(1410):0-1
02/05/2018:Eq:CHESS MASTER-les grenades : bassdark(2080)-c3po(2510):1-0
02/05/2018:Eq:CHESS MASTER-les grenades : c3po(2510)-bassdark(2080):0-1
02/05/2018:Coupe Niveau 4 yatman(2000)-elghribi(1960):0-1
02/05/2018:Coupe Niveau 2 papinou(1760)-yatman(2000):0-1
02/05/2018:Défi baudoin(1950)-venaline(2240):0-1
02/05/2018:Défi kerenor(1580)-malvina(1250):1-0
02/05/2018:Défi gregmasten(1419)-anumisme(1430):0-1
02/05/2018:Défi bassdark(2070)-titit1(1300):1-0
02/05/2018:Défi bed2bed(1800)-hberlioz(1680):1-0
02/05/2018:Défi pasq60(1220)-castor(1350):0-1
02/05/2018:Défi temistocles(1390)-zatopek(1560):0-1
02/05/2018:Tournoi cinquantenaire pionfou(1790)-mayaapof(1660):0-1
02/05/2018:Tournoi cinquantenaire mayaapof(1660)-pionfou(1790):1-0
02/05/2018:albatros13 lecevenol(1360)-maya24(1600):0-1
02/05/2018:albatros13 maya24(1600)-lecevenol(1360):1-0
02/05/2018:La Française qui avance bis tartu(1700)-yyyg(1580):1/2-1/2
02/05/2018:Le vieux Roi 10 yyyg(1630)-roschecx(1590):0-1
02/05/2018:Le vieux Roi 11 bricekiller(1630)-yyyg(1610):0-1
02/05/2018:Le vieux Roi 11 zozo(1650)-yyyg(1610):1-0
02/05/2018:Tournoi n°17768 jyf(1830)-leredoutable(1730):1-0
02/05/2018:Tournoi n°18103 verson(1830)-scarfield(1800):1-0
02/05/2018:Tournoi n°18032 bastien1(1300)-lantana(1210):0-1
02/05/2018:Tournoi n°18060 bastien1(1330)-katastrofic(1480):1-0
02/05/2018:Tournoi n°18050 bubblegum(1810)-jipepe(1770):1-0
02/05/2018:Tournoi n°17939 tobernor(2380)-lio66(2289):1/2-1/2
02/05/2018:Tournoi n°18083 magyar(1530)-thomas(1620):0-1
02/05/2018:Tournoi n°18086 leredoutable(1620)-tiounet(1640):1-0
02/05/2018:Défi fafamanga(2120)-kaspi007(2120):1/2-1/2
02/05/2018:Défi tal77(2360)-hilts(2130):1/2-1/2
02/05/2018:Défi pitchoune50(1180)-bastien1(1280):1-0
02/05/2018:Défi bilitis(1820)-epervier(1820):0-1
02/05/2018:Défi bastien1(1220)-temistocles(1380):1-0
02/05/2018:Défi gregmasten(1419)-bastien1(1230):0-1
02/05/2018:Défi prince(1639)-epervier14(1500):1-0
02/05/2018:Défi bastien1(1340)-largo(999):1-0
02/05/2018:Défi adrienne(1259)-chobi(1710):0-1
02/05/2018:Défi dan84(1440)-temistocles(1420):1-0
02/05/2018:Défi vb83(1410)-bed2bed(1830):0-1
02/05/2018:Défi xao(1520)-cortaz(1740):0-1
02/05/2018:Défi biquet(1850)-tjspret(1720):1-0
02/05/2018:Défi bastien1(1250)-raymon(1300):1-0
02/05/2018:Défi algors(1730)-guillaumefi(1669):0-1
02/05/2018:Défi pitchoune50(1180)-bastien1(1210):1-0
02/05/2018:honolulu tiounet(1620)-verson(1810):0-1
02/05/2018:Tournoi cinquantenaire janolapin(1840)-pionfou(1790):1-0
02/05/2018:wild zozo(1620)-tiounet(1600):0-1
02/05/2018:Le vieux Roi 11 bricekiller(1630)-roschecx(1630):0-1
02/05/2018:Tournoi n°18100 arno(1640)-verson(1870):0-1
02/05/2018:Tournoi n°18092 gwada50(1280)-gregmasten(1309):1-0
02/05/2018:Tournoi n°17987 gwada50(1320)-selmoun(1490):0-1
02/05/2018:Tournoi n°17987 gwada50(1320)-selmoun(1490):0-1
02/05/2018:Tournoi n°18054 arno(1680)-tjspret(1740):0-1
02/05/2018:Eq:CHESS MASTER-Les diplomates : desmoulins(2600)-chocotov(1920):1-0
02/05/2018:Eq:CHESS MASTER-Fair play : lool(2570)-chocotov(1940):1-0
02/05/2018:Défi chocotov(1960)-moi50(1800):1/2-1/2
02/05/2018:Défi thebest(1179)-zachilan(1350):0-1
02/05/2018:Défi chocotov(1920)-verone(2010):1-0
02/05/2018:Défi alena1(1780)-pascalou50(1780):1-0
02/05/2018:Défi gervaise(1110)-neddy(1120):0-1
02/05/2018:les pirates interne rackam(2130)-alizarine(2360):0-1
02/05/2018:Tournoi échelle division 3 yann56(1760)-jlr(1480):0-1
03/05/2018:Tournoi n°17919 hipyacine(1800)-verson(1850):0-1
03/05/2018:Tournoi n°17963 panchoa(1520)-selmoun(1500):1-0
03/05/2018:Défi cathy17(1020)-adrienne(999):1/2-1/2
03/05/2018:Défi gregmasten(1379)-anumisme(1460):1-0
03/05/2018:Rapide kaspadesbrik(1599)-scarfield(1460):1-0
03/05/2018:Rapide kaspadesbrik(1609)-bastien1(1599):1-0
03/05/2018:honolulu spectre(1770)-ascensseur(1590):1-0
03/05/2018:Gisèle 37 pgo(1660)-turbo(1510):1-0
03/05/2018:Les cloches pgo(1680)-ptitefrez(2040):0-1
03/05/2018:Gisèle 37 ascensseur(1600)-spectre(1760):0-1
03/05/2018:Brice07 roschecx(1630)-ascensseur(1620):1-0
03/05/2018:Le vieux Roi 11 bricekiller(1630)-spectre(1740):0-1
03/05/2018:coupe biquetoces estrafolis(1400)-karkaskat(2100):0-1
03/05/2018:Gisèle 37 connecticcut(1770)-pgo(1660):1-0
03/05/2018:Tournoi n°18086 kasad(1600)-tiounet(1640):0-1
03/05/2018:Eq:Danielsen City-Les Quebecois : pionfou(1770)-pasctin(1950):1-0
03/05/2018:Francaise avec e5 tiounet(1630)-ascensseur(1610):0-1
03/05/2018:Tournoi n°18083 thomas(1620)-oliver5(1670):1-0
03/05/2018:Tournoi n°18086 arno(1630)-kasad(1600):1-0
03/05/2018:Coupe Niveau 4 patau(1790)-guig47(2110):0-1
03/05/2018:Coupe Niveau 3 retraite53(2100)-verson(1810):1-0
03/05/2018:Défi rocketman(2000)-moi50(1810):0-1
03/05/2018:Défi zozo(1660)-prw(1510):1-0
03/05/2018:Défi vulcain14(1610)-vincentcoste(1610):1-0
03/05/2018:Défi angerpat(1550)-zozo(1680):0-1
03/05/2018:Défi turbo(1500)-katastrofic(1490):0-1
03/05/2018:Défi vb83(1420)-reemyyy(1700):1-0
03/05/2018:Défi laetitia67(1430)-anumisme(1380):0-1
03/05/2018:Défi joel(1460)-pierrejean(1450):0-1
03/05/2018:honolulu verson(1810)-tiounet(1620):1-0
03/05/2018:Brice07 roschecx(1630)-turbo(1490):1-0
03/05/2018:Memorial Lara XXXII bertelsen(1650)-tiounet(1650):0-1
03/05/2018:wild tiounet(1600)-zozo(1620):0-1
03/05/2018:Memorial Lara XXXII tiounet(1650)-zozo(1620):1-0
03/05/2018:Memorial Lara XXXII zozo(1620)-tiounet(1650):1-0
03/05/2018:coupe biquetoces bazart(2010)-estrafolis(1400):1-0
03/05/2018:coupe biquetoces estrafolis(1400)-bazart(2010):0-1
03/05/2018:Tournoi n°17962 bezug66(1790)-leet(1760):0-1
03/05/2018:Tournoi n°18012 patau(1790)-arno(1710):1-0
03/05/2018:Tournoi n°18039 verson(1850)-patau(1780):1/2-1/2
03/05/2018:Tournoi n°18058 patau(1770)-ghostdog(1650):1-0
03/05/2018:Tournoi n°18077 tiounet(1610)-epervier14(1520):1-0
03/05/2018:Tournoi n°18074 arno(1630)-patau(1750):0-1
03/05/2018:Tournoi n°18096 verson(1850)-lucienb(1749):1-0
03/05/2018:Tournoi n°18086 kasad(1600)-afeyte(1750):0-1
03/05/2018:Eq:Les Gens du Sud-Vikings : cobraxx10(2120)-verson(1860):0-1
03/05/2018:Eq:Royal Kids-Vikings : pgo(1670)-doudou(1630):1-0
03/05/2018:Défi swallow2(2120)-swallow(1980):0-1
03/05/2018:Défi dragon(1870)-patau(1790):1-0
03/05/2018:Défi dragon(1880)-patau(1770):1-0
03/05/2018:Défi ghostdog(1630)-ramo(1770):0-1
03/05/2018:wild zozo(1620)-pgo(1670):1-0
03/05/2018:Memorial Lara XXXII zozo(1620)-pgo(1660):1-0
03/05/2018:Memorial Lara XXXII pgo(1660)-zozo(1620):0-1
03/05/2018:coupe biquetoces karkaskat(2100)-estrafolis(1400):1-0
03/05/2018:coupe biquetoces zeus87(2160)-estrafolis(1400):1-0
03/05/2018:coupe biquetoces estrafolis(1400)-biquet(1850):0-1
03/05/2018:coupe biquetoces biquet(1850)-estrafolis(1400):1-0
03/05/2018:Tournoi n°18096 lucienb(1749)-arno(1630):0-1
03/05/2018:Tournoi n°17924 papillon22(1780)-jipepe(1810):0-1
03/05/2018:Tournoi n°18074 pitouwb(1710)-arno(1660):1-0
03/05/2018:Tournoi n°18080 verson(1830)-bed2bed(1830):0-1
03/05/2018:Coupe Niveau 6 levelmax(2800)-laronix(2330):1-0
03/05/2018:Défi mathador93(1460)-patau(1790):0-1
03/05/2018:Défi retinolls(1920)-moi50(1810):0-1
03/05/2018:Défi bouffon(1940)-pgo(1670):1-0
03/05/2018:Défi vb83(1410)-mokanne(1550):0-1
03/05/2018:Défi alena1(1760)-patau(1790):1/2-1/2
03/05/2018:Défi verone(2020)-biquet(1850):1-0
03/05/2018:Saint-Valentin 2018 n°2 fanch2pic(1430)-yyyg(1680):0-1
03/05/2018:honolulu spectre(1770)-verson(1810):1/2-1/2
03/05/2018:La Française qui avance bis spectre(1760)-yyyg(1580):0-1
03/05/2018:Jeanmichelle karkaskat(2100)-mathador93(1440):1-0
03/05/2018:grand rapide du printemps fly(1950)-janolapin(1920):1-0
03/05/2018:Tournoi n°17826 jeanned3(1440)-vb83(1410):1-0
03/05/2018:Tournoi n°17879 chomi64(2010)-petrus2000(1980):1-0
03/05/2018:Tournoi n°17944 vb83(1420)-phlox(1460):0-1
03/05/2018:Eq:les fous de bassans-Les Quebecois : matiou1985(2010)-ericb(2260):1-0
03/05/2018:Eq:les fous de bassans-Les Gens du Sud : ericb(2270)-verson(1860):0-1
03/05/2018:Défi gina(1400)-anumisme(1370):1-0
03/05/2018:Défi deric(1520)-prw(1500):1-0
03/05/2018:Défi deric(1540)-stephane300(1460):1-0
03/05/2018:Défi luciens(1300)-majo57(939):1-0
03/05/2018:Défi pierrejean(1450)-anumisme(1410):0-1
03/05/2018:Défi azerty1(2230)-nunnmiles(2540):0-1
03/05/2018:Défi luisitomagic(1299)-gervaise(1140):0-1
03/05/2018:Défi zayka(1880)-regor(1980):0-1
03/05/2018:Défi bertelsen(1650)-hberlioz(1690):1-0
03/05/2018:Défi bassdark(2050)-rvsinovitch(2030):1-0
03/05/2018:Défi anumisme(1360)-tootsienet(1020):1-0
03/05/2018:Mario et Luigi 47 bastien1(1300)-mario46(1370):1-0
03/05/2018:Le vieux Roi 10 roschecx(1590)-challenger2015(1550):0-1
03/05/2018:coupe biquetoces bazart(2010)-biquet(1850):1-0
03/05/2018:coupe biquetoces zeus87(2160)-karkaskat(2100):1-0
03/05/2018:Tournoi échelle élite rvsinovitch(2050)-fredelebouric12(2550):0-1
03/05/2018:Tournoi échelle division 1 karkaskat(2100)-salut(1920):1-0
03/05/2018:Tournoi n°18048 supertomate(1709)-gregmasten(1309):1-0
03/05/2018:Tournoi n°18073 chomi64(2010)-oranmore(1950):0-1
03/05/2018:Eq:les chics capons-LES CHATTERBOX : tichaton(1470)-bistro1(1650):0-1
03/05/2018:Coupe Niveau 3 spectre(1780)-elghribi(1980):0-1
03/05/2018:Défi pitchoune50(1180)-pascalou50(1770):0-1
03/05/2018:Défi epervier(1810)-sinople(1799):0-1
03/05/2018:Défi chedru2000(2160)-lens37(2380):0-1
03/05/2018:Défi supertomate(1719)-pascalou50(1780):1-0
03/05/2018:Défi arzbro(1510)-prw(1520):1-0
03/05/2018:Défi mc2108(1080)-anumisme(1350):0-1
03/05/2018:Défi temistocles(1410)-zozo(1670):1-0
03/05/2018:Défi lantana(1230)-malvina(1300):1-0
03/05/2018:Avec des joueurs sympas 2 tiounet(1620)-pgo(1690):0-1
03/05/2018:Avec des joueurs sympas 2 pgo(1690)-tiounet(1620):1-0
03/05/2018:honolulu verson(1810)-spectre(1770):0-1
03/05/2018:Memorial Lara XXXI casparuf(1490)-skalfa(1780):0-1
03/05/2018:Gisèle 37 tiounet(1640)-spectre(1760):0-1
03/05/2018:Gisèle 37 karkaskat(2100)-tiounet(1640):1-0
03/05/2018:Gisèle 37 pgo(1660)-spectre(1760):1-0
03/05/2018:Nom d un chien titit1(1280)-tiounet(1620):0-1
03/05/2018:Nom d un chien titit1(1280)-bububfo(2000):0-1
03/05/2018:Le vieux Roi 11 roschecx(1630)-bricekiller(1630):1-0
03/05/2018:grand rapide du printemps intrigue(1570)-janolapin(1920):0-1
03/05/2018:coupe biquetoces karkaskat(2100)-zeus87(2160):1-0
03/05/2018:Tournoi n°18111 verson(1810)-alena1(1800):1-0
03/05/2018:Tournoi n°18105 jlr(1490)-katastrofic(1470):1-0
03/05/2018:Tournoi n°17775 nicodemouscron(2150)-bobo(2240):0-1
03/05/2018:Tournoi n°18092 jlr(1490)-gregmasten(1309):1-0
03/05/2018:Tournoi n°18060 gwada50(1310)-bastien1(1330):0-1
03/05/2018:Tournoi n°18069 lychar(1750)-verson(1830):0-1
03/05/2018:Tournoi n°18080 legrillon(1690)-verson(1830):1/2-1/2
03/05/2018:Tournoi n°18098 coyotov(1610)-magyar(1540):1-0
03/05/2018:Défi mayaapof(1670)-framar(1680):0-1
03/05/2018:Défi gilmade(1640)-superman(1810):1-0
03/05/2018:Défi alain84(1670)-matsonic(1820):0-1
03/05/2018:Défi tootsienet(1000)-bastien1(999):0-1
03/05/2018:Défi laetitia67(1440)-gonzok67(1680):0-1
03/05/2018:Défi doudou(1640)-albescab(1530):1-0
03/05/2018:Défi hugues(1520)-buzz84(1510):1-0
03/05/2018:Défi pasq60(1190)-anumisme(1450):1-0
03/05/2018:Défi gregmasten(999)-tootsienet(1020):1-0
03/05/2018:Défi roidechecs(1200)-bastien1(1210):0-1
03/05/2018:Défi tichaton(1480)-malvina(1280):0-1
03/05/2018:neuf sur la French tartu(1690)-crca(1860):0-1
03/05/2018:Gambit dame holyhour(1630)-jazzzz(1920):0-1
03/05/2018:wild pgo(1670)-salut(1910):1-0
03/05/2018:Les cloches tartu(1680)-ascensseur(1630):0-1
03/05/2018:les pirates interne rackam(2130)-philou(1870):1-0
03/05/2018:Tournoi échelle division 3 alena1(1790)-bastien1(1220):1-0
03/05/2018:Tournoi échelle champions verson(1830)-kartush(2070):0-1
03/05/2018:Tournoi n°18059 desmoulins(2600)-nathan(2920):0-1
03/05/2018:Tournoi n°18092 gregmasten(1309)-katastrofic(1470):1-0
03/05/2018:Tournoi n°17947 phlox(1460)-petrovich(1499):0-1
03/05/2018:Tournoi n°18095 gregmasten(999)-bastien1(1220):1-0
03/05/2018:Tournoi n°18037 katastrofic(1510)-holyhour(1610):0-1
03/05/2018:Tournoi n°17998 magyar(1500)-kiki37(1370):1-0
03/05/2018:Eq:Pirates du Mat-Les Oiseaux d Amsterdam : gonca90(2290)-marieclaire(1380):1-0
03/05/2018:Eq:Les Quebecois-Vikings : moutarde18(1930)-mayaapof(1690):1-0
03/05/2018:Eq:LES CHATTERBOX-Vikings : ghostdog(1640)-hberlioz(1690):1-0
03/05/2018:Coupe Niveau 2 verson(1830)-dodogod(2040):0-1
03/05/2018:Défi owow44(1399)-roidechecs(1210):1-0
03/05/2018:Défi morloch(1930)-jimi50(1870):0-1
03/05/2018:Défi morloch(1900)-cowboyarthur(1930):1-0
03/05/2018:Défi franckcordier34500(1499)-flo19(1380):0-1
03/05/2018:Défi cortaz(1740)-asvel69(1740):1-0
03/05/2018:Défi tootsienet(1020)-anumisme(1430):0-1
03/05/2018:Défi zozo(1630)-ghostdog(1630):1-0
03/05/2018:Défi jetjet91330(2190)-katastrofic(1490):1-0
03/05/2018:Défi pitchoune50(1180)-bastien1(1210):1-0
03/05/2018:Défi bastien1(1210)-roidechecs(1200):1-0
03/05/2018:pour le plaisir61 coyotov(1560)-intrigue(1600):0-1
03/05/2018:Memorial Lara XXXII pgo(1660)-fly(2020):1-0
03/05/2018:coupe biquetoces estrafolis(1400)-zeus87(2160):0-1
03/05/2018:coupe biquetoces estrafolis(1400)-ascensseur(1620):0-1
03/05/2018:coupe biquetoces ascensseur(1620)-estrafolis(1400):1-0
03/05/2018:Tournoi n°18093 coyotov(1590)-wenoketo(1580):1-0
03/05/2018:Tournoi n°18096 legros(1730)-lucienb(1749):1-0
03/05/2018:Tournoi n°18083 qsdmlk(1580)-thomas(1620):0-1
03/05/2018:Eq:Les Seigneurs de l Atlantide-Les Corsaires de Lechiquier : april(2050)-chronik(2050):1-0
03/05/2018:Eq:Mission Impossible-les chics capons : hanam(2140)-apage(2130):1-0
03/05/2018:Eq:Les Seigneurs de l Atlantide-LES CHATTERBOX : bistro1(1650)-chronik(2170):0-1
03/05/2018:Défi tootsienet(1000)-anumisme(1370):0-1
03/05/2018:Défi kynyo(1499)-kaspy(1980):1-0
03/05/2018:Défi hberlioz(1700)-pascalou50(1760):0-1
03/05/2018:Défi castor(1360)-bastien1(1330):1-0
03/05/2018:Défi wenoketo(1580)-algors(1730):1-0
03/05/2018:Défi padomi85(1980)-morloch(1920):1-0
03/05/2018:Défi trueman(1900)-moi50(1780):1-0
03/05/2018:Défi clafouti(1809)-verone(2000):0-1
03/05/2018:Défi wenoketo(1570)-albescab(1530):0-1
03/05/2018:Défi laurent69001(1280)-penelope45(1280):0-1
03/05/2018:Défi pasq60(1160)-anumisme(1460):0-1
03/05/2018:Gambit dame bubblegum(1810)-jazzzz(1920):0-1
03/05/2018:Le vieux Roi 9 bricekiller(1530)-roschecx(1580):0-1
03/05/2018:Memorial Lara XXXI flmnh(1770)-casparuf(1490):1-0
03/05/2018:albatros13 sampiero2a(1340)-lecevenol(1360):0-1
03/05/2018:Jeanmichelle mathador93(1440)-tiounet(1670):0-1
03/05/2018:coupe biquetoces estrafolis(1400)-mequinho(1820):0-1
03/05/2018:coupe biquetoces vachefolle(2010)-estrafolis(1400):1-0
03/05/2018:Tournoi échelle division 2 bubblegum(1810)-electronlibre(1830):0-1
04/05/2018:Tournoi n°17978 tjspret(1730)-leredoutable(1660):1-0
04/05/2018:Tournoi n°18059 desmoulins(2600)-letyjo(2870):0-1
04/05/2018:Tournoi n°17977 joraq(2220)-hilts(2120):1-0
04/05/2018:Tournoi n°18064 kendo2d(1830)-verson(1820):0-1
04/05/2018:Coupe Niveau 1 bubblegum(1820)-blackbishop(1810):0-1
04/05/2018:Défi gregmasten(1449)-bigkahuna(1680):1-0
04/05/2018:Défi joelcouturier(1190)-bastien1(1399):1-0
04/05/2018:Défi gregmasten(1309)-calcedoine(1880):0-1
04/05/2018:Défi roschecx(1600)-gilberthellemans(1620):0-1
04/05/2018:Défi tootsienet(1020)-gregmasten(999):1-0
04/05/2018:Défi hberlioz(1710)-berjay(1700):1-0
04/05/2018:Défi albescab(1520)-jmr(1550):0-1
04/05/2018:Défi anumisme(1420)-joelcouturier(1180):1-0
04/05/2018:Rapide bertelsen(1290)-crca(1480):0-1
04/05/2018:Rapide biquet(1629)-crca(1480):1-0
04/05/2018:Rapide foxie519(1390)-kaspadesbrik(1550):1-0
04/05/2018:Défi algors(1740)-superman(1730):0-1
04/05/2018:Tournoi n°18086 leredoutable(1620)-kasad(1600):1-0
04/05/2018:Défi kaspy(1910)-christianlabat(1450):1-0
04/05/2018:Tournoi n°18042 desaintfegor(1810)-verson(1850):1-0
04/05/2018:Eq:les modestes-Les Seigneurs de l Atlantide : berniz(2230)-chronik(2110):1/2-1/2
04/05/2018:Avec des joueurs sympas 2 spectre(1770)-ascensseur(1590):1-0
04/05/2018:honolulu ascensseur(1590)-spectre(1770):0-1
04/05/2018:Tournoi n°17748 seb0108(2009)-willkommen54(2000):1-0
04/05/2018:Tournoi n°17830 dragon(1950)-chomi64(1990):0-1
04/05/2018:Tournoi n°17968 yann56(1770)-patau(1770):1-0
04/05/2018:Tournoi n°18035 desaintfegor(1800)-verson(1870):1/2-1/2
04/05/2018:Tournoi n°17987 bobbietje(1400)-ditmir(999):1-0
04/05/2018:Tournoi n°17996 jojodu35(1240)-lantana(1190):1-0
04/05/2018:Eq:Les Gens du Sud-Danielsen City : dragon(1890)-xao(1490):1-0
04/05/2018:Coupe Niveau 5 senegaulois(1920)-titeuf(2300):0-1
04/05/2018:Défi roidechecs(1300)-cathy17(1000):1-0
04/05/2018:Défi anumisme(1370)-pivoine78(1200):1-0
04/05/2018:Défi tootsienet(1020)-steflam(1400):0-1
04/05/2018:Défi tian(1360)-tropa(1460):0-1
04/05/2018:Défi matsonic(1860)-kiki24(1950):1/2-1/2
04/05/2018:Défi tartu(1680)-tetene(1650):0-1
04/05/2018:Défi tartu(1690)-papymiche(1750):1-0
04/05/2018:Défi patau(1760)-thierry22(1630):1-0
04/05/2018:Défi pj612(1840)-cortaz(1740):0-1
04/05/2018:Mémoire à David Bowie n°1 fly(1910)-yyyg(1720):1-0
04/05/2018:Avec des joueurs sympas 2 spectre(1770)-tiounet(1620):1-0
04/05/2018:Avec des joueurs sympas 2 ascensseur(1590)-yyyg(1670):0-1
04/05/2018:Avec des joueurs sympas 2 ascensseur(1590)-spectre(1770):1/2-1/2
04/05/2018:Avec des joueurs sympas 2 tiounet(1620)-ascensseur(1590):0-1
04/05/2018:Avec des joueurs sympas 2 ascensseur(1590)-tiounet(1620):0-1
04/05/2018:Avec des joueurs sympas 2 pgo(1690)-yyyg(1670):1-0
04/05/2018:honolulu ascensseur(1590)-yyyg(1670):0-1
04/05/2018:honolulu spectre(1770)-tiounet(1620):1-0
04/05/2018:honolulu tiounet(1620)-spectre(1770):0-1
04/05/2018:honolulu ascensseur(1590)-tiounet(1620):1-0
04/05/2018:honolulu tiounet(1620)-ascensseur(1590):0-1
04/05/2018:la bonne française yyyg(1680)-skalfa(1780):0-1
04/05/2018:Francaise avec e5 ascensseur(1610)-spectre(1760):1/2-1/2
04/05/2018:Tournoi n°18039 patau(1780)-simer(1700):1-0
04/05/2018:Tournoi n°18027 tartu(1690)-gtx(1800):1-0
04/05/2018:Tournoi n°18012 simer(1720)-patau(1790):1-0
04/05/2018:Tournoi n°18115 uliczny(1940)-verson(1810):1/2-1/2
04/05/2018:Eq:Les Seigneurs de l Atlantide-cotenstock : mathieuw(2470)-capitaine(2070):1-0
04/05/2018:Défi lantana(1070)-grognasse(1300):0-1
04/05/2018:Défi baloo(1560)-katastrofic(1510):1-0
04/05/2018:Défi verone(2020)-woozie(2110):1-0
04/05/2018:Défi bastien1(1230)-roidechecs(1200):1-0
04/05/2018:Avec des joueurs sympas 2 spectre(1770)-pgo(1690):1-0
04/05/2018:Avec des joueurs sympas 2 ascensseur(1590)-pgo(1690):1/2-1/2
04/05/2018:honolulu verson(1810)-ascensseur(1590):0-1
04/05/2018:honolulu ascensseur(1590)-verson(1810):1/2-1/2
04/05/2018:La Française qui avance bis karkaskat(2130)-bricekiller(1630):1-0
04/05/2018:wild ascensseur(1600)-karkaskat(2100):0-1
04/05/2018:Francaise avec e5 karkaskat(2100)-ascensseur(1610):1-0
04/05/2018:Tournoi échelle division 1 patau(1800)-salut(1910):0-1
04/05/2018:Tournoi n°17775 nodilo(2110)-thierry7ardeche(2020):1-0
04/05/2018:Tournoi n°18000 afeyte(1700)-marco(1600):0-1
04/05/2018:Tournoi n°18093 coyotov(1580)-mokanne(1550):0-1
04/05/2018:Tournoi n°18014 kendo2d(1860)-malthus(1820):0-1
04/05/2018:Défi temistocles(1470)-jmr(1600):0-1
04/05/2018:Défi mimie(1630)-patau(1780):1-0
04/05/2018:Défi pgo(1670)-tartu(1680):0-1
04/05/2018:Défi patau(1780)-intrigue(1600):1-0
04/05/2018:Défi gobois(1660)-tartu(1680):0-1
04/05/2018:Défi siger72(1310)-anumisme(1410):0-1
04/05/2018:Défi bastien1(1210)-roidechecs(1200):0-1
04/05/2018:Défi roidechecs(1190)-bastien1(1260):0-1
04/05/2018:Gisèle 37 spectre(1760)-tiounet(1640):1-0
04/05/2018:Gisèle 37 connecticcut(1770)-tiounet(1640):1-0
04/05/2018:Gisèle 37 tiounet(1640)-connecticcut(1770):0-1
04/05/2018:Les cloches tartu(1680)-pgo(1680):1-0
04/05/2018:Le vieux Roi 11 yyyg(1610)-intrigue(1590):1-0
04/05/2018:Memorial Lara XXXII bertelsen(1650)-tartu(1690):1-0
04/05/2018:Francaise avec e5 dpcarballo(1859)-tiounet(1630):1-0
04/05/2018:Tournoi échelle division 2 gaspard83(1520)-pgo(1670):1-0
04/05/2018:Tournoi n°17993 afeyte(1700)-tiounet(1700):0-1
04/05/2018:Tournoi n°18063 tartu(1700)-tiounet(1600):1-0
04/05/2018:Tournoi n°18076 patau(1770)-verson(1830):0-1
04/05/2018:Tournoi n°18076 tiounet(1610)-patau(1770):0-1
04/05/2018:Défi zayka(1870)-patau(1810):0-1
04/05/2018:Défi zozo(1630)-tichaton(1480):1-0
04/05/2018:honolulu spectre(1770)-ptitefrez(2000):0-1
04/05/2018:honolulu ptitefrez(2000)-tiounet(1620):1-0
04/05/2018:albatros13 sylvainwb(1660)-lecevenol(1360):1-0
04/05/2018:pour le plaisir61 turbo(1490)-tartu(1690):0-1
04/05/2018:Tournoi n°18101 verson(1840)-brettsinclair(1820):1-0
04/05/2018:Tournoi n°17972 lepiton(1780)-simer(1690):1-0
04/05/2018:Tournoi n°18033 hilts(2130)-jetjet91330(2180):0-1
04/05/2018:Tournoi n°18040 panchoa(1510)-azur(1640):1-0
04/05/2018:Tournoi n°17880 geantvert(1660)-tartu(1690):1-0
04/05/2018:Tournoi n°17986 legrillon(1690)-xercott(1710):0-1
04/05/2018:Tournoi n°18019 tartu(1680)-aramis(1750):0-1
04/05/2018:Tournoi n°18023 wenoketo(1590)-intrigue(1590):1-0
04/05/2018:Tournoi n°18049 coyotov(1570)-karclop(1660):1-0
04/05/2018:Tournoi n°18060 joel(1440)-bastien1(1330):1-0
04/05/2018:Eq:O fou d hello-Fair play : junior1966(1340)-papillon22(1780):0-1
04/05/2018:Eq:La Crim Team-Royal Kids : tartu(1710)-pournelle(2670):0-1
04/05/2018:Coupe Niveau 2 verson(1830)-clafouti(2059):0-1
04/05/2018:Défi anumisme(1450)-pitchoune50(1180):1-0
04/05/2018:Défi turbo(1510)-cortaz(1760):1-0
04/05/2018:Défi pgo(1660)-zozo(1630):0-1
04/05/2018:Défi morloch(1890)-regor(1990):0-1
04/05/2018:Défi lecevenol(1390)-cortaz(1750):1-0
04/05/2018:Avec des joueurs sympas 2 pgo(1690)-spectre(1770):0-1
04/05/2018:pour le plaisir61 tartu(1690)-coyotov(1560):1-0
04/05/2018:pour le plaisir61 coyotov(1560)-tartu(1690):0-1
04/05/2018:pour le plaisir61 intrigue(1600)-coyotov(1560):0-1
04/05/2018:Gisèle 37 spectre(1760)-turbo(1510):1-0
04/05/2018:wild salut(1910)-intrigue(1650):1-0
04/05/2018:wild intrigue(1650)-salut(1910):0-1
04/05/2018:wild zozo(1620)-intrigue(1650):1-0
04/05/2018:wild salut(1910)-fooy33(1890):0-1
04/05/2018:wild intrigue(1650)-karkaskat(2100):0-1
04/05/2018:wild karkaskat(2100)-intrigue(1650):1-0
04/05/2018:Gisèle 35 jyf(1860)-pgo(1680):1-0
04/05/2018:Le vieux Roi 10 tartu(1680)-challenger2015(1550):1/2-1/2
04/05/2018:Le vieux Roi 11 roschecx(1630)-spectre(1740):0-1
04/05/2018:Memorial Lara XXXII karkaskat(2100)-tartu(1690):1-0
04/05/2018:Memorial Lara XXXII tartu(1690)-karkaskat(2100):0-1
04/05/2018:Memorial Lara XXXII tartu(1690)-zozo(1620):1-0
04/05/2018:Memorial Lara XXXII zozo(1620)-tartu(1690):1-0
04/05/2018:Tournoi n°18009 legionnaire(1570)-zozo(1680):0-1
04/05/2018:Tournoi n°18028 bastien1(1439)-buzz84(1480):1-0
04/05/2018:Tournoi n°18029 gonzok67(1690)-albescab(1540):1-0
04/05/2018:Tournoi n°18053 wenoketo(1560)-tartu(1680):0-1
04/05/2018:Tournoi n°18085 simer(1700)-onetwoyve(1750):1-0
04/05/2018:Tournoi n°18111 simer(1710)-verson(1810):1-0
04/05/2018:Eq:Mission Impossible-Danielsen City : afeyte(1720)-eanouis(2080):0-1
04/05/2018:Eq:Les Gens du Sud-Fair play : gtx(1820)-tetene(1680):0-1
04/05/2018:Défi temistocles(1410)-tinenfant(1880):0-1
04/05/2018:Défi prince(1730)-xao(1510):1-0
04/05/2018:Défi hberlioz(1700)-pgo(1670):0-1
04/05/2018:Défi eloyoy(1960)-jpjay(1770):1-0
04/05/2018:Défi bastien1(1330)-malvina(1300):1-0
04/05/2018:Défi pgo(1670)-wenoketo(1580):1-0
04/05/2018:Défi retraite53(1809)-oswaldo(1820):1-0
04/05/2018:Défi jenaipeurderien(1490)-castor(1350):1-0
04/05/2018:Défi blackbishop(1880)-zozo(1630):1-0
04/05/2018:Défi bastien1(1230)-roidechecs(1190):1-0
04/05/2018:pour le plaisir61 turbo(1490)-intrigue(1600):0-1
04/05/2018:Tournoi n°18103 scarfield(1800)-percy62(2090):0-1
04/05/2018:Tournoi n°18007 leet(1780)-papillon22(1800):0-1
04/05/2018:Eq:CHESS MASTER-Les diplomates : tatar(2730)-bassdark(2070):1-0
04/05/2018:Défi hberlioz(1680)-pourquoipas(1470):1-0
04/05/2018:Défi gaspard83(1530)-tiounet(1680):1-0
04/05/2018:Défi ryba(1940)-swallow(1990):0-1
04/05/2018:Défi bigkahuna(1299)-lantana(1210):1-0
04/05/2018:Défi lecevenol(1390)-katastrofic(1490):0-1
04/05/2018:Défi bazart(2010)-fisher22(1799):0-1
04/05/2018:Défi tichaton(1470)-malvina(1270):0-1
04/05/2018:Gisèle 37 tiounet(1640)-pgo(1660):1-0
04/05/2018:les pirates interne rackam(2130)-gonca90(2260):1-0
04/05/2018:les pirates interne volatile(2510)-rackam(2130):1-0
04/05/2018:Tournoi échelle élite fredelebouric12(2550)-laronix(2330):1-0
04/05/2018:Tournoi échelle division 3 clafouti(1999)-fredbauduret(1950):1-0
04/05/2018:Tournoi échelle division 2 pgo(1670)-ascensseur(1590):1-0
05/05/2018:Tournoi n°17976 patau(1790)-leredoutable(1660):1-0
05/05/2018:Tournoi n°17956 warriorette(1930)-jazzzz(1930):0-1
05/05/2018:Tournoi n°18064 spectre(1780)-kendo2d(1830):1-0
05/05/2018:Tournoi n°17956 warriorette(1930)-degun(1920):0-1
05/05/2018:Tournoi n°18070 legrillon(1690)-ghostdog(1630):1-0
05/05/2018:Tournoi n°18084 nef1(1350)-nathalie(1380):1-0
05/05/2018:Tournoi n°18083 oliver5(1680)-legrillon(1690):0-1
05/05/2018:Défi regis08(1900)-samsam08(1099):1-0
05/05/2018:Défi anumisme(1370)-joelcouturier(1190):1-0
05/05/2018:Défi perepeinard34(1260)-hberlioz(1680):0-1
05/05/2018:Défi cortaz(1750)-chobi(1710):1-0
05/05/2018:Rapide pherce(1790)-foxie519(1390):1-0
05/05/2018:Memorial Lara XXXII bigkahuna(1299)-pgo(1660):1-0
05/05/2018:Tournoi n°18045 manulatus(1890)-bubblegum(1810):1-0
05/05/2018:Défi holyhour(1610)-kousso(1360):1-0
05/05/2018:Défi bubblegum(1800)-chobi(1720):0-1
05/05/2018:Jeanmichelle bubblegum(1810)-leet(1780):0-1
05/05/2018:Eq:Mission Impossible-LES CHATTERBOX : bistro1(1610)-afeyte(1720):0-1
05/05/2018:Tournoi échelle division 3 dukehemon(1829)-minecraft(1679):1-0
05/05/2018:Tournoi n°18111 scarfield(1780)-verson(1790):0-1
05/05/2018:Défi jmr(1600)-chess54(1580):1-0
05/05/2018:Défi jenaipeurderien(1490)-turbo(1500):1-0
05/05/2018:honolulu verson(1810)-brettsinclair(1790):1-0
05/05/2018:wild brettsinclair(1840)-tiounet(1600):1-0
05/05/2018:Tournoi n°17835 mazdaroket(2020)-bim(2050):0-1
05/05/2018:Tournoi n°18025 verson(1860)-desaintfegor(1810):1/2-1/2
05/05/2018:Tournoi n°18023 intrigue(1590)-legrillon(1690):1-0
05/05/2018:Tournoi n°18077 epervier14(1520)-gilcello(1570):0-1
05/05/2018:Défi niko(1860)-lancov(1880):1-0
05/05/2018:Défi pj612(1790)-jyf(1820):0-1
05/05/2018:Défi hberlioz(1680)-jimi50(1870):0-1
05/05/2018:Défi albescab(1530)-zozo(1640):1-0
05/05/2018:honolulu brettsinclair(1790)-verson(1810):0-1
05/05/2018:albatros13 maya24(1600)-intrigue(1610):1-0
05/05/2018:La Française qui avance bis bricekiller(1630)-spectre(1760):0-1
05/05/2018:Memorial Lara XXXII tartu(1690)-bertelsen(1650):0-1
05/05/2018:Memorial Lara XXXII ascensseur(1590)-pgo(1660):0-1
05/05/2018:Tournoi échelle division 2 zozo(1620)-cereus69300(2180):0-1
05/05/2018:Tournoi n°17837 geantvert(1640)-legrillon(1690):0-1
05/05/2018:Tournoi n°17921 geantvert(1660)-papinou(1790):1/2-1/2
05/05/2018:Tournoi n°18019 tartu(1680)-arno(1710):0-1
05/05/2018:Tournoi n°18089 arno(1640)-verson(1850):0-1
05/05/2018:Tournoi n°18121 verson(1820)-arno(1650):1-0
05/05/2018:Coupe Niveau 4 bim(2100)-abc47(2070):1/2-1/2
05/05/2018:Coupe Niveau 1 clafouti(1809)-verson(1860):1-0
05/05/2018:Défi fabio985(1830)-arno(1660):1-0
05/05/2018:Défi tomislav(1790)-lancov(1880):0-1
05/05/2018:Défi bricekiller(1520)-maxzur(1520):0-1
05/05/2018:Défi titit1(1280)-stephane300(1460):1-0
05/05/2018:Défi tousostade(1570)-anumisme(1370):1-0
05/05/2018:Défi bibisept(1860)-alain34(2190):0-1
05/05/2018:Défi azur(1610)-chess54(1580):1-0
05/05/2018:Défi christie(1370)-roidechecs(1300):1/2-1/2
05/05/2018:Défi jipix(1980)-baudoin(1990):0-1
05/05/2018:Défi guig47(2090)-sybex(2119):0-1
05/05/2018:Défi katastrofic(1490)-jetjet91330(2190):1-0
05/05/2018:Avec des joueurs sympas 2 spectre(1770)-geantvert(1700):1-0
05/05/2018:La Française qui avance bis bricekiller(1630)-blackbishop(1810):0-1
05/05/2018:Memorial Lara XXXII tartu(1690)-pgo(1660):1-0
05/05/2018:Memorial Lara XXXII pgo(1660)-tartu(1690):1-0
05/05/2018:Tournoi n°18100 geantvert(1690)-verson(1830):1-0
05/05/2018:Tournoi n°17948 verson(1860)-superlolo83(1760):0-1
05/05/2018:Tournoi n°18055 verson(1820)-silveur(1960):1-0
05/05/2018:Eq:Mission Impossible-Les Oiseaux d Amsterdam : loco11(1950)-karpov(2390):0-1
05/05/2018:Eq:Les Gens du Sud-Les Quebecois : verson(1820)-pionfou(1740):1/2-1/2
05/05/2018:Eq:Les Gens du Sud-Les Quebecois : pionfou(1740)-verson(1820):1-0
05/05/2018:Défi johannes03(999)-steflam(1410):1-0
05/05/2018:Défi intrigue(1590)-geantvert(1680):0-1
05/05/2018:Défi xao(1520)-sysy2014(1450):1-0
05/05/2018:Défi cocodou(1950)-alain34(2180):0-1
05/05/2018:Défi jmr(1570)-roschecx(1640):0-1
05/05/2018:Défi hberlioz(1690)-holyhour(1640):0-1
05/05/2018:Défi uliczny(1940)-fisher22(1799):0-1
05/05/2018:Défi pascalou50(1780)-pitchoune50(1200):1-0
05/05/2018:Et une Grunfeld une bricekiller(1530)-salut(2010):0-1
05/05/2018:Le vieux Roi 10 roschecx(1590)-tartu(1680):0-1
05/05/2018:les pirates interne sp52(2410)-gonca90(2260):1-0
05/05/2018:Tournoi n°18106 joel(1430)-c69(1390):1-0
05/05/2018:Tournoi n°18094 verson(1850)-leet(1800):0-1
05/05/2018:Tournoi n°17951 mistralgagnant(1940)-cereus69300(1910):0-1
05/05/2018:Tournoi n°18031 gtx(1790)-brettsinclair(1840):0-1
05/05/2018:Tournoi n°18089 verson(1870)-kynyo(1719):1/2-1/2
05/05/2018:Tournoi n°18103 percy62(2090)-verson(1840):1-0
05/05/2018:Eq:Vikings-LES CHATTERBOX : jazzzz(1890)-anderssen(2450):0-1
05/05/2018:Coupe Niveau 8 maitreabord(2780)-conde7(2830):1/2-1/2
05/05/2018:Coupe Niveau 7 vladtepes(2470)-hogar(2820):0-1
05/05/2018:Coupe Niveau 3 bubblegum(1800)-gtx(1820):1-0
05/05/2018:Défi tartu(1690)-temistocles(1410):0-1
05/05/2018:Défi seb(1940)-morloch(1880):1-0
05/05/2018:Défi nanaluce(1070)-anumisme(1370):0-1
05/05/2018:Défi roidechecs(1250)-ys07(1320):0-1
05/05/2018:Défi max2007(1350)-bastien1(1330):1-0
05/05/2018:Défi buzz84(1520)-pourquoipas(1480):0-1
05/05/2018:Défi clemm(1680)-simer(1700):1-0
05/05/2018:La Française qui avance bis tartu(1700)-bricekiller(1630):1-0
05/05/2018:Tournoi n°18048 nathalie(1360)-gregmasten(1309):0-1
05/05/2018:Tournoi n°18061 intrigue(1630)-arno(1680):1-0
05/05/2018:Tournoi n°18090 lucienb(1749)-berthe(1790):0-1
05/05/2018:Tournoi n°18045 verson(1840)-annakhine(1950):0-1
05/05/2018:Tournoi n°18063 bylka(1700)-1thibou(1710):1-0
05/05/2018:Tournoi n°18127 tartu(1710)-jhz(1809):1-0
05/05/2018:Tournoi n°18125 jhz(1809)-verson(1810):0-1
05/05/2018:Eq:Les Quebecois-Pirates du Mat : rackam(2130)-roschecx(1640):1-0
05/05/2018:Eq:Fair play-Les Quebecois : gtx(1800)-roschecx(1650):0-1
05/05/2018:Eq:Fair play-Les Quebecois : roschecx(1650)-gtx(1800):1-0
05/05/2018:Défi joelcouturier(1180)-arthur2584(1259):1-0
05/05/2018:Défi radar(1499)-dpcarballo(1810):1-0
05/05/2018:Gisèle 35 jyf(1860)-ascensseur(1580):1/2-1/2
05/05/2018:Juste for fun jyf(1810)-intrigue(1560):1-0
05/05/2018:pour le plaisir61 intrigue(1600)-turbo(1490):1-0
05/05/2018:Le vieux Roi 10 tartu(1680)-geantvert(1660):0-1
05/05/2018:Le vieux Roi 11 spectre(1740)-roschecx(1630):1-0
05/05/2018:Memorial Lara XXXII karkaskat(2100)-bigkahuna(1299):0-1
05/05/2018:Tournoi échelle élite fredelebouric12(2550)-nicodemouscron(2150):1-0
05/05/2018:Tournoi échelle champions ptitefrez(2000)-verson(1840):1-0
05/05/2018:Tournoi échelle division 1 verson(1810)-salut(1880):0-1
05/05/2018:Tournoi n°17755 desaintfegor(1800)-jaimelamer(1900):0-1
05/05/2018:Tournoi n°18087 dragon(1870)-verson(1820):1-0
05/05/2018:Coupe Niveau 6 nunnmiles(2540)-levelmax(2800):0-1
05/05/2018:Défi kawa750(1520)-intrigue(1600):0-1
05/05/2018:Défi gilberthellemans(1620)-patrick(1590):0-1
05/05/2018:Défi bigkahuna(1669)-katastrofic(1460):0-1
05/05/2018:Défi morloch(1920)-cineyxp(2040):0-1
05/05/2018:Défi cricri57(1800)-patau(1740):1-0
05/05/2018:Défi patau(1730)-chomi64(1990):0-1
05/05/2018:Défi temistocles(1410)-jenaipeurderien(1490):0-1
05/05/2018:Défi cortaz(1740)-ghostdog(1630):0-1
05/05/2018:Avec des joueurs sympas 2 pgo(1690)-geantvert(1700):0-1
05/05/2018:Gambit dame intrigue(1600)-holyhour(1630):1-0
05/05/2018:les pirates interne gonca90(2260)-blutch70(2260):0-1
05/05/2018:Tournoi n°17966 fly(2020)-vabre81(2030):1-0
05/05/2018:Tournoi n°17973 legrillon(1690)-gonzok67(1690):1-0
05/05/2018:Tournoi n°18105 joel(1450)-katastrofic(1470):0-1
05/05/2018:Tournoi n°18092 gwada50(1280)-katastrofic(1470):1-0
05/05/2018:Tournoi n°18029 oliver5(1680)-gonzok67(1690):0-1
05/05/2018:Tournoi n°18063 tiounet(1600)-1thibou(1710):0-1
05/05/2018:Tournoi n°17846 philippehat(2150)-dodogod(2040):0-1
05/05/2018:Tournoi n°18092 gregmasten(1309)-pierrejean(1450):0-1
05/05/2018:Tournoi n°18111 simer(1710)-alena1(1800):0-1
05/05/2018:Tournoi n°18111 scarfield(1780)-simer(1710):1-0
05/05/2018:Eq:Les Quebecois-Pirates du Mat : roschecx(1640)-rackam(2130):0-1
05/05/2018:Défi roschecx(1640)-gobois(1720):0-1
05/05/2018:Défi bigkahuna(1299)-castor(1350):1-0
05/05/2018:Défi fragol(1710)-claudus(1670):1-0
05/05/2018:Défi gregmasten(1350)-scarfield(1770):0-1
05/05/2018:albatros13 sylvainwb(1660)-intrigue(1610):1-0
05/05/2018:albatros13 maya24(1600)-sylvainwb(1660):1/2-1/2
06/05/2018:Tournoi n°18063 bylka(1700)-tiounet(1600):1-0
06/05/2018:Tournoi n°17993 tiounet(1700)-wendydydy(1640):1-0
06/05/2018:Tournoi n°18072 panchoa(1510)-katastrofic(1480):0-1
06/05/2018:Eq:Les Gens du Sud-CHESS MASTER : ryba(2000)-chocotov(1940):0-1
06/05/2018:Eq:Vikings-Danielsen City : anderssen(2450)-hilts(2140):1-0
06/05/2018:Eq:Vikings-Danielsen City : hilts(2140)-anderssen(2450):0-1
06/05/2018:Coupe Niveau 2 panchoa(1540)-yatman(2000):0-1
06/05/2018:Défi patau(1780)-willkommen54(2010):1/2-1/2
06/05/2018:Défi anumisme(1350)-bigoudi(1000):1-0
06/05/2018:Défi jhz(1809)-elghribi(2000):0-1
06/05/2018:Rapide pherce(1800)-jhz(1599):0-1
06/05/2018:Memorial Lara XXXII tiounet(1650)-karkaskat(2100):0-1
06/05/2018:Francaise avec e5 karkaskat(2100)-tiounet(1630):1-0
06/05/2018:Eq:Les Quebecois-les grenades : c3po(2540)-hub(1870):0-1
06/05/2018:Eq:les grenades-Pirates du Mat : c3po(2520)-gonca90(2290):0-1
06/05/2018:Eq:les grenades-Pirates du Mat : gonca90(2290)-c3po(2520):1-0
06/05/2018:Défi anumisme(1390)-largo(999):1-0
06/05/2018:Printemps 2018 n°4 c3po(2520)-chrislee76(2030):0-1
06/05/2018:Memorial Lara XXXI casparuf(1490)-tartu(1660):0-1
06/05/2018:La Française qui avance bis flmnh(1750)-bricekiller(1630):1-0
06/05/2018:Eq:Danielsen City-Les Gens du Sud : e2e4(2070)-verson(1870):1/2-1/2
06/05/2018:Eq:Fair play-O fou d hello : gtx(1790)-yab414(1590):0-1
06/05/2018:Eq:Fair play-O fou d hello : yab414(1590)-gtx(1790):1-0
06/05/2018:Défi electronlibre(1860)-youliyouli(1810):0-1
06/05/2018:Tournoi échelle division 3 cereus69300(2100)-minecraft(1679):1-0
06/05/2018:Tournoi échelle champions fly(2030)-verson(1850):1/2-1/2
06/05/2018:Tournoi n°17880 legrillon(1670)-geantvert(1650):0-1
06/05/2018:Tournoi n°18129 tartu(1680)-intrigue(1630):1/2-1/2
06/05/2018:Tournoi n°17990 panchoa(1510)-kynyo(1499):1-0
06/05/2018:Tournoi n°18068 deric(1550)-supertomate(1499):1/2-1/2
06/05/2018:Tournoi n°18065 kiki37(1360)-bigkahuna(1299):0-1
06/05/2018:Tournoi n°18071 scarfield(1830)-manulatus(1890):0-1
06/05/2018:Tournoi n°18065 kiki37(1360)-cicerond(1420):0-1
06/05/2018:Tournoi n°18085 onetwoyve(1730)-legrillon(1710):1-0
06/05/2018:Tournoi n°18127 verson(1830)-tartu(1690):1-0
06/05/2018:Tournoi n°18116 patau(1810)-verson(1830):1-0
06/05/2018:Défi tartu(1680)-deric(1570):0-1
06/05/2018:Memorial Lara XXXI casparuf(1490)-ascensseur(1590):1/2-1/2
06/05/2018:Et une Grunfeld une crca(1850)-flmnh(1730):1-0
06/05/2018:Gisèle 37 tiounet(1640)-ascensseur(1600):1-0
06/05/2018:wild intrigue(1650)-pgo(1670):1/2-1/2
06/05/2018:wild intrigue(1650)-zozo(1620):0-1
06/05/2018:wild salut(1910)-ascensseur(1600):1-0
06/05/2018:Memorial Lara XXXII tartu(1690)-bigkahuna(1299):0-1
06/05/2018:Memorial Lara XXXII bigkahuna(1299)-zozo(1620):1-0
06/05/2018:Francaise avec e5 spectre(1760)-karkaskat(2100):0-1
06/05/2018:Tournoi échelle division 2 jlouism(1530)-pasctin(1950):0-1
06/05/2018:Tournoi n°17834 loco11(1930)-willkommen54(2010):0-1
06/05/2018:Tournoi n°18103 verson(1840)-domenico(1800):1-0
06/05/2018:Tournoi n°18090 lucienb(1749)-kendo2d(1850):0-1
06/05/2018:Tournoi n°18044 arno(1690)-holyhour(1630):0-1
06/05/2018:Tournoi n°18096 verson(1850)-legros(1730):1-0
06/05/2018:Tournoi n°18021 nogean(1580)-tiounet(1640):0-1
06/05/2018:Tournoi n°18081 tartu(1680)-tiounet(1610):0-1
06/05/2018:Eq:LA CITE ARDENTE-Pirates du Mat : daiwen(2310)-bigbobo(2210):1-0
06/05/2018:Eq:Vikings-cotenstock : mordom(2320)-ngeorget(2450):0-1
06/05/2018:Eq:Les Gens du Sud-O fou d hello : ragg(1590)-verson(1850):0-1
06/05/2018:Eq:les fous de bassans-Les Gens du Sud : ninaleo06(1780)-vachefolle(2010):0-1
06/05/2018:Défi intrigue(1640)-tichaton(1460):1-0
06/05/2018:Défi chevalice(1670)-tiounet(1620):1-0
06/05/2018:Défi bigoudi(1000)-anumisme(1370):0-1
06/05/2018:Défi bastien1(1290)-bigkahuna(1299):0-1
06/05/2018:Défi raymon(1300)-bigkahuna(1299):0-1
06/05/2018:Défi pivoine78(1210)-fhr(1070):1-0
06/05/2018:Défi papillon22(1810)-princesse(999):1-0
06/05/2018:Gisèle 35 jyf(1860)-intrigue(1650):1-0
06/05/2018:pour le plaisir61 tartu(1690)-turbo(1490):1-0
06/05/2018:Gisèle 37 spectre(1760)-ascensseur(1600):1/2-1/2
06/05/2018:Memorial Lara XXXII tartu(1690)-tiounet(1650):1/2-1/2
06/05/2018:Francaise avec e5 tiounet(1630)-karkaskat(2100):0-1
06/05/2018:Francaise avec e5 karkaskat(2100)-spectre(1760):1-0
06/05/2018:Tournoi échelle division 3 gregmasten(1330)-gtx(1770):1-0
06/05/2018:Tournoi n°18107 selmoun(1480)-gregmasten(1330):0-1
06/05/2018:Tournoi n°18091 clemm(1680)-verson(1860):0-1
06/05/2018:Tournoi n°18080 bed2bed(1830)-legrillon(1690):1-0
06/05/2018:Tournoi n°18082 verson(1850)-fooy33(1890):1/2-1/2
06/05/2018:Eq:Les Quebecois-les grenades : thebigchief(2090)-mayaapof(1670):1-0
06/05/2018:Coupe Niveau 3 dragon(1910)-cereus69300(2030):0-1
06/05/2018:Coupe Niveau 4 retraite53(2110)-elghribi(2000):1-0
06/05/2018:Défi anumisme(1450)-aieto(979):1-0
06/05/2018:Défi roger72(1440)-bastien1(999):1-0
06/05/2018:Défi baloo(1560)-longjohn(1570):1-0
06/05/2018:Défi anumisme(1420)-bastien1(1250):0-1
06/05/2018:Défi anumisme(1400)-amarantus42(1009):1-0
06/05/2018:Défi anumisme(1440)-roidechecs(1190):1-0
06/05/2018:Défi gregmasten(1350)-anumisme(1440):1-0
06/05/2018:Défi roidechecs(1180)-bastien1(1240):0-1
06/05/2018:Avec des joueurs sympas 2 geantvert(1700)-spectre(1770):1-0
06/05/2018:Avec des joueurs sympas 2 legrillon(1670)-geantvert(1700):1-0
06/05/2018:albatros13 sylvainwb(1660)-connecticcut(1730):1/2-1/2
06/05/2018:albatros13 intrigue(1610)-sylvainwb(1660):1-0
06/05/2018:Tournoi n°18090 aramis(1730)-lucienb(1749):1-0
06/05/2018:Tournoi n°18038 desaintfegor(1800)-verson(1870):1/2-1/2
06/05/2018:Tournoi n°18131 verson(1800)-geantvert(1710):1-0
06/05/2018:Tournoi n°18071 cineyxp(2040)-scarfield(1810):1-0
06/05/2018:Tournoi n°18120 supertomate(1870)-verson(1820):1-0
06/05/2018:Coupe Niveau 2 papinou(1780)-verson(1850):0-1
06/05/2018:Défi bigkahuna(1669)-lecevenol(1380):1-0
06/05/2018:Défi den(1910)-david969(1870):0-1
06/05/2018:Défi ecjc(1980)-claudus(1680):1-0
06/05/2018:Défi voyageur14(1290)-bigkahuna(1299):0-1
06/05/2018:Défi verson(1820)-alena1(1810):1-0
06/05/2018:Gisèle 37 spectre(1760)-connecticcut(1770):0-1
06/05/2018:wild pgo(1670)-ascensseur(1600):1/2-1/2
06/05/2018:Le vieux Roi 10 roschecx(1590)-geantvert(1660):1-0
06/05/2018:Memorial Lara XXXII pgo(1660)-karkaskat(2100):0-1
06/05/2018:Tournoi échelle division 1 kartush(2070)-salut(1910):0-1
06/05/2018:Tournoi échelle élite uliczny(1940)-elghribi(2000):1-0
06/05/2018:Tournoi n°18101 leredoutable(1630)-verson(1870):1-0
06/05/2018:Tournoi n°18078 scarfield(1830)-seb(1940):0-1
06/05/2018:Tournoi n°18120 verson(1820)-scarfield(1770):1-0
06/05/2018:Tournoi n°18125 uliczny(1940)-verson(1820):0-1
06/05/2018:Eq:les modestes-Les Seigneurs de l Atlantide : mpatruyo(2340)-pgcd(2330):1-0
06/05/2018:Défi cortaz(1760)-luz(1700):1-0
06/05/2018:Défi calcedoine(1880)-neily(1510):1-0
06/05/2018:Défi spectre(1760)-fisher22(1799):0-1
06/05/2018:Défi algors(1730)-cortaz(1740):1-0
06/05/2018:Défi moi50(1800)-cowboyarthur(1870):0-1
06/05/2018:Défi roidechecs(1200)-uliczny(1940):0-1
06/05/2018:Défi bibisept(1840)-plecocq357(2250):0-1
06/05/2018:Défi roidechecs(1180)-bastien1(1230):0-1
06/05/2018:Et une Grunfeld une karkaskat(1980)-bricekiller(1530):1-0
06/05/2018:Et une Grunfeld une salut(2010)-bricekiller(1530):1-0
06/05/2018:Brice07 ascensseur(1620)-roschecx(1630):1/2-1/2
06/05/2018:Parties ouvertes e4 e5 crca(1830)-salut(1860):1-0
06/05/2018:Jeanmichelle leet(1780)-tiounet(1670):0-1
06/05/2018:coupe biquetoces vachefolle(2010)-bazart(2010):1/2-1/2
06/05/2018:Tournoi n°18037 geantvert(1680)-intrigue(1590):0-1
06/05/2018:Tournoi n°17913 willkommen54(2000)-paulinechess(1860):1-0
06/05/2018:Tournoi n°18019 legrillon(1680)-aramis(1750):0-1
06/05/2018:Tournoi n°18016 manulatus(1840)-patau(1800):1-0
06/05/2018:Tournoi n°18020 bidoche(1720)-patau(1780):0-1
06/05/2018:Eq:La Crim Team-Royal Kids : pournelle(2670)-tartu(1710):1-0
06/05/2018:Coupe Niveau 1 emmanuel69(1790)-patau(1800):1/2-1/2
06/05/2018:Défi christie(1370)-roidechecs(1290):0-1
06/05/2018:Défi retraite53(1809)-patau(1770):1-0
06/05/2018:Défi gonzok67(1670)-dan84(1440):1-0
06/05/2018:Défi jipepe(1760)-ecjc(1980):0-1
06/05/2018:Avec des joueurs sympas 2 geantvert(1700)-pgo(1690):1-0
06/05/2018:Le vieux Roi 9 bricekiller(1530)-legrillon(1700):0-1
06/05/2018:Gisèle 37 pgo(1660)-connecticcut(1770):0-1
06/05/2018:wild pgo(1670)-intrigue(1650):0-1
06/05/2018:Tournoi n°18099 manulatus(1890)-retraite53(2049):1-0
06/05/2018:Tournoi n°18028 gwada50(1350)-bubbly(1310):1-0
06/05/2018:Tournoi n°18072 panchoa(1510)-petrovich(1640):1-0
06/05/2018:Tournoi n°18082 fooy33(1890)-spectre(1780):0-1
06/05/2018:Tournoi n°18085 verson(1870)-onetwoyve(1730):0-1
06/05/2018:Tournoi n°18085 onetwoyve(1730)-patau(1750):1-0
06/05/2018:Tournoi n°18125 verson(1810)-zax(1990):0-1
06/05/2018:Eq:les grenades-La Crim Team : pgcbies(2810)-lechat(2860):1-0
06/05/2018:Eq:Les Gens du Sud-O fou d hello : ninaleo06(1820)-yab414(1600):1/2-1/2
06/05/2018:Eq:cotenstock-Les Corsaires de Lechiquier : scroff(2690)-lekaribou(2370):1-0
06/05/2018:Eq:Les Rebelles-Les Quebecois : skyfall(2020)-bezug66(1760):1/2-1/2
06/05/2018:Eq:Les Rebelles-Les Quebecois : bezug66(1760)-skyfall(2020):1/2-1/2
06/05/2018:Coupe Niveau 4 bournivergne(2240)-virus(1980):1-0
06/05/2018:Défi roquefort(1970)-feudevorant(1900):1-0
06/05/2018:Défi tropa(1460)-c69(1350):0-1
06/05/2018:Défi cathy17(1000)-pascalou50(1770):0-1
06/05/2018:Défi hberlioz(1710)-berthe(1820):0-1
06/05/2018:Défi chobi(1710)-fragol(1720):1-0
06/05/2018:Défi legrillon(1690)-hberlioz(1690):1-0
06/05/2018:Défi gaby1811(1179)-pasq60(1220):1-0
06/05/2018:Défi ramo(1770)-cortaz(1740):0-1
06/05/2018:Défi otrigo3(1760)-patau(1750):0-1
06/05/2018:honolulu yyyg(1670)-verson(1810):0-1
06/05/2018:Le vieux Roi 9 bricekiller(1530)-bertelsen(1580):0-1
06/05/2018:Nom d un chien tiounet(1620)-titit1(1280):1-0
06/05/2018:La Française qui avance bis bricekiller(1630)-tiounet(1680):0-1
06/05/2018:Brice07 roschecx(1630)-yyyg(1610):1-0
06/05/2018:Le vieux Roi 11 tiounet(1680)-bricekiller(1630):1-0
06/05/2018:Memorial Lara XXXII karkaskat(2100)-bertelsen(1650):1-0
06/05/2018:Avec des joueurs sympas 2 yyyg(1670)-tiounet(1620):1-0
06/05/2018:Memorial Lara XXXII karkaskat(2100)-pgo(1660):1-0
06/05/2018:Tournoi échelle division 1 bubblegum(1800)-pgo(1680):1-0
06/05/2018:Tournoi n°17710 geantvert(1530)-nef1(1450):0-1
06/05/2018:Tournoi n°17856 papinou(1780)-vulcain14(1610):1-0
06/05/2018:Tournoi n°18088 oliver5(1700)-epervier14(1500):0-1
06/05/2018:Eq:Les Seigneurs de l Atlantide-Les Corsaires de Lechiquier : chronik(2050)-april(2050):1/2-1/2
06/05/2018:Eq:Les Seigneurs de l Atlantide-cotenstock : bubblegum(1810)-djayphil(2160):0-1
06/05/2018:Défi gina(1410)-aigle12(1400):0-1
06/05/2018:Défi cocodou(1960)-bubblegum(1810):1-0
06/05/2018:Défi mohamed5501(1019)-oxteball(1340):0-1
06/05/2018:Défi poireau(1770)-arnaqueur(1809):0-1
06/05/2018:Défi bezug66(1770)-berjay(1710):1/2-1/2
06/05/2018:Défi alena1(1780)-tjspret(1720):0-1
06/05/2018:Défi fragol(1710)-berjay(1700):1-0
06/05/2018:Défi degun(1900)-fisher22(1799):1-0
07/05/2018:Défi guig47(2070)-feudevorant(1900):1-0
07/05/2018:Rapide ryba(1530)-bigkahuna(1599):0-1
07/05/2018:Rapide uliczny(1320)-foxie519(1380):1/2-1/2
07/05/2018:Rapide scarfield(1480)-gregmasten(1349):1-0
07/05/2018:Avec des joueurs sympas 2 yyyg(1670)-ascensseur(1590):1-0
07/05/2018:Memorial Lara XXXI ascensseur(1590)-casparuf(1490):0-1
07/05/2018:Tournoi échelle élite hilts(2130)-chronik(2180):0-1
07/05/2018:Tournoi échelle division 3 bigkahuna(1710)-gregmasten(1350):0-1
07/05/2018:Défi azur(1590)-cortaz(1750):0-1
07/05/2018:honolulu solianot(1749)-brettsinclair(1790):0-1
07/05/2018:honolulu brettsinclair(1790)-solianot(1749):1-0
07/05/2018:Mario et Luigi 47 mario46(1370)-nathalie(1369):1-0
07/05/2018:Tournoi n°17797 burgman(2100)-cobraxx10(2080):0-1
07/05/2018:Coupe Niveau 2 patau(1810)-yyyg(1620):1-0
07/05/2018:honolulu solianot(1749)-yyyg(1670):0-1
07/05/2018:Le vieux Roi 9 zozo(1630)-bricekiller(1530):1-0
07/05/2018:La Française qui avance bis bricekiller(1630)-yyyg(1580):0-1
07/05/2018:Le vieux Roi 11 bricekiller(1630)-zozo(1650):0-1
07/05/2018:Le vieux Roi 11 zozo(1650)-bricekiller(1630):1-0
07/05/2018:Tournoi n°17881 patau(1860)-arcadie(2040):0-1
07/05/2018:Tournoi n°17913 verson(1830)-paulinechess(1860):1-0
07/05/2018:Eq:cotenstock-Mission Impossible : mathieuw(2470)-karpov(2390):1/2-1/2
07/05/2018:honolulu solianot(1749)-verson(1810):0-1
07/05/2018:honolulu solianot(1749)-tiounet(1620):0-1
07/05/2018:honolulu tiounet(1620)-solianot(1749):1-0
07/05/2018:Tournoi n°17797 emmanuel(2000)-burgman(2100):0-1
07/05/2018:Tournoi n°18092 pierrejean(1460)-jlr(1490):1-0
07/05/2018:Coupe Niveau 2 patau(1800)-epervier14(1500):1-0
07/05/2018:Coupe Niveau 6 titeuf(2340)-levelmax(2800):0-1
07/05/2018:Coupe Niveau 1 verson(1810)-spectre(1820):1-0
07/05/2018:Défi cowboyarthur(1860)-sinople(1799):0-1
07/05/2018:Défi horseman(1840)-temistocles(1470):1-0
07/05/2018:Défi fisher(1620)-wenoketo(1580):0-1
07/05/2018:Défi bed2bed(1800)-patau(1790):1-0
07/05/2018:Défi patau(1770)-tiounet(1670):1-0
07/05/2018:Défi julie(1140)-temistocles(1410):0-1
07/05/2018:Défi zozo(1680)-tiounet(1570):1-0
07/05/2018:Avec des joueurs sympas 2 tiounet(1620)-spectre(1770):0-1
07/05/2018:Avec des joueurs sympas 2 pgo(1690)-ascensseur(1590):1-0
07/05/2018:honolulu solianot(1749)-spectre(1770):0-1
07/05/2018:honolulu verson(1810)-solianot(1749):1-0
07/05/2018:honolulu solianot(1749)-ascensseur(1590):0-1
07/05/2018:honolulu solianot(1749)-ptitefrez(2000):0-1
07/05/2018:Gisèle 37 turbo(1510)-spectre(1760):0-1
07/05/2018:Gisèle 37 ascensseur(1600)-connecticcut(1770):0-1
07/05/2018:wild ascensseur(1600)-salut(1910):0-1
07/05/2018:Parties ouvertes e4 e5 flmnh(1770)-salut(1860):1/2-1/2
07/05/2018:Francaise avec e5 ascensseur(1610)-tiounet(1630):1-0
07/05/2018:Open des ponts de mai ascensseur(1610)-tiounet(1570):1/2-1/2
07/05/2018:Open des ponts de mai ascensseur(1610)-pgo(1670):0-1
07/05/2018:Tournoi échelle division 3 jlr(1490)-alena1(1780):0-1
07/05/2018:Tournoi échelle division 1 domenico(1800)-patau(1800):1-0
07/05/2018:Tournoi n°17913 paulinechess(1860)-chomi64(2000):0-1
07/05/2018:Tournoi n°18020 pgo(1680)-patau(1780):0-1
07/05/2018:Tournoi n°18054 tjspret(1740)-bubblegum(1810):1-0
07/05/2018:Tournoi n°18084 cicerond(1410)-jlr(1490):0-1
07/05/2018:Coupe Niveau 7 blitzman(2680)-levelmax(2800):1-0
07/05/2018:Coupe Niveau 1 verson(1850)-patau(1770):1-0
07/05/2018:Coupe Niveau 2 patau(1760)-elghribi(1970):0-1
07/05/2018:Défi yatman(2070)-titit1(1220):1-0
07/05/2018:Défi kaspy(1990)-feudevorant(1900):1-0
07/05/2018:Défi majo57(939)-luciens(1300):0-1
07/05/2018:Défi patau(1770)-pgo(1660):1/2-1/2
07/05/2018:Défi zayka(1880)-kaspy(1950):1/2-1/2
07/05/2018:Défi campa(1760)-cocodou(1950):0-1
07/05/2018:Défi patau(1810)-mvagusta(1670):1-0
07/05/2018:Défi azur(1630)-vincentcoste(1660):1-0
07/05/2018:Défi patau(1750)-jajaf1959(1930):0-1
07/05/2018:Défi patau(1760)-verone(2010):0-1
07/05/2018:Défi fragol(1710)-asvel69(1740):1-0
07/05/2018:honolulu spectre(1770)-solianot(1749):1-0
07/05/2018:Et une Grunfeld une crca(1850)-bricekiller(1530):1-0
07/05/2018:Et une Grunfeld une crca(1850)-salut(2010):1-0
07/05/2018:Memorial Lara XXXII bertelsen(1650)-ascensseur(1590):1-0
07/05/2018:Memorial Lara XXXII ascensseur(1590)-bertelsen(1650):1-0
07/05/2018:Memorial Lara XXXII bertelsen(1650)-zozo(1620):1-0
07/05/2018:Memorial Lara XXXII zozo(1620)-bertelsen(1650):0-1
07/05/2018:Memorial Lara XXXII zozo(1620)-ascensseur(1590):1/2-1/2
07/05/2018:Tournoi n°18106 katastrofic(1460)-jlr(1520):0-1
07/05/2018:Tournoi n°18092 katastrofic(1470)-jlr(1490):0-1
07/05/2018:Tournoi n°18096 lucienb(1749)-upsalin(1880):0-1
07/05/2018:Tournoi n°18051 gari(1960)-fly(1990):0-1
07/05/2018:Tournoi n°18065 jlr(1510)-bigkahuna(1299):0-1
07/05/2018:Tournoi n°18122 intrigue(1660)-uji40(1580):0-1
07/05/2018:Eq:Les Quebecois-O fou d hello : junior1966(1340)-roschecx(1600):0-1
07/05/2018:Coupe Niveau 3 abc47(2040)-senegaulois(1930):1-0
07/05/2018:Défi malvina(1250)-maximax(1330):0-1
07/05/2018:Défi plaisance(1930)-moi50(1780):1-0
07/05/2018:Défi azur(1650)-gilberthellemans(1570):1-0
07/05/2018:Défi zatopek(1580)-wenoketo(1580):1-0
07/05/2018:honolulu ptitefrez(2000)-solianot(1749):1-0
07/05/2018:honolulu solianot(1749)-fly(2010):0-1
07/05/2018:honolulu fly(2010)-solianot(1749):1-0
07/05/2018:La Française qui avance bis tartu(1700)-flmnh(1750):0-1
07/05/2018:Mario et Luigi 47 nathalie(1369)-mathador93(1450):0-1
07/05/2018:wild tiounet(1600)-intrigue(1650):1-0
07/05/2018:Tournoi n°18027 gtx(1790)-patau(1780):1-0
07/05/2018:Tournoi n°18064 mandrak(1630)-spectre(1780):0-1
07/05/2018:Tournoi n°18064 mandrak(1630)-verson(1820):0-1
07/05/2018:Tournoi n°17987 ditmir(999)-beru(1380):0-1
07/05/2018:Coupe Niveau 2 elghribi(1990)-verson(1840):1-0
07/05/2018:Défi anumisme(1420)-cathy17(1020):1-0
07/05/2018:Défi pierrejean(1460)-lacrampe(1499):1-0
07/05/2018:Défi pitchoune50(1200)-pascalou50(1790):0-1
07/05/2018:Défi koi34(1840)-patau(1790):1-0
07/05/2018:Défi anumisme(1420)-raymar(1530):0-1
07/05/2018:Défi retikan(1809)-regor(2010):0-1
07/05/2018:Défi pitchoune50(1210)-anumisme(1450):0-1
07/05/2018:Memorial Lara XXXII bertelsen(1650)-karkaskat(2100):0-1
07/05/2018:Memorial Lara XXXII tiounet(1650)-tartu(1690):1-0
07/05/2018:Memorial Lara XXXII zozo(1620)-bigkahuna(1299):0-1
07/05/2018:Francaise avec e5 dpcarballo(1859)-spectre(1760):1-0
07/05/2018:Tournoi échelle champions elghribi(2030)-mistralgagnant(1960):0-1
07/05/2018:Tournoi échelle champions karkaskat(2110)-verson(1820):0-1
07/05/2018:Tournoi n°18072 katastrofic(1490)-maldorox(1500):1-0
07/05/2018:Tournoi n°17982 leredoutable(1660)-ycar(1700):1-0
07/05/2018:Tournoi n°18090 upsalin(1890)-lucienb(1749):1-0
07/05/2018:Tournoi n°18066 nodilo(2050)-u27940(1990):1-0
07/05/2018:Tournoi n°17927 jmjustice(1570)-katastrofic(1540):1-0
07/05/2018:Tournoi n°17983 patau(1790)-darkchossete(1840):1-0
07/05/2018:Tournoi n°18022 rvsinovitch(2050)-gulliver(2010):0-1
07/05/2018:Tournoi n°18106 jlr(1510)-c69(1390):1-0
07/05/2018:Tournoi n°18120 supertomate(1850)-ghostdog(1620):1-0
07/05/2018:Tournoi n°18120 ghostdog(1620)-verson(1820):0-1
07/05/2018:Coupe Niveau 2 retraite53(2099)-patau(1770):1/2-1/2
07/05/2018:Coupe Niveau 2 sylvainwb(1720)-tiounet(1560):0-1
07/05/2018:Défi zozo(1680)-tiounet(1600):1-0
07/05/2018:Défi anumisme(1370)-sergesee(1259):0-1
07/05/2018:Défi vulcain14(1610)-xercott(1660):0-1
07/05/2018:Défi alena1(1740)-loco11(1930):1-0
07/05/2018:Défi morloch(1940)-chedru2000(2180):1/2-1/2
07/05/2018:Défi roidechecs(1240)-anumisme(1420):0-1
07/05/2018:Défi raymar(1550)-temistocles(1450):1/2-1/2
07/05/2018:Défi guillaumefi(1669)-zozo(1620):1-0
07/05/2018:Défi turbo(1520)-katastrofic(1460):1-0
07/05/2018:Et une Grunfeld une intrigue(1650)-crca(1850):1/2-1/2
07/05/2018:Parties ouvertes e4 e5 tiounet(1680)-crca(1830):0-1
07/05/2018:Le vieux Roi 11 roschecx(1630)-zozo(1650):1-0
07/05/2018:les pirates interne eltche(2450)-gonca90(2260):1-0
07/05/2018:Open des ponts de mai tiounet(1570)-pgo(1670):1-0
07/05/2018:Tournoi échelle division 3 jlr(1500)-bastien1(1260):0-1
07/05/2018:Tournoi n°18060 jlr(1490)-katastrofic(1480):1-0
07/05/2018:Tournoi n°18053 geantvert(1670)-tartu(1690):1-0
07/05/2018:Tournoi n°18085 simer(1700)-legrillon(1710):0-1
07/05/2018:Eq:Pirates du Mat-Les Seigneurs de l Atlantide : eltche(2470)-chronik(2170):1-0
07/05/2018:Défi pasq60(1170)-julie(1140):1-0
07/05/2018:Défi alphatauri(1510)-tongiukep(1700):0-1
07/05/2018:Défi lopocompris(1359)-anumisme(1430):1-0
07/05/2018:Défi defre(1980)-jpjay(1770):1-0
07/05/2018:Défi clafouti(1809)-moi50(1810):0-1
07/05/2018:Défi roidechecs(1170)-bastien1(1260):1-0
07/05/2018:Défi roidechecs(1170)-bastien1(1260):1-0
07/05/2018:Défi zozo(1670)-alpinfresh(1609):0-1
07/05/2018:Défi tbeau44(1690)-karclop(1660):0-1
07/05/2018:Défi jconetti(1710)-simer(1700):0-1
07/05/2018:Défi bastien1(1250)-roidechecs(1180):0-1
07/05/2018:Défi gemme11(1399)-aigle12(1420):1-0
07/05/2018:Gisèle 37 connecticcut(1770)-spectre(1760):1/2-1/2
07/05/2018:Gisèle 37 karkaskat(2100)-legrillon(1680):1-0
07/05/2018:Le vieux Roi 10 challenger2015(1550)-tartu(1680):0-1
07/05/2018:portes ouvertes en Espagnol spectre(1770)-salut(1880):1-0
07/05/2018:Tournoi échelle division 3 bastien1(1220)-julie(999):1-0
07/05/2018:Tournoi n°18091 clemm(1680)-supertomate(1599):1/2-1/2
07/05/2018:Tournoi n°18126 simer(1730)-verson(1810):1-0
07/05/2018:Eq:Pirates du Mat-LA CITE ARDENTE : volatile(2500)-osteo(2460):0-1
07/05/2018:Eq:Mission Impossible-Pirates du Mat : nathan(2920)-volatile(2510):1-0
07/05/2018:Eq:Pirates du Mat-Les Gens du Sud : ryba(1950)-alizarine(2360):0-1
07/05/2018:Coupe Niveau 2 gilcello(1570)-spectre(1780):0-1
07/05/2018:Défi baudoin(1970)-aristote62(2220):0-1
07/05/2018:Défi malvina(1260)-zachilan(1330):1-0
07/05/2018:Défi pascalou50(1780)-jimi50(1870):0-1
07/05/2018:Défi pascalou50(1790)-pitchoune50(1200):1-0
07/05/2018:Défi ziviol(1470)-fragol(1720):0-1
07/05/2018:honolulu ascensseur(1590)-solianot(1749):1-0
07/05/2018:les pirates interne blutch70(2260)-volatile(2510):0-1
07/05/2018:Memorial Lara XXXII tiounet(1650)-ascensseur(1590):1/2-1/2
07/05/2018:Memorial Lara XXXII tartu(1690)-ascensseur(1590):1-0
07/05/2018:Francaise avec e5 spectre(1760)-ascensseur(1610):1-0
07/05/2018:Tournoi n°18022 rvsinovitch(2050)-scarfield(1830):1-0
07/05/2018:Tournoi n°18093 panchoa(1520)-wenoketo(1580):0-1
07/05/2018:Tournoi n°18102 wenoketo(1580)-panchoa(1520):1-0
07/05/2018:Tournoi n°18083 legrillon(1690)-magyar(1530):1-0
07/05/2018:Tournoi n°18136 ghostdog(1620)-simer(1710):0-1
07/05/2018:Défi pasq60(1200)-anumisme(1450):0-1
07/05/2018:Défi cortaz(1760)-wenoketo(1580):1-0
07/05/2018:Défi wenoketo(1580)-gilberthellemans(1590):1-0
07/05/2018:Défi roquefort(1970)-zayka(1870):1-0
07/05/2018:Défi chobi(1720)-berjay(1710):1-0
07/05/2018:Défi anumisme(1410)-nanaluce(1090):1-0
07/05/2018:Défi tootsienet(1010)-anumisme(1420):0-1
07/05/2018:Défi gilberthellemans(1580)-fisher(1620):0-1
07/05/2018:Gisèle 37 ascensseur(1600)-tiounet(1640):1-0
07/05/2018:wild ascensseur(1600)-tiounet(1600):0-1
07/05/2018:wild karkaskat(2100)-tiounet(1600):0-1
07/05/2018:Memorial Lara XXXII zozo(1620)-karkaskat(2100):1-0
07/05/2018:Memorial Lara XXXII ascensseur(1590)-tiounet(1650):0-1
07/05/2018:Memorial Lara XXXII pgo(1660)-ascensseur(1590):1/2-1/2
07/05/2018:Tournoi échelle champions papinou(1770)-elghribi(1990):0-1
08/05/2018:Défi matlepuma(999)-anumisme(1430):0-1
08/05/2018:Défi tootsienet(1000)-anumisme(1370):0-1
08/05/2018:Défi nanaluce(1090)-anumisme(1420):0-1
08/05/2018:Défi tootsienet(1020)-anumisme(1450):0-1
08/05/2018:Rapide scarfield(1460)-biquet(1650):1-0
08/05/2018:Gisèle 37 pgo(1660)-ascensseur(1600):1-0
08/05/2018:Coupe Niveau 3 bubblegum(1820)-bricekiller(1630):1-0
08/05/2018:Tournoi n°18113 bastien1(1210)-julie(1140):1-0
08/05/2018:Tournoi n°18111 leredoutable(1620)-scarfield(1780):1-0
08/05/2018:Tournoi n°17913 paulinechess(1860)-nico(1920):0-1
08/05/2018:Défi vvvv(1630)-zozo(1670):1-0
08/05/2018:Tournoi n°18000 marco(1600)-gonzok67(1680):0-1
08/05/2018:Eq:Les Corsaires de Lechiquier-London : paulinechess(1840)-z1000(2650):0-1
08/05/2018:Eq:CHESS MASTER-Les diplomates : zayka(1890)-bibisept(1850):0-1
08/05/2018:Défi pasq60(1240)-mdc(1720):0-1
08/05/2018:Défi zayka(1880)-bibisept(1850):1/2-1/2
08/05/2018:Défi ziviol(1490)-adrienne(1269):1-0
08/05/2018:Défi vb83(1410)-yyyg(1580):0-1
08/05/2018:Défi fabio985(1830)-fisher(1620):1-0
08/05/2018:Saint-Valentin 2018 n°1 lool(2570)-z1000(2710):0-1
08/05/2018:Gisèle 37 ascensseur(1600)-pgo(1660):1-0
08/05/2018:Francaise avec e5 ascensseur(1610)-flmnh(1720):0-1
08/05/2018:Tournoi n°18092 jlr(1490)-gwada50(1280):0-1
08/05/2018:Tournoi n°18139 verson(1840)-kala(1920):1-0
08/05/2018:Tournoi n°18084 nathalie(1380)-katastrofic(1490):0-1
08/05/2018:Eq:Les Gens du Sud-Les Seigneurs de l Atlantide : chronik(2110)-emmanuel(1930):1-0
08/05/2018:Eq:Danielsen City-Les Corsaires de Lechiquier : xao(1490)-april(2090):1/2-1/2
08/05/2018:Défi anumisme(1370)-titit1(1270):1-0
08/05/2018:Défi nathalie(999)-deric(1550):0-1
08/05/2018:Défi titit1(1300)-nathalie(999):1-0
08/05/2018:Défi chevalice(1680)-redqueen(1610):0-1
08/05/2018:Défi epervier14(1520)-gina(1400):0-1
08/05/2018:Défi ramo(1790)-bilitis(1790):0-1
08/05/2018:Défi darkchossete(1850)-fragol(1710):1/2-1/2
08/05/2018:Les cloches ptitefrez(2040)-tartu(1680):1-0
08/05/2018:Jeanmichelle bubblegum(1810)-mathador93(1440):1-0
08/05/2018:Tournoi échelle division 3 blitzman(2690)-alena1(1780):1-0
08/05/2018:Tournoi n°17987 beru(1330)-selmoun(1460):1-0
08/05/2018:Tournoi n°18117 verson(1820)-jipepe(1710):1/2-1/2
08/05/2018:Tournoi n°18128 dragon(1890)-verson(1800):1-0
08/05/2018:Coupe Niveau 1 elghribi(1970)-jlr(1510):1-0
08/05/2018:Défi pitchoune50(1200)-pascalou50(1790):0-1
08/05/2018:Défi schnibble(2390)-moi50(1810):1-0
08/05/2018:Défi pj612(1840)-trueman(1860):0-1
08/05/2018:Défi gregmasten(1309)-bigoudi(1000):1-0
08/05/2018:Défi moi50(1780)-kaspy(1970):0-1
08/05/2018:Défi bed2bed(1840)-roidechecs(1180):1-0
08/05/2018:Défi doudou(1670)-gilberthellemans(1610):0-1
08/05/2018:Défi cortaz(1740)-gilmade(1610):1-0
08/05/2018:Défi campa(1770)-degun(1900):1-0
08/05/2018:Gambit dame intrigue(1600)-bubblegum(1810):0-1
08/05/2018:Gisèle 37 tiounet(1640)-karkaskat(2100):0-1
08/05/2018:Le vieux Roi 10 bonheurinterdit(1509)-geantvert(1660):1-0
08/05/2018:Jeanmichelle tiounet(1670)-ponyboy(1450):0-1
08/05/2018:Francaise Tarrasch fermee bubblegum(1810)-tiounet(1670):1-0
08/05/2018:Tournoi n°17599 berniz(2190)-ravanh(2210):1-0
08/05/2018:Tournoi n°18139 verson(1840)-thierry7ardeche(1970):0-1
08/05/2018:Tournoi n°18049 jmjustice(1580)-coyotov(1560):1-0
08/05/2018:Tournoi n°18053 tartu(1680)-legrillon(1700):0-1
08/05/2018:Tournoi n°18072 katastrofic(1480)-kaiser69(1650):0-1
08/05/2018:Tournoi n°18113 julie(1140)-fenixor(999):0-1
08/05/2018:Tournoi n°18131 verson(1800)-bed2bed(1840):0-1
08/05/2018:Gisèle 35 karkaskat(1960)-jyf(1860):0-1
08/05/2018:honolulu ptitefrez(2000)-spectre(1770):1-0
08/05/2018:wild intrigue(1650)-tiounet(1600):1-0
08/05/2018:Le vieux Roi 11 roschecx(1630)-tiounet(1680):1-0
08/05/2018:Gisèle 37 pgo(1660)-legrillon(1680):0-1
08/05/2018:Tournoi échelle division 1 pgo(1670)-daniel1(1730):0-1
08/05/2018:Tournoi n°18101 supertomate(1770)-brettsinclair(1820):1-0
08/05/2018:Tournoi n°17996 bastien1(999)-tranquillou66(1159):1-0
08/05/2018:Tournoi n°18097 epervier14(1500)-miramar(1510):1-0
08/05/2018:Tournoi n°18078 seb(1940)-moris54(1960):0-1
08/05/2018:Eq:Les Corsaires de Lechiquier-cotenstock : mathieuw(2430)-apollon(2760):1/2-1/2
08/05/2018:Eq:Les Gens du Sud-les chics capons : emmanuel(2000)-chessgaston(2090):0-1
08/05/2018:Eq:Royal Kids-Vikings : doudou(1630)-pgo(1670):1-0
08/05/2018:Coupe Niveau 1 bastien1(1260)-verson(1810):0-1
08/05/2018:Défi maya24(1580)-pionfou(1780):0-1
08/05/2018:Défi neddy(1010)-grognasse(1270):0-1
08/05/2018:Défi patrick(1570)-wenoketo(1550):0-1
08/05/2018:Défi roger72(1460)-nathalie(999):1-0
08/05/2018:Défi anumisme(1350)-wegaman(1770):0-1
08/05/2018:Défi mysport(1669)-doudou(1640):1-0
08/05/2018:Pour le plaisir 65 lecevenol(1390)-pgo(1650):0-1
08/05/2018:Helleborus argutifolius crca(1860)-emmanuel(1930):1-0
08/05/2018:Les cloches pgo(1680)-crca(1830):0-1
08/05/2018:Tournoi échelle division 3 supertomate(1850)-gregmasten(1379):1-0
08/05/2018:Tournoi n°17809 magyar(1520)-linselleschti(1560):1-0
08/05/2018:Tournoi n°18103 manulatus(1890)-percy62(2090):1-0
08/05/2018:Tournoi n°17857 vulcain14(1610)-ragg(1570):1-0
08/05/2018:Tournoi n°18070 patau(1770)-legrillon(1690):0-1
08/05/2018:Tournoi n°18065 bigkahuna(1299)-cicerond(1420):1-0
08/05/2018:Coupe Niveau 1 verson(1810)-gregmasten(1350):1-0
08/05/2018:Défi bylka(1660)-patau(1820):1-0
08/05/2018:Défi ryba(1980)-tunellavage(1750):1-0
08/05/2018:Défi wenoketo(1580)-jmr(1550):1-0
08/05/2018:Défi wenoketo(1550)-jmjustice(1570):1-0
08/05/2018:Défi patau(1780)-geantvert(1670):1/2-1/2
08/05/2018:Défi pascalou50(1790)-verson(1820):1-0
08/05/2018:Défi roquefort(1950)-lychar(1750):1-0
08/05/2018:Défi alena1(1770)-dpcarballo(1859):0-1
08/05/2018:Défi bastien1(1250)-anumisme(1420):1-0
08/05/2018:Gisèle 35 intrigue(1650)-jyf(1860):0-1
08/05/2018:Avec des joueurs sympas 2 legrillon(1670)-pgo(1690):1-0
08/05/2018:portes ouvertes en Espagnol tiounet(1600)-salut(1880):0-1
08/05/2018:Tournoi échelle division 3 bastien1(1330)-annakhine(1950):0-1
08/05/2018:Tournoi échelle division 1 patau(1800)-verson(1830):1/2-1/2
08/05/2018:Tournoi n°18093 panchoa(1510)-coyotov(1580):0-1
08/05/2018:Tournoi n°18068 gilcello(1570)-surcouf(1680):1-0
08/05/2018:Coupe Niveau 5 lool(2239)-grouik(2290):1-0
08/05/2018:Défi fisher(1610)-sergio69(1490):1-0
08/05/2018:Défi tichaton(1460)-hugues(1540):0-1
08/05/2018:Défi matlepuma(999)-crokodeal(1370):0-1
08/05/2018:Défi ziviol(1490)-xao(1500):0-1
08/05/2018:Défi encore1fois(1980)-moi50(1800):1-0
08/05/2018:Défi wenoketo(1580)-epervier14(1510):1-0
08/05/2018:Défi biquet(1850)-alena1(1810):0-1
08/05/2018:Défi fragol(1730)-fazer(1820):1-0
08/05/2018:Noël 2017 n°1 yab414(1600)-harrypotter(1730):1-0
08/05/2018:wild tiounet(1600)-karkaskat(2100):1/2-1/2
08/05/2018:Parties ouvertes e4 e5 crca(1830)-ascensseur(1620):1-0
08/05/2018:honolulu brettsinclair(1790)-tiounet(1620):1-0
09/05/2018:Tournoi n°18066 nodilo(2050)-nicodemouscron(2170):1-0
09/05/2018:Tournoi n°17979 holyhour(1600)-ghostdog(1650):1/2-1/2
09/05/2018:Tournoi n°17810 lamagouille(1640)-jyf(1860):0-1
09/05/2018:Tournoi n°18074 brettsinclair(1840)-arno(1660):1-0
09/05/2018:Tournoi n°18032 nathalie(1360)-julie(999):0-1
09/05/2018:Tournoi n°18113 gregomasten(999)-julie(1140):1-0
09/05/2018:Tournoi n°18113 julie(1140)-lantana(1300):0-1
09/05/2018:Défi marieange88(1480)-mick(1950):0-1
09/05/2018:Défi holyhour(1610)-crokodeal(1360):1-0
09/05/2018:Défi matlepuma(999)-holyhour(1640):0-1
09/05/2018:Défi laurent69001(1280)-bigkahuna(1669):0-1
09/05/2018:Défi marieange88(1480)-minon(2050):0-1
09/05/2018:Défi anumisme(1410)-gina(1390):1-0
09/05/2018:Défi achille85(1990)-morloch(1890):1-0
09/05/2018:Défi tichaton(1470)-minon(2060):0-1
09/05/2018:Rapide lool(1829)-djayphil(1640):1-0
09/05/2018:la folie des grandeurs bubblegum(1800)-saruman(1690):0-1
09/05/2018:Jeanmichelle fly(2010)-leet(1780):0-1
09/05/2018:Tournoi échelle division 3 yann56(1770)-clafouti(1809):0-1
09/05/2018:Tournoi échelle division 3 clafouti(2019)-brettsinclair(1840):1-0
09/05/2018:Nom d un chien titit1(1280)-mathador93(1500):0-1
09/05/2018:Alekhine c ma copine mathador93(1490)-titit1(1270):1-0
09/05/2018:Eq:Royal Kids-Vikings : skalfa(1730)-ratzi(2090):0-1
09/05/2018:Jeanmichelle ponyboy(1450)-bubblegum(1810):1-0
09/05/2018:Tournoi n°18075 zozo(1620)-gaspard83(1530):0-1
09/05/2018:Tournoi n°18034 hachevitch(2470)-breitenbach(2340):1-0
09/05/2018:Défi bnj(1860)-chaton(999):0-1
09/05/2018:Gisèle 37 legrillon(1680)-tiounet(1640):1-0
09/05/2018:honolulu yyyg(1670)-solianot(1749):1-0
09/05/2018:Open des ponts de mai alizarine(2390)-tiounet(1570):1-0
09/05/2018:Tournoi n°18074 verson(1830)-pitouwb(1720):0-1
09/05/2018:Tournoi n°18117 verson(1810)-arno(1670):1-0
09/05/2018:Tournoi n°18079 patau(1810)-kala(1920):1-0
09/05/2018:Eq:Les Corsaires de Lechiquier-O fou d hello : unsingeenhiver(2500)-yab414(1560):1-0
09/05/2018:Coupe Niveau 2 patau(1770)-legros(1730):1/2-1/2
09/05/2018:Coupe Niveau 1 patau(1760)-verson(1850):1-0
09/05/2018:Défi pheno(1710)-wenoketo(1570):1-0
09/05/2018:Défi jmjustice(1570)-gilberthellemans(1620):0-1
09/05/2018:Défi lecouz(1620)-mdc(1780):0-1
09/05/2018:Défi ascensseur(1640)-patau(1810):0-1
09/05/2018:Défi nanaluce(1040)-anumisme(1370):1/2-1/2
09/05/2018:Défi lilou(1450)-tongiukep(1740):0-1
09/05/2018:Défi wenoketo(1580)-azur(1610):1-0
09/05/2018:Défi beru(1330)-kerenor(1590):0-1
09/05/2018:Défi bertelsen(1610)-hberlioz(1680):1-0
09/05/2018:Memorial Lara XXXI skalfa(1780)-casparuf(1490):0-1
09/05/2018:Les cloches zorglub42(1930)-ascensseur(1630):1-0
09/05/2018:Les cloches zorglub42(1930)-tartu(1680):1-0
09/05/2018:Gisèle 37 turbo(1510)-pgo(1660):0-1
09/05/2018:honolulu ptitefrez(2000)-ascensseur(1590):1-0
09/05/2018:Tournoi n°17860 challenger2015(1530)-gaspard83(1550):0-1
09/05/2018:Tournoi n°18074 patau(1750)-pitouwb(1710):1-0
09/05/2018:Tournoi n°18073 radar(1909)-oranmore(1950):1-0
09/05/2018:Tournoi n°18079 kala(1920)-darkchossete(1800):0-1
09/05/2018:Coupe Niveau 1 yatman(2040)-verson(1840):0-1
09/05/2018:Défi roger72(1440)-jmr(1570):0-1
09/05/2018:Défi ascensseur(1640)-patau(1810):1/2-1/2
09/05/2018:Défi herakles(2130)-bricekiller(1590):1-0
09/05/2018:Défi walnux(1880)-plaisance(1920):0-1
09/05/2018:Défi clafouti(1809)-dpcarballo(1810):1-0
09/05/2018:Défi raymon(1300)-malvina(1270):0-1
09/05/2018:Défi algors(1710)-albescab(1550):0-1
09/05/2018:Défi ascensseur(1560)-patau(1780):0-1
09/05/2018:Défi patau(1770)-virinc(2050):0-1
09/05/2018:Francaise Tarrasch fermee dpcarballo(1810)-mathador93(1440):1-0
09/05/2018:wild intrigue(1650)-ascensseur(1600):1/2-1/2
09/05/2018:honolulu ascensseur(1590)-ptitefrez(2000):0-1
09/05/2018:portes ouvertes en Espagnol spectre(1770)-ascensseur(1600):1-0
09/05/2018:portes ouvertes en Espagnol ascensseur(1600)-salut(1880):0-1
09/05/2018:Tournoi échelle division 1 sylvainwb(1670)-pionfou(1790):1-0
09/05/2018:Tournoi échelle division 1 tinenfant(1880)-domenico(1820):0-1
09/05/2018:Tournoi n°18137 patau(1800)-verson(1820):1-0
09/05/2018:Eq:Mission Impossible-Pirates du Mat : eltche(2450)-fabian67(2110):1-0
09/05/2018:Eq:LA CITE ARDENTE-Les Oiseaux d Amsterdam : halhor(2320)-rondoudou(2010):1-0
09/05/2018:Eq:LA CITE ARDENTE-Les Oiseaux d Amsterdam : rondoudou(2010)-halhor(2320):0-1
09/05/2018:Coupe Niveau 1 dragon(1890)-verson(1850):1/2-1/2
09/05/2018:Défi jm29(1510)-sergio69(1480):1-0
09/05/2018:Défi pionfou(1820)-patau(1800):0-1
09/05/2018:Défi cortaz(1740)-mayaapof(1710):1-0
09/05/2018:Défi capitaine(2060)-regor(2010):1-0
09/05/2018:Défi tetene(1740)-intrigue(1620):1-0
09/05/2018:Défi moi50(1800)-youliyouli(1800):0-1
09/05/2018:Défi patau(1750)-regor(2000):0-1
09/05/2018:Défi cortaz(1740)-fisher(1630):1-0
09/05/2018:Défi rambonov(1370)-anumisme(1460):0-1
09/05/2018:Défi raymon(1300)-jojodu35(1290):0-1
09/05/2018:Le vieux Roi 10 legrillon(1710)-challenger2015(1550):1-0
09/05/2018:honolulu tiounet(1620)-ptitefrez(2000):0-1
09/05/2018:Tournoi échelle division 1 domenico(1800)-spectre(1800):0-1
09/05/2018:Tournoi n°17730 mandrak(1660)-samchess(1620):0-1
09/05/2018:Tournoi n°18105 epervier14(1490)-joel(1450):1-0
09/05/2018:Tournoi n°18039 patau(1780)-tiounet(1700):1-0
09/05/2018:Tournoi n°17982 patau(1790)-leredoutable(1660):1-0
09/05/2018:Tournoi n°18058 simer(1710)-patau(1770):0-1
09/05/2018:Tournoi n°18055 bubblegum(1810)-silveur(1960):1-0
09/05/2018:Tournoi n°18072 maldorox(1500)-panchoa(1510):0-1
09/05/2018:Tournoi n°18072 petrovich(1640)-maldorox(1500):1-0
09/05/2018:Tournoi n°18065 mathildedn(1390)-kiki37(1360):1-0
09/05/2018:Tournoi n°18115 patau(1800)-uliczny(1940):1/2-1/2
09/05/2018:Eq:Les Seigneurs de l Atlantide-LES CHATTERBOX : pgcd(2310)-patau(1770):1-0
09/05/2018:Eq:Les Gens du Sud-Danielsen City : dragon(1890)-azerty1(2220):0-1
09/05/2018:Eq:Les Gens du Sud-Danielsen City : azerty1(2220)-dragon(1890):1-0
09/05/2018:Défi fly(1940)-griffedours(1910):0-1
09/05/2018:Défi garlik(1980)-lens37(2380):1/2-1/2
09/05/2018:Défi riothamus(1710)-bubblegum(1810):0-1
09/05/2018:Défi tartu(1680)-pourquoipas(1480):1-0
09/05/2018:Défi gilberthellemans(1610)-deric(1570):0-1
09/05/2018:Défi tomislav(1790)-pj612(1830):1-0
09/05/2018:Parties ouvertes e4 e5 fly(1990)-ascensseur(1620):1-0
09/05/2018:Gisèle 37 turbo(1510)-connecticcut(1770):0-1
09/05/2018:Open des ponts de mai alizarine(2390)-ascensseur(1610):1-0
09/05/2018:2200 2700 n°2 lool(2620)-jetjet91330(2190):1-0
09/05/2018:coupe biquetoces garlik(1980)-vachefolle(2010):0-1
09/05/2018:coupe biquetoces garlik(1980)-ascensseur(1620):0-1
09/05/2018:coupe biquetoces ascensseur(1620)-garlik(1980):1-0
09/05/2018:Tournoi échelle division 2 bezug66(1780)-pgo(1660):1-0
09/05/2018:Tournoi n°17953 burgman(2080)-jetjet91330(2150):1/2-1/2
09/05/2018:Tournoi n°18063 tartu(1690)-bylka(1700):0-1
09/05/2018:Tournoi n°18108 jlr(1510)-ffred(1510):1-0
09/05/2018:Eq:Royal Kids-Les Seigneurs de l Atlantide : tartu(1660)-nodilo(2070):0-1
09/05/2018:Eq:Royal Kids-Les Seigneurs de l Atlantide : nodilo(2070)-tartu(1660):1-0
09/05/2018:Eq:les grenades-Mission Impossible : pascalj24(2130)-ecjc(2030):1-0
09/05/2018:Défi joel(1440)-pierrejean(1450):0-1
09/05/2018:Défi turbo(1460)-vulcain14(1610):1/2-1/2
09/05/2018:Défi cortaz(1740)-pgo(1680):1-0
09/05/2018:Memoire a David Bowie numero 2 intrigue(1620)-zorglub42(1890):0-1
09/05/2018:Les cloches tartu(1680)-zorglub42(1930):0-1
09/05/2018:pour le plaisir61 petitlulu64(1620)-zozo(1670):0-1
09/05/2018:Pour le plaisir 65 tartu(1650)-pgo(1650):0-1
09/05/2018:Pour le plaisir 65 tartu(1650)-zozo(1660):0-1
09/05/2018:Tournoi n°18095 sergesee(1219)-chaton(999):1-0
09/05/2018:Tournoi n°17963 selmoun(1500)-qsdmlk(1590):0-1
09/05/2018:Tournoi n°18042 verson(1850)-mistralgagnant(1970):0-1
09/05/2018:Tournoi n°18038 mistralgagnant(1950)-verson(1870):1-0
09/05/2018:Tournoi n°18134 tartu(1670)-verson(1800):0-1
09/05/2018:Tournoi n°18125 verson(1820)-degun(1910):1-0
09/05/2018:Tournoi n°18127 jhz(1809)-verson(1830):0-1
09/05/2018:Tournoi n°18092 pierrejean(1460)-gwada50(1280):1-0
09/05/2018:Tournoi n°18123 c0d3(999)-bastien1(1230):1-0
09/05/2018:Eq:Les Quebecois-les grenades : pionfou(1780)-herakles(2070):0-1
09/05/2018:Eq:les chics capons-1pur : spectre(1800)-percy62(2100):0-1
09/05/2018:Coupe Niveau 1 clafouti(1809)-bubblegum(1810):1-0
09/05/2018:Défi patau(1850)-ephixe(1790):1-0
09/05/2018:Défi tbeau44(1660)-superman(1720):0-1
09/05/2018:Défi scroff(2710)-bournivergne(2250):1-0
09/05/2018:Défi nunnmiles(2520)-lens37(2390):1-0
09/05/2018:Défi regor(2010)-moi50(1850):1-0
09/05/2018:Défi wenoketo(1560)-zozo(1680):1-0
09/05/2018:Défi ephixe(1760)-jazzzz(1910):0-1
09/05/2018:Défi cowboyarthur(1900)-david969(1870):0-1
09/05/2018:Défi jpjay(1750)-cortaz(1760):1-0
09/05/2018:Défi zayka(1870)-trueman(1890):0-1
09/05/2018:Défi bournivergne(2250)-verone(2020):1-0
09/05/2018:Défi aramis(1730)-patau(1810):0-1
09/05/2018:Défi fisher(1620)-intrigue(1630):1-0
09/05/2018:Défi anumisme(1350)-michel(1200):0-1
09/05/2018:Défi koi34(1830)-temistocles(1420):1-0
09/05/2018:Défi lecevenol(1390)-temistocles(1410):0-1
09/05/2018:Défi simer(1700)-mayaapof(1700):1-0
09/05/2018:Défi rp36(1809)-anumisme(1460):1-0
09/05/2018:Défi pascalou50(1780)-hberlioz(1660):1-0
09/05/2018:Pour le plaisir 65 pgo(1650)-tartu(1650):0-1
09/05/2018:coupe biquetoces bazart(2010)-garlik(1980):0-1
09/05/2018:Tournoi échelle division 3 warriorette(1930)-bastien1(1439):1-0
09/05/2018:Tournoi échelle division 3 choderlos69(1320)-julie(1010):1-0
09/05/2018:Tournoi n°18136 simer(1710)-verson(1860):0-1
09/05/2018:Tournoi n°18087 loco11(1950)-verson(1840):0-1
09/05/2018:Tournoi n°18087 jazzzz(1960)-loco11(1950):1-0
09/05/2018:Tournoi n°18027 gtx(1790)-bubblegum(1810):0-1
09/05/2018:Eq:Danielsen City-O fou d hello : legrillon(1670)-e2e4(2080):0-1
09/05/2018:Coupe Niveau 2 tiounet(1680)-jlr(1490):1-0
09/05/2018:Défi jimi50(1890)-hberlioz(1640):1-0
09/05/2018:Défi anumisme(1430)-gina(1380):0-1
09/05/2018:Gisèle 37 legrillon(1680)-pgo(1660):1/2-1/2
09/05/2018:Gisèle 37 tiounet(1640)-legrillon(1680):1-0
09/05/2018:Gisèle 37 tiounet(1640)-turbo(1510):1-0
09/05/2018:Pour le plaisir 65 pgo(1650)-tiounet(1630):1-0
09/05/2018:Tournoi n°17978 lychar(1760)-leredoutable(1660):0-1
09/05/2018:Tournoi n°17939 roka(2430)-tobernor(2380):0-1
09/05/2018:Tournoi n°18117 papillon22(1820)-arno(1660):1-0
09/05/2018:Tournoi n°18086 arno(1630)-leredoutable(1620):0-1
09/05/2018:Tournoi n°18125 jhz(1809)-zax(1990):0-1
09/05/2018:Eq:Danielsen City-CHESS MASTER : bassdark(2050)-azerty1(2230):0-1
09/05/2018:Eq:O fou d hello-Les Oiseaux d Amsterdam : charlychess(1660)-yab414(1580):0-1
09/05/2018:Défi xao(1520)-fabio985(1830):0-1
09/05/2018:Défi jimi50(1870)-bubblegum(1810):1-0
09/05/2018:Défi gaspard83(1530)-tian(1320):1-0
09/05/2018:Défi yab414(1560)-cortaz(1730):0-1
09/05/2018:Défi zatopek(1560)-blackbishop(1850):0-1
09/05/2018:Défi morloch(1890)-roquefort(1960):1-0
09/05/2018:Défi cortaz(1750)-doudou(1630):1-0
09/05/2018:Défi regor(2010)-bassdark(2040):0-1
09/05/2018:Défi vulcain14(1580)-tichaton(1460):1-0
09/05/2018:Gisèle 35 jyf(1860)-karkaskat(1960):1-0
09/05/2018:Gambit dame bubblegum(1810)-salut(1860):0-1
10/05/2018:Tournoi n°18091 supertomate(1719)-leredoutable(1630):1-0
10/05/2018:Tournoi n°18007 pitouwb(1690)-papillon22(1800):1/2-1/2
10/05/2018:Coupe Niveau 1 spectre(1780)-dpcarballo(1859):0-1
10/05/2018:Défi lilou(1420)-anumisme(1370):1-0
10/05/2018:Défi ascensseur(1590)-tranquille(2230):0-1
10/05/2018:Défi fragol(1740)-fazer(1820):1-0
10/05/2018:Rapide kaspadesbrik(1570)-gtx(1399):1-0
10/05/2018:Rapide uliczny(1320)-scarfield(1480):0-1
10/05/2018:Rapide scarfield(1460)-ryba(1560):0-1
10/05/2018:Rapide foxie519(1400)-pherce(1800):0-1
10/05/2018:Open des ponts de mai gregmasten(1350)-ascensseur(1610):1-0
10/05/2018:Eq:Fair play-Les Quebecois : papillon22(1780)-zukchess(1640):1-0
10/05/2018:Eq:Les Rebelles-Les Quebecois : zukchess(1650)-kaspi007(2080):0-1
10/05/2018:Défi azur(1630)-roschecx(1640):1-0
10/05/2018:Saint-Valentin 2018 n°1 pournelle(2670)-z1000(2710):1/2-1/2
10/05/2018:Eq:Les Quebecois-O fou d hello : roschecx(1600)-junior1966(1340):1/2-1/2
10/05/2018:Tournoi n°17978 leredoutable(1660)-mage(1780):0-1
10/05/2018:Défi bastien1(1250)-lilith(1340):1-0
10/05/2018:Tournoi n°18055 ratzi(2040)-verson(1820):1-0
10/05/2018:Tournoi n°18095 bastien1(1210)-chaton(999):1-0
10/05/2018:Tournoi n°18095 chaton(999)-gregmasten(1449):0-1
10/05/2018:Tournoi n°17995 kiki24(1940)-clafouti(1809):0-1
10/05/2018:Eq:Les Gens du Sud-Danielsen City : azerty1(2230)-emmanuel(2010):1-0
10/05/2018:Coupe Niveau 2 silveur(1960)-radar(1909):0-1
10/05/2018:Coupe Niveau 1 verson(1800)-chaton(1000):1-0
10/05/2018:Coupe Niveau 1 chaton(1000)-elghribi(2000):0-1
10/05/2018:Coupe Niveau 1 fisher22(2159)-bigkahuna(1770):1-0
10/05/2018:Défi chaton(999)-tootsienet(1020):0-1
10/05/2018:Défi ohnopleyel(1480)-chaton(999):1-0
10/05/2018:Défi chaton(999)-roger72(1480):0-1
10/05/2018:Défi chaton(999)-den(1920):0-1
10/05/2018:Défi ascensseur(1610)-nathalie(999):1-0
10/05/2018:Défi chaton(999)-anumisme(1450):0-1
10/05/2018:Défi chaton(1149)-largo(999):0-1
10/05/2018:Défi chaton(1149)-largo(999):0-1
10/05/2018:Défi bastien1(1250)-rambonov(1380):1-0
10/05/2018:Défi gtx(1770)-chaton(1000):1-0
10/05/2018:Saint-Valentin 2018 n°1 yyyg(1670)-thomas(1660):1-0
10/05/2018:Boum sur la Noteboom flmnh(1760)-leet(1690):0-1
10/05/2018:Les cloches ptitefrez(2040)-pgo(1680):1-0
10/05/2018:Brice07 roschecx(1630)-lecevenol(1370):1-0
10/05/2018:Jeanmichelle bubblegum(1810)-tiounet(1670):1-0
10/05/2018:Francaise Tarrasch fermee tiounet(1670)-dpcarballo(1810):0-1
10/05/2018:honolulu ptitefrez(2000)-verson(1810):0-1
10/05/2018:honolulu verson(1810)-ptitefrez(2000):1-0
10/05/2018:portes ouvertes en Espagnol ascensseur(1600)-tiounet(1600):0-1
10/05/2018:portes ouvertes en Espagnol spectre(1770)-tiounet(1600):0-1
10/05/2018:Pour le plaisir 65 zozo(1660)-lecevenol(1390):1-0
10/05/2018:Pour le plaisir 65 pgo(1650)-zozo(1660):1-0
10/05/2018:Tournoi n°18041 bastien1(1320)-speedyfil(1490):0-1
10/05/2018:Tournoi n°18134 verson(1790)-sylvainwb(1720):1-0
10/05/2018:Tournoi n°18116 verson(1820)-jazzzz(1960):0-1
10/05/2018:Eq:Les Gens du Sud-LA CITE ARDENTE : harrypotter(1720)-maxhabran(1800):1/2-1/2
10/05/2018:Coupe Niveau 3 yatman(2000)-hilts(2140):0-1
10/05/2018:Défi tinenfant(1880)-pj612(1840):0-1
10/05/2018:Défi steflam(1410)-julie(1000):1-0
10/05/2018:Défi nathalie(999)-steflam(1410):0-1
10/05/2018:Défi flo19(1410)-jlouism(1530):0-1
10/05/2018:Défi jazzzz(1930)-holyhour(1580):1-0
10/05/2018:Défi burgman(2080)-pgcd(2310):0-1
10/05/2018:Défi zatopek(1560)-temistocles(1380):1-0
10/05/2018:Défi tartu(1700)-jhz(1809):0-1
10/05/2018:wild ascensseur(1600)-pgo(1670):0-1
10/05/2018:Tournoi n°18087 dragon(1870)-supertomate(1850):0-1
10/05/2018:Tournoi n°18020 verson(1860)-bidoche(1730):1/2-1/2
10/05/2018:Tournoi n°18024 bubblegum(1810)-tartu(1690):1-0
10/05/2018:Tournoi n°18043 wenoketo(1570)-doudou(1640):1-0
10/05/2018:Tournoi n°18076 dpcarballo(1810)-tiounet(1600):1-0
10/05/2018:Eq:Les Corsaires de Lechiquier-Les diplomates : levelmax(2810)-tatar(2760):0-1
10/05/2018:Eq:Danielsen City-Les Quebecois : xao(1490)-mayaapof(1710):0-1
10/05/2018:Eq:Danielsen City-cotenstock : jimi50(1880)-xao(1520):1-0
10/05/2018:Coupe Niveau 1 onetwoyve(1740)-fly(1880):0-1
10/05/2018:Coupe Niveau 2 cereus69300(2040)-senegaulois(1900):1-0
10/05/2018:Coupe Niveau 1 verson(1880)-bubblegum(1820):1-0
10/05/2018:Coupe Niveau 1 dpcarballo(1859)-bastien1(1290):1-0
10/05/2018:Coupe Niveau 1 bastien1(1230)-spectre(1790):0-1
10/05/2018:Défi mayaapof(1650)-fly(1960):0-1
10/05/2018:Défi rocketman(2020)-kaspy(1950):0-1
10/05/2018:Défi pgo(1660)-blueberry(1599):0-1
10/05/2018:Défi anumisme(1370)-christie(1370):1-0
10/05/2018:Défi gilberthellemans(1590)-marco(1610):0-1
10/05/2018:Défi gaby1811(1159)-anumisme(1400):0-1
10/05/2018:Défi nanaluce(1070)-anumisme(1330):0-1
10/05/2018:Défi malvina(1290)-lopocompris(1099):1-0
10/05/2018:Défi doudou(1640)-zozo(1630):1-0
10/05/2018:Défi alpinfresh(1809)-anumisme(1420):1-0
10/05/2018:Parties ouvertes e4 e5 bubblegum(1800)-ascensseur(1620):1-0
10/05/2018:Gambit dame jazzzz(1920)-bubblegum(1810):1-0
10/05/2018:Jeanmichelle tiounet(1670)-bubblegum(1810):1-0
10/05/2018:Memorial Lara XXXII ascensseur(1590)-tartu(1690):0-1
10/05/2018:wild tiounet(1600)-ascensseur(1600):1/2-1/2
10/05/2018:Gisèle 37 connecticcut(1770)-ascensseur(1600):0-1
10/05/2018:portes ouvertes en Espagnol ascensseur(1600)-spectre(1770):0-1
10/05/2018:Pour le plaisir 65 tartu(1650)-tiounet(1630):1/2-1/2
10/05/2018:Pour le plaisir 65 pgo(1650)-bastien1(1260):1-0
10/05/2018:Tournoi échelle division 1 jazzzz(1930)-spectre(1780):0-1
10/05/2018:Tournoi échelle division 2 tiounet(1580)-uji40(1580):1/2-1/2
10/05/2018:Tournoi n°17904 stephane300(1470)-geantvert(1650):0-1
10/05/2018:Tournoi n°18132 katastrofic(1450)-joel(1420):1-0
10/05/2018:Tournoi n°17952 aramis(1760)-clemm(1680):1-0
10/05/2018:Tournoi n°18101 leredoutable(1630)-supertomate(1719):0-1
10/05/2018:Tournoi n°18118 muk(1199)-c0d3(999):1-0
10/05/2018:Tournoi n°18120 leredoutable(1630)-supertomate(1850):0-1
10/05/2018:Tournoi n°18120 scarfield(1770)-supertomate(1870):1-0
10/05/2018:Tournoi n°18128 verson(1810)-jhz(1809):1-0
10/05/2018:Défi jpjay(1750)-jyf(1840):1-0
10/05/2018:Défi bouffon(1950)-arno(1700):1-0
10/05/2018:Défi anumisme(1370)-bastet(1050):1-0
10/05/2018:Défi uliczny(1940)-supertomate(1850):0-1
10/05/2018:Brice07 lecevenol(1370)-roschecx(1630):1-0
10/05/2018:coupe biquetoces garlik(1980)-biquet(1850):0-1
10/05/2018:coupe biquetoces biquet(1850)-garlik(1980):1-0
10/05/2018:Tournoi échelle champions verson(1820)-tinenfant(1880):0-1
10/05/2018:Tournoi échelle division 2 uji40(1590)-pgo(1640):0-1
10/05/2018:Tournoi n°18106 katastrofic(1460)-joel(1430):1-0
10/05/2018:Tournoi n°18087 loco11(1960)-dragon(1870):0-1
10/05/2018:Tournoi n°18100 geantvert(1690)-arno(1660):1-0
10/05/2018:Tournoi n°18143 supertomate(1890)-verson(1830):1-0
10/05/2018:Tournoi n°18099 verson(1860)-manulatus(1880):1-0
10/05/2018:Tournoi n°18025 clafouti(1809)-desaintfegor(1800):0-1
10/05/2018:Tournoi n°18131 jhz(1809)-verson(1800):0-1
10/05/2018:Tournoi n°18121 mayaapof(1700)-arno(1650):0-1
10/05/2018:Tournoi n°18147 verson(1860)-tiounet(1620):1-0
10/05/2018:Tournoi n°18104 coyotov(1610)-legrillon(1680):1-0
10/05/2018:Eq:Les Gens du Sud-les chics capons : lepich(1790)-emmanuel(1940):0-1
10/05/2018:Eq:Danielsen City-cotenstock : eanouis(2050)-djayphil(2140):0-1
10/05/2018:Eq:les chics capons-1pur : percy62(2100)-spectre(1800):1-0
10/05/2018:Coupe Niveau 2 verson(1840)-elghribi(1990):1-0
10/05/2018:Défi jyf(1840)-cortaz(1720):0-1
10/05/2018:Défi asvel69(1730)-fragol(1730):1-0
10/05/2018:Défi jhz(1519)-anumisme(1420):1-0
10/05/2018:Défi julie(1140)-aigle12(1420):0-1
10/05/2018:Défi anumisme(1430)-adrienne(1170):1-0
10/05/2018:Défi anumisme(1430)-largo(999):1-0
10/05/2018:Défi lantana(1280)-anumisme(1460):1/2-1/2
10/05/2018:Défi anumisme(1440)-pasq60(1190):1-0
10/05/2018:Printemps 2018 n°1 marco(1600)-spectre(1780):0-1
10/05/2018:Open des ponts de mai tiounet(1570)-uliczny(1940):1-0
10/05/2018:Tournoi n°18106 c69(1390)-katastrofic(1460):0-1
10/05/2018:Tournoi n°18141 verson(1860)-gulliver(2070):0-1
10/05/2018:Tournoi n°18136 verson(1860)-nassim(1799):1/2-1/2
10/05/2018:Tournoi n°17797 chrislee76(2030)-johan1977(2120):1-0
10/05/2018:Tournoi n°17768 jyf(1820)-pahlo111(1750):0-1
10/05/2018:Tournoi n°18087 verson(1850)-jazzzz(1950):1-0
10/05/2018:Tournoi n°17948 simer(1700)-superlolo83(1730):0-1
10/05/2018:Tournoi n°17981 jlr(1430)-magyar(1500):1-0
10/05/2018:Tournoi n°18022 bubblegum(1800)-scarfield(1830):0-1
10/05/2018:Tournoi n°18068 magyar(1530)-gilcello(1570):0-1
10/05/2018:Tournoi n°18083 oliver5(1670)-magyar(1530):1-0
10/05/2018:Tournoi n°18130 verson(1800)-jhz(1519):0-1
10/05/2018:Tournoi n°18140 arno(1630)-verson(1830):1-0
10/05/2018:Défi guillaumefi(1709)-doudou(1630):0-1
10/05/2018:Défi atestamora(1570)-muk(1199):0-1
10/05/2018:Défi guillaumefi(1830)-pj612(1830):1/2-1/2
10/05/2018:Défi boxit(1840)-bubblegum(1810):1-0
10/05/2018:Défi tootsienet(1020)-anumisme(1430):0-1
10/05/2018:Défi mimie(1630)-pascalou50(1790):1-0
10/05/2018:Défi guillaumefi(1399)-malvina(1280):1-0
10/05/2018:Défi algors(1710)-intrigue(1620):0-1
10/05/2018:Défi regor(2010)-supergenial(1809):1-0
10/05/2018:Défi flo71(1810)-uliczny(1940):1/2-1/2
10/05/2018:Défi tootsienet(1020)-gregmasten(1350):0-1
10/05/2018:Défi lecevenol(1390)-cortaz(1740):0-1
10/05/2018:Anglosaxone fly(1950)-ptitefrez(2080):1-0
10/05/2018:Et une Grunfeld une salut(2010)-crca(1850):1-0
10/05/2018:albatros13 intrigue(1610)-maya24(1600):1-0
10/05/2018:Francaise Tarrasch fermee tiounet(1670)-bubblegum(1810):1-0
10/05/2018:Open des ponts de mai pgo(1670)-gregmasten(1350):1-0
10/05/2018:Pour le plaisir 65 zozo(1660)-tartu(1650):1-0
10/05/2018:Pour le plaisir 65 lecevenol(1390)-zozo(1660):0-1
10/05/2018:coupe biquetoces bazart(2010)-karkaskat(2100):1-0
10/05/2018:Tournoi n°18087 supertomate(1850)-jazzzz(1960):1-0
10/05/2018:Tournoi n°18062 panchoa(1510)-legrillon(1690):0-1
10/05/2018:Tournoi n°18094 fredbauduret(1960)-leet(1800):1-0
10/05/2018:Tournoi n°18059 z1000(2710)-desmoulins(2590):1-0
10/05/2018:Tournoi n°18131 jhz(1529)-bylka(1720):1-0
10/05/2018:Tournoi n°18040 panchoa(1510)-zozo(1680):0-1
10/05/2018:Eq:Les Gens du Sud-LA CITE ARDENTE : quasar999(1910)-emmanuel69(1820):1-0
10/05/2018:Eq:LES CHATTERBOX-Les Oiseaux d Amsterdam : patau(1710)-sorim(2030):1-0
10/05/2018:Eq:O fou d hello-Les Oiseaux d Amsterdam : yab414(1580)-charlychess(1660):1-0
10/05/2018:Coupe Niveau 1 bigkahuna(1299)-nathalie(1259):1-0
10/05/2018:Défi tomislav(1780)-jaco(1790):1-0
10/05/2018:Défi geantvert06(1390)-tropa(1460):1-0
10/05/2018:Défi tian(1320)-azur(1640):1-0
10/05/2018:Défi scarfield(1760)-pascalou50(1790):0-1
10/05/2018:Défi stseb(1810)-riothamus(1710):1-0
10/05/2018:Défi pascalou50(1790)-supertomate(1860):0-1
10/05/2018:Défi crokodeal(1400)-oxteball(1259):1-0
10/05/2018:Défi bastien1(1260)-malvina(1260):1-0
10/05/2018:Défi roka(2430)-moi50(1860):1-0
10/05/2018:Défi gregmasten(1350)-tootsienet(1020):1-0
10/05/2018:Défi koi34(1830)-gregmasten(1350):1-0
10/05/2018:Défi tiounet(1620)-jhz(1579):0-1
10/05/2018:Saint-Valentin 2018 n°6 johannes03(999)-mimie(1660):1-0
10/05/2018:La Française qui avance bis flmnh(1750)-blackbishop(1810):1/2-1/2
10/05/2018:Francaise avec e5 flmnh(1720)-tiounet(1630):1-0
10/05/2018:wild brettsinclair(1840)-pgo(1670):1-0
10/05/2018:Avec des joueurs sympas 2 legrillon(1670)-tiounet(1620):1-0
10/05/2018:portes ouvertes en Espagnol tiounet(1600)-spectre(1770):0-1
10/05/2018:Open des ponts de mai pgo(1670)-alizarine(2390):0-1
10/05/2018:Pour le plaisir 65 tiounet(1630)-zozo(1660):1-0
10/05/2018:Pour le plaisir 65 tiounet(1630)-pgo(1650):1-0
10/05/2018:coupe biquetoces estrafolis(1400)-garlik(1980):1-0
11/05/2018:Tournoi n°18087 supertomate(1850)-loco11(1960):1-0
11/05/2018:Tournoi n°17960 warriorette(1930)-chomi64(2010):1-0
11/05/2018:Tournoi n°18059 letyjo(2870)-nathan(2920):1/2-1/2
11/05/2018:Défi chocotov(1940)-alexei31(1980):1-0
11/05/2018:Défi moi50(1770)-mauro(1870):1-0
11/05/2018:Défi mathador93(1460)-hugues(1540):0-1
11/05/2018:Défi anumisme(1410)-nef1(1330):0-1
11/05/2018:Défi holyhour(1580)-nef1(1330):1-0
11/05/2018:Défi julia(1500)-gina(1370):0-1
11/05/2018:Rapide ryba(1530)-blackrider(1380):1-0
11/05/2018:Rapide scarfield(1450)-blackrider(1380):1/2-1/2
11/05/2018:Rapide scarfield(1460)-gregomasten(1599):1-0
11/05/2018:Rapide kaspadesbrik(1570)-scarfield(1480):1-0
11/05/2018:Rapide jhz(1599)-biquet(1600):1-0
11/05/2018:portes ouvertes en Espagnol salut(1880)-ascensseur(1600):1-0
11/05/2018:portes ouvertes en Espagnol salut(1880)-spectre(1770):1-0
11/05/2018:Tournoi échelle division 3 dpcarballo(2140)-desmoulins(2590):0-1
11/05/2018:Tournoi n°17797 cobraxx10(2080)-johan1977(2120):1-0
11/05/2018:Eq:les grenades-les modestes : mainecoon(2460)-mohamedramdane(2740):1/2-1/2
11/05/2018:Eq:Les Corsaires de Lechiquier-La Crim Team : scroff(2660)-vladtepes(2460):1-0
11/05/2018:Coupe Niveau 2 bricekiller(1630)-gaspard83(1530):0-1
11/05/2018:Tournoi n°17627 fly(1930)-ginneh(1830):1-0
11/05/2018:Tournoi n°18006 milarepa(2240)-breitenbach(2340):1-0
11/05/2018:Coupe Niveau 2 jlr(1510)-dragon(1870):0-1
11/05/2018:Défi moi50(1810)-gfcyoupi(2150):1-0
11/05/2018:Défi zozo(1660)-blueberry(1599):0-1
11/05/2018:Défi matlepuma(999)-hberlioz(1690):0-1
11/05/2018:Défi jpjay(1770)-polo68(1799):1-0
11/05/2018:Défi lecevenol(1400)-katastrofic(1430):0-1
11/05/2018:La Française qui avance bis tiounet(1680)-flmnh(1750):1-0
11/05/2018:Francaise avec e5 tiounet(1630)-flmnh(1720):1-0
11/05/2018:Tournoi n°18106 joel(1430)-epervier14(1480):1-0
11/05/2018:Tournoi n°17647 jlr(1350)-vulcain14(1570):1-0
11/05/2018:Tournoi n°18095 chaton(999)-julie(1060):1-0
11/05/2018:Tournoi n°17929 jlr(1440)-magyar(1490):0-1
11/05/2018:Tournoi n°18033 mandos(2200)-jetjet91330(2180):1-0
11/05/2018:Tournoi n°18073 brettsinclair(1840)-radar(1909):0-1
11/05/2018:Tournoi n°18130 verson(1860)-supertomate(1920):1/2-1/2
11/05/2018:Tournoi n°18130 jhz(1579)-supertomate(1920):1/2-1/2
11/05/2018:Eq:LES CHATTERBOX-Vikings : hberlioz(1690)-ghostdog(1640):0-1
11/05/2018:Coupe Niveau 1 bastien1(1320)-emmanuel69(1800):0-1
11/05/2018:Défi cortaz(1760)-hberlioz(1640):1-0
11/05/2018:Défi ascensseur(1630)-gambitmiau(1660):1-0
11/05/2018:Défi prince(1730)-turbo(1520):1-0
11/05/2018:Défi defense(1860)-dan84(1440):1-0
11/05/2018:Défi gilberthellemans(1610)-zozo(1690):1-0
11/05/2018:Défi jimi50(1870)-alain34(2180):1/2-1/2
11/05/2018:Défi zozo(1620)-cortaz(1740):0-1
11/05/2018:Défi ramo(1790)-alain84(1730):0-1
11/05/2018:Défi adrienne(1150)-chobi(1720):0-1
11/05/2018:Memorial Lara XXXII pgo(1660)-bertelsen(1650):1-0
11/05/2018:Open des ponts de mai pgo(1670)-uliczny(1940):1/2-1/2
11/05/2018:Pour le plaisir 65 tartu(1650)-bastien1(1260):1-0
11/05/2018:Pour le plaisir 65 zozo(1660)-pgo(1650):1-0
11/05/2018:Tournoi échelle champions alizarine(2380)-ptitefrez(2010):1/2-1/2
11/05/2018:Tournoi n°18055 bubblegum(1810)-ratzi(2040):0-1
11/05/2018:Tournoi n°18132 gwada50(1300)-joel(1420):0-1
11/05/2018:Tournoi n°17982 leredoutable(1660)-legrillon(1690):1/2-1/2
11/05/2018:Tournoi n°18088 epervier14(1500)-ffred(1510):0-1
11/05/2018:Eq:les modestes-LA CITE ARDENTE : maxhabran(1830)-thierry7ardeche(2020):0-1
11/05/2018:Défi titit1(1270)-neddy(1010):0-1
11/05/2018:Défi julia(1500)-malvina(1260):1-0
11/05/2018:Défi gervaise(1120)-roger72(1440):0-1
11/05/2018:Défi azur(1580)-gwada50(1260):1-0
11/05/2018:Défi baloo(1570)-kawa750(1530):1-0
11/05/2018:Défi intrigue(1590)-mayaapof(1640):1-0
11/05/2018:Alekhine c ma copine titit1(1270)-flmnh(1750):1-0
11/05/2018:Jeanmichelle bubblegum(1810)-fly(2010):0-1
11/05/2018:Francaise Tarrasch fermee bubblegum(1810)-dpcarballo(1810):0-1
11/05/2018:Francaise Tarrasch fermee mathador93(1440)-bubblegum(1810):1-0
11/05/2018:Francaise avec e5 tiounet(1630)-dpcarballo(1859):0-1
11/05/2018:Pour le plaisir 65 zozo(1660)-tiounet(1630):1-0
11/05/2018:Tournoi n°18103 manulatus(1890)-verson(1830):0-1
11/05/2018:Coupe Niveau 1 nathalie(1259)-jlr(1500):0-1
11/05/2018:Défi mayaapof(1710)-cortaz(1740):0-1
11/05/2018:Défi cortaz(1740)-mayaapof(1710):1-0
11/05/2018:Défi julie(1000)-deric(1560):0-1
11/05/2018:Défi roschecx(1600)-moulric(1609):0-1
11/05/2018:Défi castor(1420)-aigle12(1440):0-1
11/05/2018:Défi tiounet(1640)-jhz(1660):0-1
11/05/2018:Pour le plaisir 65 tartu(1650)-lecevenol(1390):0-1
11/05/2018:Pour le plaisir 65 lecevenol(1390)-tartu(1650):0-1
11/05/2018:coupe biquetoces zeus87(2160)-garlik(1980):1-0
11/05/2018:Tournoi échelle division 1 pionfou(1810)-daniel1(1720):0-1
11/05/2018:Tournoi n°18106 c69(1390)-epervier14(1490):0-1
11/05/2018:Eq:Les Gens du Sud-Mission Impossible : pascalj24(2130)-ryba(1980):0-1
11/05/2018:Eq:Mission Impossible-Les Oiseaux d Amsterdam : eldiablo90(2820)-sorim(2070):1-0
11/05/2018:Eq:Mission Impossible-Les Oiseaux d Amsterdam : sorim(2070)-eldiablo90(2820):0-1
11/05/2018:Eq:Mission Impossible-Royal Kids : joel(1400)-pgo(1630):0-1
11/05/2018:Défi mvagusta(1710)-cortaz(1750):0-1
11/05/2018:Défi cortaz(1740)-chobi(1710):0-1
11/05/2018:Défi katastrofic(1440)-baloo(1570):0-1
11/05/2018:Tournoi n°18104 doudou(1630)-legrillon(1680):1-0
11/05/2018:Tournoi n°18103 percy62(2090)-domenico(1800):1-0
11/05/2018:Tournoi n°18094 willkommen54(2000)-verson(1850):1/2-1/2
11/05/2018:Tournoi n°18126 verson(1800)-1thibou(1740):0-1
11/05/2018:Tournoi n°18107 gregmasten(1350)-owow44(1499):0-1
11/05/2018:Tournoi n°18122 uji40(1580)-albescab(1550):1-0
11/05/2018:Tournoi n°18150 verson(1850)-jhz(1660):0-1
11/05/2018:Coupe Niveau 1 baranowsky(1740)-nathalie(1259):1-0
11/05/2018:Défi anumisme(1440)-pitchoune50(1200):1-0
11/05/2018:Défi jipix(1990)-venaline(2230):1/2-1/2
11/05/2018:Défi jpjay(1770)-madal222(1800):0-1
11/05/2018:Défi malvina(1290)-serjo(1290):1-0
11/05/2018:Défi moi50(1830)-elghribi(2000):0-1
11/05/2018:Défi katastrofic(1450)-jetjet91330(2190):0-1
11/05/2018:Défi anumisme(1360)-christie(1370):1-0
11/05/2018:Défi berjay(1700)-tbeau44(1680):1-0
11/05/2018:Open des ponts de mai gregmasten(1350)-alizarine(2390):0-1
11/05/2018:Pour le plaisir 65 pgo(1650)-lecevenol(1390):1-0
11/05/2018:coupe biquetoces garlik(1980)-karkaskat(2100):0-1
11/05/2018:coupe biquetoces karkaskat(2100)-garlik(1980):1-0
11/05/2018:Tournoi échelle division 3 fredbauduret(1960)-brettsinclair(1840):1-0
11/05/2018:Tournoi échelle division 2 electronlibre(1840)-coyotov(1610):1-0
11/05/2018:Tournoi échelle division 2 uji40(1580)-bezug66(1780):0-1
11/05/2018:Tournoi n°18139 kala(1920)-manulatus(1920):1/2-1/2
11/05/2018:Tournoi n°18089 brettsinclair(1830)-baranowsky(1730):1/2-1/2
11/05/2018:Eq:Danielsen City-Les Quebecois : eanouis(2100)-hub(1880):0-1
11/05/2018:Eq:Mission Impossible-Les Rebelles : eldiablo90(2820)-maitreabord(2800):1/2-1/2
11/05/2018:Coupe Niveau 3 jlr(1360)-senegaulois(1930):0-1
11/05/2018:Défi anumisme(1370)-choderlos69(1270):0-1
11/05/2018:Défi pitchoune50(1200)-bastien1(1250):1-0
11/05/2018:Défi julia(1510)-roidechecs(1220):1-0
11/05/2018:Défi pasq60(1170)-anumisme(1420):0-1
11/05/2018:Défi dpcarballo(1859)-pascalou50(1780):1-0
11/05/2018:Défi maldorox(1500)-julie(1000):1-0
11/05/2018:Défi zozo(1660)-jhz(1809):0-1
11/05/2018:Défi pasq60(1170)-mdc(1700):0-1
11/05/2018:Défi pasq60(1160)-anumisme(1430):0-1
11/05/2018:honolulu tiounet(1620)-brettsinclair(1790):1-0
11/05/2018:portes ouvertes en Espagnol salut(1880)-tiounet(1600):1-0
11/05/2018:Pour le plaisir 65 bastien1(1260)-tartu(1650):0-1
11/05/2018:coupe biquetoces garlik(1980)-estrafolis(1400):0-1
11/05/2018:Tournoi échelle division 2 brettsinclair(1830)-zozo(1620):1-0
11/05/2018:Tournoi n°18093 wenoketo(1580)-magyar(1530):1-0
11/05/2018:Tournoi n°18136 ghostdog(1610)-legrillon(1680):0-1
11/05/2018:Tournoi n°18071 scarfield(1810)-brettsinclair(1840):1-0
11/05/2018:Tournoi n°18068 surcouf(1680)-magyar(1530):1-0
11/05/2018:Tournoi n°18125 uliczny(1940)-jhz(1809):1-0
11/05/2018:Tournoi n°18120 ghostdog(1620)-scarfield(1770):1-0
11/05/2018:Tournoi n°18125 degun(1910)-jhz(1809):1-0
11/05/2018:Coupe Niveau 4 titeuf(2340)-elghribi(1990):1-0
11/05/2018:Défi jazzzz(1930)-titit1(1290):1-0
11/05/2018:Défi tootsienet(1000)-nathalie(999):1-0
11/05/2018:Défi xao(1480)-temistocles(1450):1/2-1/2
11/05/2018:Défi kaspadesbrik(1820)-asvel69(1760):1-0
11/05/2018:Défi seb(1940)-fisher22(1799):0-1
11/05/2018:Défi quentaro(1380)-bastet(1040):0-1
11/05/2018:Jeanmichelle tiounet(1670)-mathador93(1440):1-0
11/05/2018:wild tiounet(1600)-brettsinclair(1840):1-0
11/05/2018:wild zozo(1620)-brettsinclair(1840):0-1
11/05/2018:Avec des joueurs sympas 2 pgo(1690)-legrillon(1670):0-1
11/05/2018:Avec des joueurs sympas 2 tiounet(1620)-legrillon(1670):1/2-1/2
12/05/2018:Tournoi n°17883 chomi64(2010)-mistralgagnant(1920):0-1
12/05/2018:Tournoi n°18048 mathador93(1450)-supertomate(1499):0-1
12/05/2018:Tournoi n°18073 radar(1909)-chomi64(2000):1-0
12/05/2018:Eq:Mission Impossible-Royal Kids : pgo(1630)-joel(1400):0-1
12/05/2018:Défi cineyxp(2030)-tabich38(2070):1-0
12/05/2018:Défi moi50(1850)-ravanh(2140):1-0
12/05/2018:Défi gari(1960)-youliyouli(1830):1-0
12/05/2018:Défi gilberthellemans(1570)-tiounet(1610):0-1
12/05/2018:Défi gilberthellemans(1570)-kawa750(1550):1-0
12/05/2018:Défi anumisme(1450)-gaspard83(1540):0-1
12/05/2018:Défi trueman(1880)-guillaumefi(1830):1-0
12/05/2018:Défi gobois(1660)-gilberthellemans(1580):1-0
12/05/2018:Rapide foxie519(1380)-scarfield(1480):1-0
12/05/2018:Tournoi n°18111 verson(1810)-leredoutable(1630):1-0
12/05/2018:Eq:O fou d hello-Les Oiseaux d Amsterdam : 2nsppp(1680)-boucher28(1490):1-0
12/05/2018:Coupe Niveau 2 clafouti(2019)-retraite53(2049):0-1
12/05/2018:Défi gervaise(1140)-bigkahuna(1299):0-1
12/05/2018:Tournoi n°18009 zozo(1680)-gaspard83(1520):0-1
12/05/2018:Tournoi n°18082 tiounet(1620)-fooy33(1890):0-1
12/05/2018:Coupe Niveau 3 jmarcboury(1930)-verson(1830):1-0
12/05/2018:Coupe Niveau 2 clafouti(2080)-verson(1860):1-0
12/05/2018:Tournoi n°18104 albescab(1550)-coyotov(1610):1-0
12/05/2018:Tournoi n°18055 silveur(1960)-zax(1990):0-1
12/05/2018:Tournoi n°18077 gilcello(1570)-tiounet(1610):0-1
12/05/2018:Tournoi n°18153 verson(1860)-tiounet(1640):0-1
12/05/2018:Eq:Fair play-O fou d hello : bechtoune(2150)-sanvic76(1920):0-1
12/05/2018:Coupe Niveau 2 senegaulois(1900)-elghribi(1990):0-1
12/05/2018:Défi tartu(1660)-algors(1730):1-0
12/05/2018:Défi superman(1730)-eclectic(1760):1-0
12/05/2018:Pour le plaisir 65 bastien1(1260)-tiounet(1630):0-1
12/05/2018:Gisèle 37 turbo(1510)-legrillon(1680):0-1
12/05/2018:MARS 2018 tombelaine(2180)-ratzi(2010):1-0
12/05/2018:Memorial Lara XXXII bigkahuna(1299)-tartu(1690):0-1
12/05/2018:coupe biquetoces garlik(1980)-zeus87(2160):0-1
12/05/2018:coupe biquetoces estrafolis(1400)-vachefolle(2010):0-1
12/05/2018:Tournoi échelle champions elghribi(2000)-alizarine(2390):0-1
12/05/2018:Tournoi n°17834 loco11(1930)-verson(1850):1-0
12/05/2018:Tournoi n°18103 scarfield(1780)-manulatus(1890):1-0
12/05/2018:Tournoi n°18063 1thibou(1710)-tartu(1690):1-0
12/05/2018:Tournoi n°18027 yyyg(1610)-tartu(1700):1-0
12/05/2018:Tournoi n°18154 tiounet(1650)-verson(1850):0-1
12/05/2018:Eq:les modestes-Danielsen City : breitenbach(2340)-azerty1(2230):1-0
12/05/2018:Défi intrigue(1640)-gobois(1670):0-1
12/05/2018:Défi defre(2030)-bertelsen(1610):1-0
12/05/2018:Défi nunnmiles(2520)-lens37(2390):1/2-1/2
12/05/2018:Défi moi50(1810)-zayka(1870):0-1
12/05/2018:Défi shailo(2060)-christianlabat(1919):1-0
12/05/2018:Défi blueberry(1599)-azur(1600):1-0
12/05/2018:Défi roidechecs(1180)-baudoin(1990):0-1
12/05/2018:Défi tiounet(1640)-cortaz(1790):0-1
12/05/2018:Avec des joueurs sympas 2 tiounet(1620)-yyyg(1670):1-0
12/05/2018:honolulu yyyg(1670)-tiounet(1620):1-0
12/05/2018:honolulu tiounet(1620)-yyyg(1670):1-0
12/05/2018:Pour le plaisir 65 tiounet(1630)-tartu(1650):1-0
12/05/2018:La Française qui avance bis fly(1990)-bricekiller(1630):1-0
12/05/2018:Le vieux Roi 11 ascensseur(1640)-yyyg(1610):1-0
12/05/2018:Memorial Lara XXXII bigkahuna(1299)-bertelsen(1650):1-0
12/05/2018:Open des ponts de mai tiounet(1570)-yyyg(1670):1-0
12/05/2018:Tournoi n°18139 manulatus(1920)-verson(1820):0-1
12/05/2018:Tournoi n°18104 albescab(1550)-doudou(1630):0-1
12/05/2018:Tournoi n°17988 pionfou(1740)-tiounet(1720):1-0
12/05/2018:Tournoi n°18043 artistepeintre(1540)-oliver5(1660):0-1
12/05/2018:Tournoi n°18117 papillon22(1820)-verson(1810):1-0
12/05/2018:Tournoi n°18141 verson(1830)-desaintfegor(1810):1-0
12/05/2018:Eq:Les Seigneurs de l Atlantide-Les diplomates : kartush(2030)-fafamanga(2120):0-1
12/05/2018:Eq:Danielsen City-Les Corsaires de Lechiquier : april(2090)-xao(1490):1-0
12/05/2018:Eq:Fair play-O fou d hello : papillon22(1810)-champignac(1800):1-0
12/05/2018:Coupe Niveau 1 jhz(1529)-bastien1(1250):1-0
12/05/2018:Coupe Niveau 2 verson(1830)-retraite53(2080):1/2-1/2
12/05/2018:Défi nassim(1799)-pgo(1650):1-0
12/05/2018:Défi bastet(1050)-anumisme(1370):0-1
12/05/2018:Défi bastet(1040)-anumisme(1350):0-1
12/05/2018:Défi temistocles(1410)-jm29(1490):1/2-1/2
12/05/2018:Défi oliver5(1660)-asvel69(1760):0-1
12/05/2018:Défi pgo(1660)-lacrampe(1499):0-1
12/05/2018:Défi tartu(1620)-azur(1600):1-0
12/05/2018:Défi david969(1880)-elghribi(1990):1-0
12/05/2018:Avec des joueurs sympas 2 yyyg(1670)-pgo(1690):0-1
12/05/2018:Pour le plaisir 65 tiounet(1630)-bastien1(1260):1-0
12/05/2018:albatros13 sampiero2a(1340)-connecticcut(1730):0-1
12/05/2018:albatros13 sampiero2a(1340)-sylvainwb(1660):0-1
12/05/2018:albatros13 sylvainwb(1660)-sampiero2a(1340):1-0
12/05/2018:wild brettsinclair(1840)-fooy33(1890):1-0
12/05/2018:Parties ouvertes e4 e5 ascensseur(1620)-fly(1990):0-1
12/05/2018:Tournoi échelle division 2 kaspadesbrik(1830)-electronlibre(1840):1/2-1/2
12/05/2018:Tournoi échelle division 2 clafouti(2020)-pgo(1620):1-0
12/05/2018:Tournoi n°17974 tifointer(1860)-walnux(1880):0-1
12/05/2018:Tournoi n°17888 chomi64(2010)-verson(1840):1/2-1/2
12/05/2018:Tournoi n°18009 petitlulu64(1640)-coyotov(1550):1-0
12/05/2018:Tournoi n°18133 jhz(1519)-intrigue(1640):1-0
12/05/2018:Eq:La Crim Team-Royal Kids : conde7(2840)-pgo(1670):1-0
12/05/2018:Eq:La Crim Team-Royal Kids : pgo(1670)-conde7(2840):0-1
12/05/2018:Coupe Niveau 1 dpcarballo(1859)-onetwoyve(1750):1-0
12/05/2018:Défi aigle12(1420)-roschecx(1630):0-1
12/05/2018:Défi mequinho(1850)-titit1(1250):1-0
12/05/2018:Défi aigle12(1400)-geantvert06(1420):0-1
12/05/2018:Défi berjay(1690)-azur(1620):0-1
12/05/2018:Défi horseman(1760)-boucher28(1470):1-0
12/05/2018:Défi nathalie(999)-xav(1540):0-1
12/05/2018:Défi pasq60(1230)-gaby1811(1179):1/2-1/2
12/05/2018:Défi tootsienet(1020)-adrienne(1150):1-0
12/05/2018:Défi ak47(999)-tootsienet(1020):0-1
12/05/2018:Défi pgo(1620)-cortaz(1770):0-1
12/05/2018:Défi tiounet(1590)-gilmade(1630):0-1
12/05/2018:Boum sur la Noteboom emmanuel(1930)-fly(2010):1/2-1/2
12/05/2018:Pour le plaisir 60 petitlulu64(1560)-bonheurinterdit(1199):0-1
12/05/2018:Le vieux Roi 10 tartu(1680)-yyyg(1630):1-0
12/05/2018:Le vieux Roi 12 tiounet(1660)-intrigue(1640):1-0
12/05/2018:Le vieux Roi 12 intrigue(1640)-tiounet(1660):1-0
12/05/2018:Tournoi échelle division 2 pgo(1630)-tiounet(1660):0-1
12/05/2018:Tournoi n°18106 epervier14(1480)-katastrofic(1460):1-0
12/05/2018:Tournoi n°18095 sergesee(1219)-bastien1(1240):1-0
12/05/2018:Tournoi n°18096 arno(1640)-legros(1730):1-0
12/05/2018:Tournoi n°18123 ak47(999)-bastien1(1250):0-1
12/05/2018:Tournoi n°18143 simer(1720)-verson(1840):0-1
12/05/2018:Eq:Pirates du Mat-les biquetoces : morozevich(2640)-volatile(2500):1-0
12/05/2018:Défi baloo(1570)-maya24(1600):0-1
12/05/2018:Défi tiounet(1640)-alain34(2200):0-1
12/05/2018:Défi joelcouturier(1190)-anumisme(1410):0-1
12/05/2018:wild pgo(1670)-fooy33(1890):1-0
12/05/2018:wild tiounet(1600)-fooy33(1890):0-1
12/05/2018:Le vieux Roi 12 tiounet(1660)-zozo(1630):0-1
12/05/2018:Tournoi n°17748 willkommen54(2000)-chomi64(1950):1/2-1/2
12/05/2018:Tournoi n°18128 willkommen54(2000)-jhz(1519):1-0
12/05/2018:Tournoi n°18095 gregmasten(1309)-sergesee(1219):0-1
12/05/2018:Tournoi n°18118 muk(1199)-katastrofic(1450):1-0
12/05/2018:Tournoi n°18018 gonzok67(1690)-legrillon(1680):0-1
12/05/2018:Tournoi n°18109 retraite53(2110)-vachefolle(2020):1-0
12/05/2018:Défi algors(1730)-blueberry(1599):0-1
12/05/2018:Défi patau(1830)-mayaapof(1670):1-0
12/05/2018:Défi cccyyy(1700)-leya(1720):0-1
12/05/2018:Défi kerenor(1590)-michel(1200):1-0
12/05/2018:Défi patau(1780)-jlouism(1520):1-0
12/05/2018:Défi max2007(1320)-boucher28(1510):1-0
12/05/2018:Défi speedyfil(1510)-jenaipeurderien(1490):0-1
12/05/2018:Défi vvvv(1640)-pgo(1670):0-1
12/05/2018:Défi hugues(1540)-fisher(1610):1-0
12/05/2018:Défi anumisme(1440)-owow44(1399):0-1
12/05/2018:Printemps 2018 n°3 buats007(2730)-dragon(1910):1-0
12/05/2018:Tournoi échelle division 1 gonzok67(1680)-tinenfant(1880):1-0
12/05/2018:Tournoi n°18047 u27940(1990)-willkommen54(2000):1-0
12/05/2018:Tournoi n°18083 thomas(1620)-legrillon(1690):1-0
12/05/2018:Tournoi n°18102 oliver5(1700)-wenoketo(1580):1-0
12/05/2018:Tournoi n°18111 leredoutable(1620)-simer(1710):0-1
12/05/2018:Tournoi n°18122 coyotov(1630)-intrigue(1660):1-0
12/05/2018:Coupe Niveau 4 gaspard83(1530)-davchess(1860):1-0
12/05/2018:Défi kiki38(1560)-temistocles(1470):0-1
12/05/2018:Défi intrigue(1640)-azur(1590):1-0
12/05/2018:Défi petain(1590)-neily(1530):1-0
12/05/2018:Défi blackbishop(1830)-patau(1770):0-1
12/05/2018:Défi lecouz(1670)-ramo(1770):1/2-1/2
12/05/2018:Défi nimzoindien(1830)-jajaf1959(1920):1/2-1/2
12/05/2018:Défi gregmasten(1350)-gwada50(1260):0-1
12/05/2018:Défi capitaine(2060)-ryba(1940):1-0
12/05/2018:Boum sur la Noteboom leet(1690)-flmnh(1760):1/2-1/2
12/05/2018:Brice07 lecevenol(1370)-yyyg(1610):0-1
12/05/2018:Eq:Vikings-Les diplomates : saruman(1690)-anderssen(2450):0-1
12/05/2018:Eq:CHESS MASTER-Les diplomates : bassdark(2070)-tatar(2730):0-1
12/05/2018:Eq:cotenstock-Les Corsaires de Lechiquier : lekaribou(2370)-scroff(2690):0-1
12/05/2018:Eq:Danielsen City-Pirates du Mat : volatile(2510)-nunnmiles(2540):1/2-1/2
12/05/2018:Eq:Royal Kids-Les Seigneurs de l Atlantide : supertomate(1880)-mrmatchnul(2290):0-1
12/05/2018:Coupe Niveau 1 emmanuel69(1790)-defense(1830):1/2-1/2
12/05/2018:Défi fabio985(1840)-ghostdog(1610):1-0
13/05/2018:Défi elgringo(1950)-bezug66(1780):0-1
13/05/2018:Défi cathy17(1010)-neddy(1070):0-1
13/05/2018:Défi blackbishop(1830)-zatopek(1550):1-0
13/05/2018:Défi koi34(1830)-lecouz(1670):1-0
13/05/2018:les pirates interne alizarine(2360)-volatile(2510):1/2-1/2
13/05/2018:Tournoi échelle division 1 barake(1670)-pionfou(1760):1-0
13/05/2018:Tournoi échelle division 3 brettsinclair(1840)-jlr(1490):1-0
13/05/2018:Tournoi échelle division 3 bam333(1840)-supertomate(1890):1/2-1/2
13/05/2018:Tournoi n°18032 lantana(1210)-nathalie(999):1-0
13/05/2018:Tournoi n°17966 vabre81(2140)-vangogh(2150):0-1
13/05/2018:Tournoi n°18016 chomi64(2000)-fredbauduret(1940):0-1
13/05/2018:Tournoi n°18113 gregomasten(999)-fenixor(999):0-1
13/05/2018:Coupe Niveau 1 nathalie(999)-emmanuel69(1800):0-1
13/05/2018:Coupe Niveau 1 dpcarballo(1810)-nathalie(1259):1-0
13/05/2018:Défi cortaz(1750)-algors(1730):1-0
13/05/2018:albatros13 sampiero2a(1340)-maya24(1600):0-1
13/05/2018:Nom d un chien bububfo(2000)-titit1(1280):1-0
13/05/2018:Défi koi34(1840)-guillaumefi(1830):1-0
13/05/2018:Tournoi n°18006 vickort(2410)-breitenbach(2340):1-0
13/05/2018:Défi anumisme(1330)-adrienne(1199):1-0
13/05/2018:Défi doudou(1640)-vvvv(1640):1-0
13/05/2018:Tournoi n°17755 verson(1820)-chomi64(1960):0-1
13/05/2018:Tournoi n°18139 desaintfegor(1810)-verson(1830):1-0
13/05/2018:Tournoi n°18049 jmjustice(1580)-qsdmlk(1590):0-1
13/05/2018:Tournoi n°17974 dragon(1890)-chomi64(2010):0-1
13/05/2018:Tournoi n°18006 mudra(2220)-milarepa(2240):1-0
13/05/2018:Eq:Les Corsaires de Lechiquier-Les Gens du Sud : emmanuel(2010)-apollon(2790):0-1
13/05/2018:Défi zozo(1650)-linda8a(1700):0-1
13/05/2018:Défi bigoudi(1000)-bastien1(1330):0-1
13/05/2018:Pour le plaisir 65 lecevenol(1390)-tiounet(1630):0-1
13/05/2018:coupe biquetoces garlik(1980)-bazart(2010):0-1
13/05/2018:Tournoi n°18136 legrillon(1680)-verson(1850):0-1
13/05/2018:Tournoi n°17766 jazzzz(1890)-chomi64(1960):0-1
13/05/2018:Tournoi n°18060 bastien1(1330)-jlr(1500):1-0
13/05/2018:Tournoi n°18073 emmanuel(1970)-radar(1909):0-1
13/05/2018:Tournoi n°18073 oranmore(1950)-emmanuel(1970):1-0
13/05/2018:Eq:Mission Impossible-Danielsen City : e2e4(2070)-maya24(1590):1-0
13/05/2018:Coupe Niveau 1 jlr(1520)-verson(1840):0-1
13/05/2018:Défi zayka(1880)-den(1920):0-1
13/05/2018:Défi swallow(1980)-skyfall(2090):0-1
13/05/2018:Défi eclectic(1770)-den(1910):0-1
13/05/2018:Défi burgman(2060)-goodwater(2160):0-1
13/05/2018:Défi albescab(1550)-azur(1590):0-1
13/05/2018:Pour le plaisir 65 bastien1(1260)-pgo(1650):0-1
13/05/2018:Pour le plaisir 65 zozo(1660)-bastien1(1260):1-0
13/05/2018:Pour le plaisir 65 bastien1(1260)-zozo(1660):0-1
13/05/2018:wild fooy33(1890)-zozo(1620):1-0
13/05/2018:Tournoi n°17876 chomi64(2010)-caroluigi(1809):1-0
13/05/2018:Tournoi n°18158 katastrofic(1460)-bastien1(1270):1-0
13/05/2018:Tournoi n°18098 coyotov(1610)-gonzok67(1680):1-0
13/05/2018:Tournoi n°18000 gonzok67(1680)-zed34(1470):1-0
13/05/2018:Tournoi n°18118 katastrofic(1450)-c0d3(999):1-0
13/05/2018:Tournoi n°18029 oliver5(1680)-coyotov(1550):1/2-1/2
13/05/2018:Tournoi n°18089 arno(1640)-baranowsky(1730):1-0
13/05/2018:Tournoi n°18122 intrigue(1670)-albescab(1550):0-1
13/05/2018:Eq:les modestes-Les Corsaires de Lechiquier : izemassalas(2680)-apollon(2770):0-1
13/05/2018:Eq:Fair play-O fou d hello : sanvic76(1920)-bechtoune(2150):1-0
13/05/2018:Coupe Niveau 1 daniel1(1720)-spectre(1740):1-0
13/05/2018:Coupe Niveau 1 verson(1850)-bastien1(1270):1-0
13/05/2018:Défi ravanh(2150)-loco11(1930):1-0
13/05/2018:Défi jlouism(1510)-temistocles(1410):0-1
13/05/2018:Défi doudou(1640)-tartu(1680):1-0
13/05/2018:Défi sysy2014(1450)-turbo(1500):0-1
13/05/2018:Défi titit1(1300)-julie(999):1-0
13/05/2018:Défi tootsienet(1020)-fenixor(999):1-0
13/05/2018:Défi azur(1600)-cortaz(1750):0-1
13/05/2018:Défi gregmasten(1450)-hallon(2380):0-1
13/05/2018:Gisèle 37 spectre(1760)-legrillon(1680):0-1
13/05/2018:wild fooy33(1890)-pgo(1670):0-1
13/05/2018:Francaise avec e5 spectre(1760)-dpcarballo(1859):0-1
13/05/2018:Tournoi échelle division 2 brettsinclair(1840)-bertelsen(1660):1-0
13/05/2018:Tournoi n°17883 chomi64(2010)-manulatus(1850):1-0
13/05/2018:Tournoi n°18030 didactik44(1600)-arno(1690):1-0
13/05/2018:Tournoi n°18091 verson(1850)-leredoutable(1630):1-0
13/05/2018:Tournoi n°17977 joraq(2220)-djayphil(2150):0-1
13/05/2018:Tournoi n°18081 pilouface(1450)-tartu(1680):0-1
13/05/2018:Tournoi n°18079 fly(2000)-kala(1920):1-0
13/05/2018:Tournoi n°18153 tiounet(1640)-arno(1630):1-0
13/05/2018:Eq:La Crim Team-Les Corsaires de Lechiquier : arb(2860)-valentinov(2750):1/2-1/2
13/05/2018:Eq:Les Quebecois-O fou d hello : perepeinard34(1260)-yab414(1560):0-1
13/05/2018:Coupe Niveau 1 supertomate(1960)-verson(1830):1-0
13/05/2018:Défi algors(1730)-vvvv(1670):0-1
13/05/2018:Défi perepeinard34(1330)-mimie(1650):0-1
13/05/2018:Défi kerenor(1590)-gervaise(1110):1-0
13/05/2018:Défi jmr(1590)-lacrampe(1499):0-1
13/05/2018:Défi clsgr2n2(999)-tootsienet(1020):0-1
13/05/2018:Défi estrafolis(1400)-julie(1329):1-0
13/05/2018:Défi kerenor(1580)-roidechecs(1310):1-0
13/05/2018:Défi david969(1870)-plaisance(1920):1-0
13/05/2018:Défi caramanlisse(2070)-baudoin(1990):1-0
13/05/2018:Défi pilouface(1450)-temistocles(1410):1-0
13/05/2018:Défi mrmatchnul(2300)-laquina(1169):1-0
13/05/2018:Défi lacrampe(1309)-tiounet(1690):0-1
13/05/2018:Défi katastrofic(1470)-turbo(1490):1-0
13/05/2018:Tournoi n°18140 verson(1850)-legros(1710):1-0
13/05/2018:Tournoi n°17994 verson(1850)-yann56(1770):1-0
13/05/2018:Tournoi n°18008 jlr(1460)-wenoketo(1600):0-1
13/05/2018:Tournoi n°18065 bigkahuna(1299)-mathildedn(1390):1-0
13/05/2018:Tournoi n°18120 verson(1820)-leredoutable(1620):1-0
13/05/2018:Tournoi n°18132 gwada50(1300)-kiki37(1330):1-0
13/05/2018:Eq:La Crim Team-Royal Kids : zincou75(2080)-luisitomagic(1529):1-0
13/05/2018:Eq:La Crim Team-Royal Kids : luisitomagic(1529)-zincou75(2080):0-1
13/05/2018:Eq:les fous de bassans-Les Gens du Sud : tetene(1680)-trueman(1860):0-1
13/05/2018:Coupe Niveau 1 supertomate(1499)-nathalie(1259):1-0
13/05/2018:Coupe Niveau 3 elghribi(2000)-dpcarballo(2090):0-1
13/05/2018:Défi clsgr2n2(999)-ohnopleyel(1460):0-1
13/05/2018:Défi epervier14(1540)-bonheurinterdit(1199):1-0
13/05/2018:Défi pgo(1620)-hberlioz(1620):0-1
13/05/2018:Défi zayka(1880)-carabas(1950):0-1
13/05/2018:Défi qsdmlk(1580)-zatopek(1560):1-0
13/05/2018:Défi castor(1350)-gambitor(1440):0-1
13/05/2018:Défi pourquoipas(1480)-zatopek(1570):0-1
13/05/2018:Défi pj612(1830)-cortaz(1750):0-1
13/05/2018:Défi anumisme(1450)-laetitia67(1420):1-0
13/05/2018:Défi anumisme(1450)-laetitia67(1420):1-0
13/05/2018:Défi turbo(1510)-cortaz(1750):0-1
13/05/2018:Défi pourquoipas(1480)-hberlioz(1630):1-0
13/05/2018:Défi gregmasten(1450)-supertomate(1890):1-0
13/05/2018:Gisèle 37 connecticcut(1770)-turbo(1510):1-0
13/05/2018:wild pgo(1670)-brettsinclair(1840):0-1
13/05/2018:Francaise Tarrasch fermee fly(2010)-dpcarballo(1810):0-1
13/05/2018:Le vieux Roi 12 zozo(1630)-tiounet(1660):0-1
13/05/2018:coupe biquetoces vachefolle(2010)-garlik(1980):1-0
13/05/2018:Tournoi échelle division 2 pgo(1640)-zozo(1640):1-0
13/05/2018:Tournoi n°17905 patau(1800)-encore1fois(1950):1-0
13/05/2018:Tournoi n°17886 nodilo(2080)-thierry7ardeche(2020):1-0
13/05/2018:Tournoi n°18128 leet(1790)-verson(1830):1-0
13/05/2018:Tournoi n°18163 oliver5(1670)-katastrofic(1470):1-0
13/05/2018:Tournoi n°18154 tiounet(1670)-gonzok67(1720):0-1
13/05/2018:Tournoi n°18020 pgo(1680)-bidoche(1730):1-0
13/05/2018:Tournoi n°18065 mathildedn(1390)-jlr(1500):0-1
13/05/2018:Tournoi n°18097 miramar(1510)-oliver5(1700):0-1
13/05/2018:Tournoi n°18120 leredoutable(1630)-ghostdog(1620):1-0
13/05/2018:Tournoi n°18111 alena1(1800)-scarfield(1780):0-1
13/05/2018:Tournoi n°18113 fenixor(999)-lantana(1300):0-1
13/05/2018:Tournoi n°18149 jhz(1559)-tiounet(1620):0-1
13/05/2018:Tournoi n°18150 verson(1850)-scarfield(1750):0-1
13/05/2018:Eq:Les Gens du Sud-Les Quebecois : mayaapof(1650)-emmanuel69(1790):0-1
13/05/2018:Eq:Les Corsaires de Lechiquier-Les Gens du Sud : apollon(2790)-emmanuel(2010):1-0
13/05/2018:Eq:Danielsen City-Les Quebecois : mayaapof(1710)-xao(1490):1-0
13/05/2018:Eq:LES CHATTERBOX-Danielsen City : jazzzz(1960)-nunnmiles(2540):0-1
13/05/2018:Eq:LES CHATTERBOX-Danielsen City : nunnmiles(2540)-jazzzz(1960):1-0
13/05/2018:Coupe Niveau 1 nathalie(1300)-mage(1810):0-1
13/05/2018:Coupe Niveau 3 uliczny(1940)-patau(1800):1/2-1/2
13/05/2018:Défi julie(1120)-aristote62(2240):0-1
13/05/2018:Défi albescab(1550)-superman(1710):1-0
13/05/2018:Défi aristote62(2240)-nathalie(1290):1-0
13/05/2018:Défi zatopek(1580)-supertomate(1669):0-1
13/05/2018:Défi vvvv(1630)-gonzok67(1690):1-0
13/05/2018:Défi ephixe(1750)-hberlioz(1690):0-1
13/05/2018:Défi ghostdog(1630)-superman(1720):1-0
13/05/2018:Défi ninaleo06(1820)-patau(1770):1-0
13/05/2018:Défi patau(1770)-legros(1730):0-1
13/05/2018:Défi temistocles(1410)-castor(1350):0-1
13/05/2018:Défi cortaz(1750)-tbeau44(1700):0-1
13/05/2018:Défi jhz(1809)-jazzzz(1970):1-0
13/05/2018:Défi gregmasten(1460)-scarfield(1750):1-0
13/05/2018:Défi hberlioz(1630)-tartu(1620):1-0
13/05/2018:Défi atestamora(1540)-muk(1639):0-1
13/05/2018:Tournoi échelle division 3 jpmr(1570)-cereus69300(1910):0-1
13/05/2018:Tournoi n°17887 sergesee(1499)-lyly(1490):0-1
13/05/2018:Tournoi n°17749 rons(2530)-pionroi(2630):1/2-1/2
13/05/2018:Tournoi n°18062 panchoa(1510)-roxane(1590):1-0
13/05/2018:Tournoi n°18047 u27940(1990)-burgman(2070):0-1
13/05/2018:Tournoi n°17995 clafouti(1809)-annakhine(1910):0-1
13/05/2018:Tournoi n°18024 simer(1720)-bubblegum(1800):1-0
13/05/2018:Tournoi n°18046 simer(1710)-bubblegum(1810):1-0
13/05/2018:Tournoi n°18125 degun(1910)-uliczny(1940):1/2-1/2
13/05/2018:Tournoi n°18143 supertomate(1900)-simer(1720):1-0
13/05/2018:Défi superman(1710)-jpmr(1530):0-1
13/05/2018:Défi hberlioz(1700)-cathy17(1030):1-0
13/05/2018:Défi chobi(1720)-guillaumefi(1830):1-0
13/05/2018:Défi bubblegum(1810)-den(1900):0-1
13/05/2018:Défi ravanh(2140)-tranquille(2230):0-1
13/05/2018:Défi fanch2pic(1460)-julie(1000):1-0
13/05/2018:Défi guillaumefi(1830)-ramo(1780):0-1
13/05/2018:Défi fanch2pic(1460)-clsgr2n2(999):0-1
13/05/2018:Défi hberlioz(1620)-cortaz(1800):0-1
13/05/2018:Défi gonzok67(1680)-papillon22(1780):0-1
13/05/2018:Défi fhr(1060)-anumisme(1330):0-1
13/05/2018:Défi scarfield(1830)-bubblegum(1740):1-0
13/05/2018:Défi chevalice(1670)-ramo(1780):0-1
13/05/2018:Défi cortaz(1770)-atestamora(1570):0-1
13/05/2018:Défi maluel(1600)-tichaton(1460):1-0
14/05/2018:Rapide gregmasten(1349)-uliczny(1320):0-1
14/05/2018:Rapide blackrider(1410)-hugogo(1599):1-0
14/05/2018:Tournoi échelle champions jajaf1959(1920)-alizarine(2380):0-1
14/05/2018:Tournoi échelle division 3 jlr(1530)-bam333(1840):1-0
14/05/2018:Tournoi échelle division 2 pgo(1620)-pasctin(1890):0-1
14/05/2018:Tournoi n°18102 gonzok67(1670)-oliver5(1700):1/2-1/2
14/05/2018:Défi anumisme(1420)-bigoudi(1000):1-0
14/05/2018:Défi anumisme(1450)-joelcouturier(1180):1-0
14/05/2018:Défi nathalie(999)-nanaluce(1100):0-1
14/05/2018:coupe biquetoces mequinho(1820)-bazart(2010):1/2-1/2
14/05/2018:coupe biquetoces mequinho(1820)-vachefolle(2010):0-1
14/05/2018:Tournoi n°18136 simer(1720)-legrillon(1680):1-0
14/05/2018:Tournoi n°18104 coyotov(1610)-vvvv(1620):1-0
14/05/2018:Tournoi n°18150 bezug66(1790)-verson(1850):1/2-1/2
14/05/2018:Eq:O fou d hello-Fair play : lool(2560)-hipyacine(1800):1-0
14/05/2018:Eq:Les Quebecois-O fou d hello : flo71(1790)-flmnh(1740):0-1
14/05/2018:Défi lacrampe(1499)-zozo(1680):1-0
14/05/2018:Défi anumisme(1420)-maitressesse(1440):0-1
14/05/2018:Pour le plaisir 65 tiounet(1630)-lecevenol(1390):1-0
14/05/2018:Parties ouvertes e4 e5 flmnh(1770)-crca(1830):0-1
14/05/2018:portes ouvertes en Espagnol flmnh(1720)-tiounet(1600):0-1
14/05/2018:Tournoi n°18136 nassim(1799)-simer(1710):1-0
14/05/2018:Tournoi n°18079 darkchossete(1830)-patau(1800):1-0
14/05/2018:Tournoi n°17987 beru(1330)-bobbietje(1400):0-1
14/05/2018:Tournoi n°18099 mistralgagnant(1980)-retraite53(2049):0-1
14/05/2018:Tournoi n°18094 mistralgagnant(1980)-verson(1850):1-0
14/05/2018:Tournoi n°18048 jlr(1510)-mathador93(1440):0-1
14/05/2018:Tournoi n°18048 gregmasten(1309)-mathador93(1460):0-1
14/05/2018:Tournoi n°18115 patau(1800)-verson(1810):0-1
14/05/2018:Tournoi n°18117 patau(1800)-verson(1810):0-1
14/05/2018:Tournoi n°18143 verson(1830)-patau(1780):1-0
14/05/2018:Eq:Les Corsaires de Lechiquier-La Crim Team : agashak(2860)-levelmax(2810):1/2-1/2
14/05/2018:Coupe Niveau 3 papinou(1760)-elghribi(1960):0-1
14/05/2018:Défi clsgr2n2(999)-steflam(1410):0-1
14/05/2018:Défi pj612(1830)-nassim(1799):0-1
14/05/2018:Défi roger72(1490)-clsgr2n2(999):1-0
14/05/2018:Défi azur(1610)-jrb77(1680):0-1
14/05/2018:Défi alpinfresh(1609)-fisher(1620):1-0
14/05/2018:Défi bilitis(1810)-bibisept(1830):0-1
14/05/2018:Défi patau(1800)-ramo(1820):1-0
14/05/2018:Défi patau(1760)-domenico(1810):0-1
14/05/2018:Défi patau(1790)-tinenfant(1890):0-1
14/05/2018:Défi patau(1770)-artistepeintre(1520):1-0
14/05/2018:Défi anumisme(1420)-nathalie(1380):1-0
14/05/2018:Défi laetitia67(1420)-anumisme(1450):0-1
14/05/2018:Défi roquefort(1970)-tomislav(1770):1-0
14/05/2018:Défi laetitia67(1420)-anumisme(1450):0-1
14/05/2018:Défi laetitia67(1420)-anumisme(1450):0-1
14/05/2018:Défi jajaf1959(1930)-patau(1760):1-0
14/05/2018:wild fooy33(1890)-tiounet(1600):1-0
14/05/2018:Les cloches zorglub42(1930)-pgo(1680):1-0
14/05/2018:Tournoi échelle champions blackbishop(1880)-salut(1890):1-0
14/05/2018:Tournoi échelle division 2 fredbauduret(1980)-uji40(1590):1-0
14/05/2018:Tournoi échelle division 2 pasctin(1890)-zozo(1630):0-1
14/05/2018:Tournoi n°18136 legrillon(1680)-nassim(1799):0-1
14/05/2018:Tournoi n°18087 jazzzz(1960)-dragon(1870):1-0
14/05/2018:Tournoi n°18140 malthus(1880)-verson(1840):0-1
14/05/2018:Tournoi n°18038 moris54(1960)-mistralgagnant(1950):0-1
14/05/2018:Tournoi n°18064 simer(1710)-mandrak(1630):1-0
14/05/2018:Tournoi n°18136 verson(1830)-ghostdog(1620):1/2-1/2
14/05/2018:Tournoi n°17948 superlolo83(1730)-darkchossete(1730):1-0
14/05/2018:Tournoi n°18131 bylka(1720)-verson(1790):1-0
14/05/2018:Tournoi n°18131 bed2bed(1840)-jhz(1809):1-0
14/05/2018:Tournoi n°18113 bastien1(1230)-gregomasten(999):1-0
14/05/2018:Tournoi n°18113 fenixor(999)-bastien1(1230):0-1
14/05/2018:Tournoi n°18159 jhz(1800)-verson(1850):1-0
14/05/2018:Tournoi n°18143 patau(1820)-simer(1720):1-0
14/05/2018:Tournoi n°18147 tiounet(1620)-lychar(1700):0-1
14/05/2018:Eq:O fou d hello-Fair play : papillon22(1780)-junior1966(1340):1-0
14/05/2018:Eq:Pirates du Mat-Les Corsaires de Lechiquier : z1000(2720)-volatile(2510):1-0
14/05/2018:Eq:Les diplomates-Pirates du Mat : bertelsen(1650)-alizarine(2390):0-1
14/05/2018:Eq:Les diplomates-Pirates du Mat : alizarine(2390)-bertelsen(1650):1-0
14/05/2018:Coupe Niveau 1 jlr(1530)-supertomate(1970):0-1
14/05/2018:Coupe Niveau 1 verson(1840)-futhark(999):1-0
14/05/2018:Défi xao(1520)-owow44(1399):0-1
14/05/2018:Défi pgo(1660)-wenoketo(1560):1-0
14/05/2018:Défi kaspy(1990)-morloch(1920):0-1
14/05/2018:Défi anumisme(1450)-adrienne(1170):1-0
14/05/2018:Défi verone(2020)-cobraxx10(2120):1/2-1/2
14/05/2018:Défi morloch(1940)-janolapin(1910):1/2-1/2
14/05/2018:Défi riothamus(1700)-jipepe(1810):1-0
14/05/2018:Défi gregmasten(1450)-temistocles(1400):1-0
14/05/2018:Défi carabas(1980)-morloch(1920):1-0
14/05/2018:Défi prince(1770)-wenoketo(1550):1-0
14/05/2018:Défi gina(1380)-anumisme(1370):1-0
14/05/2018:Défi patrick(1550)-anumisme(1420):1-0
14/05/2018:Défi malvina(1270)-marcol(1130):1-0
14/05/2018:Défi patau(1800)-dragon(1870):0-1
14/05/2018:Défi mimie(1660)-patau(1800):1-0
14/05/2018:Tournoi cinquantenaire janolapin(1840)-hub(1870):0-1
14/05/2018:Gisèle 37 legrillon(1680)-spectre(1760):1-0
14/05/2018:Les cloches tartu(1680)-crca(1830):0-1
14/05/2018:portes ouvertes en Espagnol flmnh(1720)-spectre(1770):0-1
14/05/2018:portes ouvertes en Espagnol gregmasten(1350)-flmnh(1720):1-0
14/05/2018:portes ouvertes en Espagnol spectre(1770)-gregmasten(1350):1-0
14/05/2018:portes ouvertes en Espagnol gregmasten(1350)-spectre(1770):0-1
14/05/2018:portes ouvertes en Espagnol tiounet(1600)-gregmasten(1350):1-0
14/05/2018:Open des ponts de mai gregmasten(1350)-uliczny(1940):1-0
14/05/2018:Tournoi échelle champions elghribi(1990)-zax(2000):0-1
14/05/2018:Tournoi n°18165 verson(1840)-upsalin(1900):0-1
14/05/2018:Tournoi n°18100 verson(1820)-baranowsky(1750):0-1
14/05/2018:Tournoi n°17973 afeyte(1680)-legrillon(1690):0-1
14/05/2018:Tournoi n°18103 domenico(1800)-manulatus(1890):0-1
14/05/2018:Tournoi n°18044 arno(1690)-pionfou(1690):0-1
14/05/2018:Tournoi n°17890 chomi64(2020)-percy62(2020):1-0
14/05/2018:Tournoi n°18043 artistepeintre(1540)-doudou(1640):0-1
14/05/2018:Tournoi n°18083 legrillon(1690)-qsdmlk(1580):0-1
14/05/2018:Tournoi n°18113 lantana(1300)-gregomasten(999):1-0
14/05/2018:Tournoi n°18151 jhz(1840)-verson(1850):0-1
14/05/2018:Tournoi n°18156 jhz(1820)-verson(1850):1/2-1/2
14/05/2018:Eq:les modestes-Les Corsaires de Lechiquier : mohamedramdane(2750)-apollon(2720):0-1
14/05/2018:Eq:les modestes-LA CITE ARDENTE : hachevitch(2440)-pilinapolgar(2530):1-0
14/05/2018:Eq:O fou d hello-Fair play : hipyacine(1800)-lool(2560):0-1
14/05/2018:Coupe Niveau 1 bubblegum(1810)-bastien1(1340):1-0
14/05/2018:Coupe Niveau 1 elghribi(1980)-verson(1860):0-1
14/05/2018:Défi pilinapolgar(2530)-aristote62(2200):1/2-1/2
14/05/2018:Défi jimi50(1920)-blueberry(1869):0-1
14/05/2018:Défi lancov(1920)-berjay(1690):1-0
14/05/2018:Défi castor(1350)-malvina(1300):1-0
14/05/2018:Défi tootsienet(1010)-anumisme(1440):0-1
14/05/2018:Défi pgo(1640)-gregmasten(1420):0-1
14/05/2018:Le vieux Roi 11 zozo(1650)-roschecx(1630):0-1
14/05/2018:coupe biquetoces karkaskat(2100)-vachefolle(2010):0-1
14/05/2018:Tournoi n°18132 katastrofic(1450)-gwada50(1300):1-0
14/05/2018:Tournoi n°17835 bim(2050)-ratzi(2040):1/2-1/2
14/05/2018:Tournoi n°17881 arcadie(2040)-ales17(1940):1-0
14/05/2018:Tournoi n°18067 owow44(1399)-epervier14(1480):1-0
14/05/2018:Tournoi n°18104 doudou(1630)-coyotov(1610):0-1
14/05/2018:Tournoi n°17771 alain64(2270)-mudra(2260):0-1
14/05/2018:Tournoi n°18049 qsdmlk(1590)-coyotov(1560):1-0
14/05/2018:Tournoi n°18110 jlouism(1510)-pilouface(1480):1-0
14/05/2018:Tournoi n°18122 albescab(1550)-coyotov(1630):1-0
14/05/2018:Eq:les modestes-Les Corsaires de Lechiquier : levelmax(2820)-sherezo(2790):1-0
14/05/2018:Coupe Niveau 4 yatman(2030)-gtx(1860):0-1
14/05/2018:Coupe Niveau 1 elghribi(1980)-bastien1(1280):1-0
14/05/2018:Coupe Niveau 3 percy62(2090)-elghribi(1980):1-0
14/05/2018:Défi superman(1730)-doudou(1680):1/2-1/2
14/05/2018:Défi hberlioz(1610)-upsalin(1900):0-1
14/05/2018:Défi superman(1810)-jmr(1590):1-0
14/05/2018:Défi choderlos69(1250)-anumisme(1370):1-0
14/05/2018:Défi julie(1149)-ziviol(1460):0-1
14/05/2018:Défi laquina(1169)-mrmatchnul(2300):0-1
14/05/2018:Défi superman(1720)-zozo(1670):1-0
14/05/2018:Défi kawa750(1520)-patrick(1560):0-1
14/05/2018:Défi bekheira(2120)-kaspi007(2080):1/2-1/2
14/05/2018:Défi clemm(1670)-patau(1750):1-0
14/05/2018:Défi gregmasten(1350)-roidechecs(1180):1-0
14/05/2018:Défi tootsienet(1030)-anumisme(1410):0-1
14/05/2018:Défi atestamora(1570)-maluel(1600):1-0
14/05/2018:Gisèle 37 legrillon(1680)-turbo(1510):1-0
14/05/2018:L Espagnole selon Marshall tiounet(1670)-paulinechess(1810):0-1
14/05/2018:Jeanmichelle leet(1780)-bubblegum(1810):1-0
14/05/2018:portes ouvertes en Espagnol salut(1880)-gregmasten(1350):1-0
14/05/2018:Open des ponts de mai tiounet(1570)-gregmasten(1350):0-1
14/05/2018:coupe biquetoces mequinho(1820)-zeus87(2160):0-1
14/05/2018:Tournoi n°17953 nicodemouscron(2150)-burgman(2080):1-0
14/05/2018:Tournoi n°17939 roka(2430)-hallon(2390):0-1
14/05/2018:Tournoi n°18102 panchoa(1520)-gonzok67(1670):0-1
14/05/2018:Tournoi n°18088 kawa750(1560)-epervier14(1500):0-1
14/05/2018:Tournoi n°18021 panchoa(1520)-nogean(1590):0-1
14/05/2018:Tournoi n°18081 tiounet(1610)-kawa750(1550):1-0
14/05/2018:Tournoi n°18110 pilouface(1480)-magyar(1510):1-0
15/05/2018:Eq:Pirates du Mat-Les diplomates : desmoulins(2600)-volatile(2510):1/2-1/2
15/05/2018:Eq:Royal Kids-1pur : regor(2020)-gregmasten(1480):0-1
15/05/2018:Eq:Royal Kids-1pur : gregmasten(1480)-regor(2020):1-0
15/05/2018:Défi chobi(1710)-otrigo3(1780):1-0
15/05/2018:Défi anumisme(1400)-titia13(1180):1-0
15/05/2018:Défi roidechecs(1250)-joelcouturier(1190):0-1
15/05/2018:Défi asvel69(1740)-xao(1510):0-1
15/05/2018:Défi asvel69(1740)-cortaz(1760):0-1
15/05/2018:Défi tichaton(1460)-castor(1390):0-1
15/05/2018:Rapide ryba(1560)-crokodeal(1440):1-0
15/05/2018:honolulu fly(2010)-ptitefrez(2000):0-1
15/05/2018:Pion chang connecticcut(1730)-fly(2010):0-1
15/05/2018:Défi nathalie(999)-skorpion59(1080):1-0
15/05/2018:Défi bassdark(2100)-garlik(2000):1-0
15/05/2018:Tournoi n°18150 scarfield(1740)-bezug66(1790):1-0
15/05/2018:Défi cineyxp(2020)-rocketman(2010):1-0
15/05/2018:Défi anumisme(1350)-marcol(1140):1-0
15/05/2018:Défi neddy(1160)-marcol(1130):1-0
15/05/2018:Défi marcol(1140)-anumisme(1420):0-1
15/05/2018:Tournoi n°18132 joel(1420)-epervier14(1470):1-0
15/05/2018:Tournoi n°18157 coyotov(1630)-albescab(1550):0-1
15/05/2018:Tournoi n°17946 tiounet(1640)-donjon(1690):0-1
15/05/2018:Tournoi n°18081 artistepeintre(1520)-tiounet(1610):1-0
15/05/2018:Eq:Les Quebecois-Les Gens du Sud : flmnh(1700)-verson(1850):1-0
15/05/2018:Eq:Les Quebecois-Les Gens du Sud : verson(1850)-flmnh(1700):0-1
15/05/2018:Coupe Niveau 3 verson(1830)-dpcarballo(2080):0-1
15/05/2018:Défi mimie(1640)-dan84(1440):1-0
15/05/2018:Défi minon(2040)-jeanluc88(2240):1-0
15/05/2018:Défi bilitis(1830)-jimi50(1880):1-0
15/05/2018:Défi turbo(1520)-ypap(1530):1-0
15/05/2018:Défi zozo(1610)-tiounet(1690):1-0
15/05/2018:Défi pasq60(1160)-anumisme(1420):0-1
15/05/2018:Gisèle 35 legrillon(1670)-jyf(1860):0-1
15/05/2018:wild zozo(1620)-fooy33(1890):1-0
15/05/2018:L Espagnole selon Marshall flmnh(1700)-tiounet(1670):1/2-1/2
15/05/2018:Jeanmichelle fly(2010)-tiounet(1670):1-0
15/05/2018:portes ouvertes en Espagnol tiounet(1600)-flmnh(1720):1-0
15/05/2018:Le vieux Roi 12 turbo(1490)-tiounet(1660):1-0
15/05/2018:Tournoi n°18146 kala(1880)-fredoparis(1640):1-0
15/05/2018:Tournoi n°18156 verson(1840)-patau(1840):1/2-1/2
15/05/2018:Tournoi n°17960 mistralgagnant(1940)-warriorette(1930):0-1
15/05/2018:Eq:Les Corsaires de Lechiquier-les grenades : davchess(1840)-april(2060):0-1
15/05/2018:Eq:Danielsen City-cotenstock : xao(1520)-jimi50(1880):0-1
15/05/2018:Défi christianlabat(1809)-degun(1890):1-0
15/05/2018:Défi emmanuel(1980)-patau(1780):1-0
15/05/2018:Défi bilitis(1810)-pj612(1840):0-1
15/05/2018:Défi fenixor(999)-den(1920):0-1
15/05/2018:Défi roidechecs(1200)-bed2bed(1870):0-1
15/05/2018:Défi maluel(1600)-wenoketo(1620):1-0
15/05/2018:Défi fly(2010)-bekheira(2120):1-0
15/05/2018:Noël 2017 n°1 buats007(2720)-hachevitch(2460):1-0
15/05/2018:Saint-Valentin 2018 n°1 annakhine(2010)-yyyg(1670):1-0
15/05/2018:coupe biquetoces vachefolle(2010)-karkaskat(2100):1-0
15/05/2018:Tournoi échelle champions jazzzz(1970)-ptitefrez(2010):0-1
15/05/2018:Tournoi échelle division 1 kaspadesbrik(1810)-patau(1780):0-1
15/05/2018:Tournoi n°18133 intrigue(1640)-wenoketo(1560):0-1
15/05/2018:Tournoi n°17986 xercott(1710)-patau(1810):0-1
15/05/2018:Tournoi n°17988 tiounet(1720)-danielski(1630):1-0
15/05/2018:Tournoi n°17931 yyyg(1630)-poireau(1770):1-0
15/05/2018:Eq:Les Corsaires de Lechiquier-cotenstock : akkullanu(2640)-levelmax(2820):0-1
15/05/2018:Coupe Niveau 5 elghribi(1960)-abc47(2100):0-1
15/05/2018:Coupe Niveau 4 senegaulois(1960)-seb(1930):1-0
15/05/2018:Défi electronlibre(1850)-mogica(1760):0-1
15/05/2018:Défi trebillig(1560)-cathy17(1010):1-0
15/05/2018:Défi gervaise(1110)-maluel(1570):0-1
15/05/2018:Défi temistocles(1450)-riothamus(1710):0-1
15/05/2018:Défi dan84(1440)-jpmr(1580):0-1
15/05/2018:Défi pourquoipas(1480)-jlouism(1510):1-0
15/05/2018:Défi vincentcoste(1610)-vulcain14(1580):0-1
15/05/2018:Défi gonzok67(1710)-laetitia67(1420):1-0
15/05/2018:Défi ghostdog(1610)-maluel(1600):1-0
15/05/2018:Saint-Valentin 2018 n°1 pournelle(2670)-morozevich(2620):1/2-1/2
15/05/2018:Gambit dame bubblegum(1810)-intrigue(1600):1-0
15/05/2018:Gisèle 37 connecticcut(1770)-karkaskat(2100):1-0
15/05/2018:Gisèle 37 karkaskat(2100)-connecticcut(1770):1-0
15/05/2018:L Espagnole selon Marshall tiounet(1670)-blackbishop(1870):0-1
15/05/2018:albatros14 lecevenol(1370)-tiounet(1680):0-1
15/05/2018:Tournoi échelle division 3 bigkahuna(1760)-blitzman(2720):0-1
15/05/2018:Tournoi n°18000 zed34(1470)-wenoketo(1560):0-1
15/05/2018:Tournoi n°18127 leet(1790)-verson(1830):1-0
15/05/2018:Tournoi n°18070 upsalin(1880)-ghostdog(1630):0-1
15/05/2018:Tournoi n°18056 brettsinclair(1830)-vvvv(1640):1-0
15/05/2018:Tournoi n°18150 leredoutable(1660)-verson(1840):1-0
15/05/2018:Eq:O fou d hello-LechiquierDesHurlus : olivyeah(1900)-jeanmarie(2250):0-1
15/05/2018:Défi bastien1(1230)-voyageur14(1280):1-0
15/05/2018:Défi turbo(1490)-nathalie(999):1-0
15/05/2018:Défi fisher(1620)-albescab(1560):1-0
15/05/2018:Défi roidechecs(1230)-anumisme(1450):1-0
15/05/2018:Défi jhz(1519)-turbo(1510):1-0
15/05/2018:Défi ypap(1530)-steph65(1590):0-1
15/05/2018:Défi anumisme(1440)-voyageur14(1290):0-1
15/05/2018:Défi ypap(1530)-fisher22(2159):0-1
15/05/2018:Défi maluel(1600)-vincentcoste(1610):1-0
15/05/2018:wild brettsinclair(1840)-zozo(1620):0-1
15/05/2018:wild brettsinclair(1840)-salut(1910):0-1
15/05/2018:wild salut(1910)-brettsinclair(1840):1-0
15/05/2018:Le vieux Roi 12 tiounet(1660)-turbo(1490):1-0
15/05/2018:Le vieux Roi 12 zozo(1630)-turbo(1490):0-1
15/05/2018:coupe biquetoces zeus87(2160)-mequinho(1820):1-0
15/05/2018:Tournoi n°17757 fly(1960)-warriorette(1890):1/2-1/2
15/05/2018:Tournoi n°17737 bnj(1860)-fly(1940):0-1
15/05/2018:Tournoi n°17863 chomi64(2020)-vachefolle(1890):1/2-1/2
15/05/2018:Tournoi n°18003 thierry22(1640)-mayaapof(1640):1-0
15/05/2018:Tournoi n°18021 panchoa(1520)-artistepeintre(1530):1-0
15/05/2018:Eq:Les Corsaires de Lechiquier-Les Gens du Sud : buats007(2690)-swallow(1980):1-0
15/05/2018:Eq:Danielsen City-cotenstock : djayphil(2140)-eanouis(2050):1-0
15/05/2018:Coupe Niveau 3 elghribi(1960)-papinou(1780):1-0
15/05/2018:Coupe Niveau 1 mick13(1690)-bastien1(1320):1-0
15/05/2018:Défi vvvv(1670)-zozo(1660):1-0
15/05/2018:Défi woozie(2100)-aristote62(2200):0-1
15/05/2018:Défi roschecx(1610)-chevalice(1670):0-1
15/05/2018:Défi jyf(1840)-moi50(1790):1-0
15/05/2018:Défi largo(999)-nathalie(999):1-0
15/05/2018:Défi laquina(1169)-mrmatchnul(2300):0-1
15/05/2018:Défi titia13(1150)-anumisme(1360):1-0
15/05/2018:Défi intrigue(1630)-kaspy(1990):1/2-1/2
15/05/2018:Défi hberlioz(1690)-superman(1720):0-1
15/05/2018:Défi wenoketo(1620)-superman(1720):0-1
15/05/2018:Défi eloyoy(1950)-morloch(1910):0-1
15/05/2018:Défi luc20(1620)-superman(1740):1-0
15/05/2018:Défi largo(999)-hugogo(999):1-0
15/05/2018:Défi papillon22(1820)-nassim(1799):0-1
15/05/2018:Défi turbo(1490)-maluel(1600):0-1
15/05/2018:Défi anumisme(1410)-franckcordier34500(1249):1-0
15/05/2018:Francaise avec e5 flmnh(1720)-dpcarballo(1859):0-1
15/05/2018:Le vieux Roi 12 intrigue(1640)-zozo(1630):0-1
15/05/2018:Le vieux Roi 12 turbo(1490)-zozo(1630):0-1
15/05/2018:Tournoi échelle division 2 tiounet(1670)-chrislee76(2040):0-1
16/05/2018:Tournoi n°17953 burgman(2080)-dodogod(2010):1-0
16/05/2018:Tournoi n°18042 oranmore(1960)-desaintfegor(1800):1/2-1/2
16/05/2018:Tournoi n°18057 jazzzz(1940)-ales17(1980):1-0
16/05/2018:Tournoi n°18051 bubblegum(1810)-dukehemon(1950):0-1
16/05/2018:Tournoi n°18110 pilouface(1480)-legrillon(1650):0-1
16/05/2018:Tournoi n°18107 gregmasten(1350)-magyar(1510):0-1
16/05/2018:Eq:les modestes-Les Corsaires de Lechiquier : apollon(2710)-sherezo(2800):1-0
16/05/2018:Eq:les modestes-cotenstock : alain64(2160)-izemassalas(2660):0-1
16/05/2018:Eq:Pirates du Mat-Les diplomates : volatile(2510)-desmoulins(2600):1-0
16/05/2018:Coupe Niveau 2 elghribi(2010)-petitlulu64(1630):1-0
16/05/2018:Défi cortaz(1750)-xao(1500):1-0
16/05/2018:Défi cortaz(1750)-ramo(1780):1-0
16/05/2018:Défi pitchoune50(1200)-pascalou50(1780):0-1
16/05/2018:Défi hberlioz(1690)-wendydydy(1640):1-0
16/05/2018:Défi tiounet(1700)-lancov(1930):0-1
16/05/2018:Défi ptitefrez(2040)-gonzok67(1690):1-0
16/05/2018:Défi anumisme(1400)-nanaluce(1080):1-0
16/05/2018:Noël 2017 n°1 buats007(2720)-eldiablo90(2840):0-1
16/05/2018:Rapide djayphil(1640)-kaspadesbrik(1570):1-0
16/05/2018:wild pgo(1670)-karkaskat(2100):0-1
16/05/2018:2200 2600 n°1 fredelebouric12(2550)-nunnmiles(2540):1/2-1/2
16/05/2018:albatros14 gregmasten(1580)-pgo(1640):1-0
16/05/2018:coupe biquetoces karkaskat(2100)-bazart(2010):0-1
16/05/2018:Tournoi n°17614 madal222(1880)-fly(1950):0-1
16/05/2018:Tournoi n°18160 verson(1840)-leredoutable(1650):0-1
16/05/2018:Eq:les modestes-Les Corsaires de Lechiquier : buats007(2730)-mohamedarab(2800):1/2-1/2
16/05/2018:Tournoi n°18028 bubbly(1310)-jlr(1480):0-1
16/05/2018:Défi gilmade(1630)-cortaz(1770):0-1
16/05/2018:albatros14 gregmasten(1580)-tiounet(1680):1-0
16/05/2018:Tournoi n°18140 malthus(1880)-legros(1710):0-1
16/05/2018:Tournoi n°17876 patau(1810)-chomi64(2010):0-1
16/05/2018:Tournoi n°18049 qsdmlk(1590)-karclop(1660):0-1
16/05/2018:Tournoi n°18147 arno(1620)-verson(1830):0-1
16/05/2018:Tournoi n°18135 crokodeal(1410)-joel(1420):1-0
16/05/2018:Eq:Vikings-Danielsen City : tombelaine(2180)-eanouis(2100):1-0
16/05/2018:Défi pivoine78(1190)-anumisme(1370):1-0
16/05/2018:Défi gilberthellemans(1590)-dan84(1440):1-0
16/05/2018:Défi morloch(1920)-burgman(2080):0-1
16/05/2018:Défi marcol(1130)-anumisme(1410):0-1
16/05/2018:Défi wenoketo(1550)-steph65(1590):1-0
16/05/2018:Défi bekheira(2150)-schnibble(2380):0-1
16/05/2018:Défi nathalie(999)-artistepeintre(1520):0-1
16/05/2018:Défi lilith(1330)-sayrene(999):0-1
16/05/2018:Défi pgo(1620)-vulcain14(1580):0-1
16/05/2018:coupe biquetoces biquet(1850)-karkaskat(2100):0-1
16/05/2018:Tournoi n°18125 zax(1990)-degun(1910):1-0
16/05/2018:Tournoi n°18104 legrillon(1680)-albescab(1550):1-0
16/05/2018:Tournoi n°18118 c0d3(999)-epervier14(1460):0-1
16/05/2018:Tournoi n°17951 patau(1810)-annakhine(1850):0-1
16/05/2018:Tournoi n°18116 kiki24(1950)-verson(1800):1/2-1/2
16/05/2018:Tournoi n°18137 verson(1820)-fredoparis(1640):0-1
16/05/2018:Tournoi n°18140 patau(1760)-malthus(1880):1-0
16/05/2018:Tournoi n°18165 patau(1780)-verson(1840):1/2-1/2
16/05/2018:Tournoi n°18165 upsalin(1910)-patau(1780):0-1
16/05/2018:Eq:Mission Impossible-Les Oiseaux d Amsterdam : joel(1390)-marieclaire(1380):1-0
16/05/2018:Eq:Les Corsaires de Lechiquier-Les Seigneurs de l Atlantide : unsingeenhiver(2490)-gwen(1960):1-0
16/05/2018:Coupe Niveau 1 yyyg(1620)-baranowsky(1790):0-1
16/05/2018:Défi maya24(1600)-mayaapof(1650):0-1
16/05/2018:Défi bubblegum(1810)-jpjay(1760):1-0
16/05/2018:Défi titit1(1280)-anumisme(1310):1-0
16/05/2018:Défi caroluigi(1809)-senegaulois(1940):1-0
16/05/2018:Défi ramo(1760)-patau(1800):0-1
16/05/2018:Défi rambonov(1310)-jm29(1490):0-1
16/05/2018:Défi verone(2020)-crca(1840):1/2-1/2
16/05/2018:Défi patau(1770)-tartu(1690):0-1
16/05/2018:Défi morloch(1900)-abc47(2100):0-1
16/05/2018:Défi yab414(1560)-perepeinard34(1260):1-0
16/05/2018:Défi karclop(1660)-gobois(1670):1/2-1/2
16/05/2018:Défi albescab(1550)-arzbro(1530):0-1
16/05/2018:Le vieux Roi 10 challenger2015(1550)-roschecx(1590):0-1
16/05/2018:Le vieux Roi 10 challenger2015(1550)-yyyg(1630):1-0
16/05/2018:Jeanmichelle mathador93(1440)-karkaskat(2100):0-1
16/05/2018:Gisèle 37 karkaskat(2100)-spectre(1760):0-1
16/05/2018:honolulu spectre(1770)-yyyg(1670):1-0
16/05/2018:Avec des joueurs sympas 2 geantvert(1700)-yyyg(1670):1-0
16/05/2018:honolulu yyyg(1670)-spectre(1770):1-0
16/05/2018:Open des ponts de mai janolapin(1880)-yyyg(1670):1-0
16/05/2018:2200 2700 n°2 lool(2620)-hachevitch(2480):1-0
16/05/2018:Tournoi échelle champions ptitefrez(2020)-elghribi(2000):1-0
16/05/2018:Tournoi n°18166 jazzzz(1950)-patau(1840):1-0
16/05/2018:Tournoi n°18045 annakhine(1950)-manulatus(1870):1-0
16/05/2018:Tournoi n°17888 bubblegum(1800)-chomi64(2010):0-1
16/05/2018:Tournoi n°17931 thierry06(1690)-yyyg(1630):0-1
16/05/2018:Tournoi n°18009 legionnaire(1570)-gaspard83(1530):1-0
16/05/2018:Tournoi n°18051 fly(1990)-bubblegum(1810):1-0
16/05/2018:Tournoi n°18040 louis67(1530)-zozo(1680):0-1
16/05/2018:Tournoi n°18081 tartu(1680)-artistepeintre(1520):1-0
16/05/2018:Tournoi n°18116 jazzzz(1970)-patau(1810):1-0
16/05/2018:Eq:Les Gens du Sud-les chics capons : emmanuel(1940)-lepich(1790):1-0
16/05/2018:Eq:Royal Kids-les chics capons : skalfa(1750)-kendo2d(1860):0-1
16/05/2018:Eq:Les Corsaires de Lechiquier-les grenades : z1000(2710)-herakles(2110):1-0
16/05/2018:Eq:LES CHATTERBOX-Danielsen City : hilts(2160)-patau(1800):1-0
16/05/2018:Coupe Niveau 2 bubblegum(1800)-patau(1780):1-0
16/05/2018:Défi jojo91(1420)-temistocles(1410):1-0
16/05/2018:Défi patau(1810)-mandrak(1640):1-0
16/05/2018:Défi nassim(1799)-bb7553(1820):1-0
16/05/2018:Défi joel(1420)-pierrejean(1440):0-1
16/05/2018:Défi anumisme(1420)-tootsienet(1020):1-0
16/05/2018:Défi cortaz(1810)-pgo(1620):1-0
16/05/2018:Défi pivoine78(1160)-raymon(1350):0-1
16/05/2018:Défi tal77(2340)-eltche(2470):0-1
16/05/2018:Défi roidechecs(1190)-alena1(1810):0-1
16/05/2018:Défi aigle12(1440)-temistocles(1450):1-0
16/05/2018:Défi cortaz(1750)-mokanne(1560):1-0
16/05/2018:Défi jazzzz(1930)-morloch(1900):0-1
16/05/2018:Défi lopocompris(1099)-ys07(1310):0-1
16/05/2018:Défi patau(1750)-poireau(1780):1-0
16/05/2018:Défi kaspadesbrik(1820)-lecouz(1680):1-0
16/05/2018:Défi cortaz(1770)-doudou(1620):1-0
16/05/2018:Défi anumisme(1430)-laetitia67(1420):1-0
16/05/2018:Défi bassdark(2100)-regor(2020):1-0
16/05/2018:Anglosaxonneleretour intrigue(1630)-fly(2000):0-1
16/05/2018:Boum sur la Noteboom fly(2010)-tartu(1680):1/2-1/2
16/05/2018:pour le plaisir61 intrigue(1600)-petitlulu64(1620):0-1
16/05/2018:Open des ponts de mai yyyg(1670)-pgo(1670):1-0
16/05/2018:Pour le plaisir 65 petitlulu64(1640)-pgo(1650):0-1
16/05/2018:Tournoi échelle division 3 gregmasten(1280)-jlr(1520):1-0
16/05/2018:Tournoi n°18038 desaintfegor(1800)-patau(1810):1-0
16/05/2018:Tournoi n°18021 nogean(1590)-wenoketo(1580):1-0
16/05/2018:Tournoi n°18067 sysy2014(1450)-owow44(1499):1-0
16/05/2018:Tournoi n°18148 laurent69001(1280)-epervier14(1470):0-1
16/05/2018:Tournoi n°18148 katastrofic(1470)-laurent69001(1280):1-0
16/05/2018:Tournoi n°18170 ghostdog(1640)-fredoparis(1620):0-1
16/05/2018:Eq:Les Gens du Sud-Vikings : verson(1860)-cobraxx10(2120):1-0
16/05/2018:Défi owow44(1399)-pierrejean(1450):1-0
16/05/2018:Défi joel(1420)-gwada50(1290):1-0
16/05/2018:Défi azur(1590)-prince(1770):0-1
16/05/2018:Défi christie(1380)-bastien1(1369):0-1
16/05/2018:Défi patau(1800)-tiounet(1600):0-1
16/05/2018:Défi patau(1810)-thierry06(1670):1-0
16/05/2018:Défi jpjay(1770)-cortaz(1770):1-0
16/05/2018:Défi maluel(1600)-lecevenol(1370):1-0
16/05/2018:pour le plaisir61 tartu(1690)-petitlulu64(1620):1/2-1/2
16/05/2018:pour le plaisir61 zozo(1670)-petitlulu64(1620):1-0
16/05/2018:L Espagnole selon Marshall dragon(1890)-uji40(1590):0-1
16/05/2018:Tournoi échelle division 1 verson(1820)-domenico(1800):0-1
16/05/2018:Tournoi n°18128 jhz(1519)-dragon(1890):0-1
16/05/2018:Tournoi n°18073 brettsinclair(1840)-emmanuel(1970):0-1
16/05/2018:Tournoi n°18097 mokanne(1550)-epervier14(1500):1-0
16/05/2018:Tournoi n°18136 nassim(1799)-ghostdog(1620):1-0
16/05/2018:Tournoi n°18082 lepich(1770)-tiounet(1620):0-1
16/05/2018:Tournoi n°18073 oranmore(1950)-brettsinclair(1830):1-0
16/05/2018:Tournoi n°18075 lamagouille(1630)-oliver5(1700):0-1
16/05/2018:Tournoi n°18113 lantana(1300)-bastien1(1260):0-1
16/05/2018:Tournoi n°18144 mimie(1680)-zozo(1640):1-0
16/05/2018:Eq:les modestes-Les Corsaires de Lechiquier : valentinov(2750)-mohamedramdane(2780):1/2-1/2
16/05/2018:Eq:Pirates du Mat-Les Corsaires de Lechiquier : fredelebouric12(2550)-alizarine(2350):1-0
16/05/2018:Eq:les modestes-Danielsen City : mpatruyo(2320)-eanouis(2080):1-0
16/05/2018:Coupe Niveau 2 yatman(2000)-biquet(1890):1-0
16/05/2018:Coupe Niveau 1 graffenstaden(2030)-verson(1850):1-0
16/05/2018:Coupe Niveau 1 dragon(1890)-bastien1(1290):1-0
16/05/2018:Coupe Niveau 1 elghribi(1960)-bastien1(1280):1-0
16/05/2018:Défi bilitis(1810)-elghribi(1980):0-1
16/05/2018:Défi superman(1730)-aramis(1750):1-0
16/05/2018:Défi fisher(1610)-wenoketo(1560):1-0
16/05/2018:Défi garlik(1970)-biquet(1850):1-0
16/05/2018:Défi anumisme(1420)-pitchoune50(1210):1-0
16/05/2018:Défi anumisme(1430)-c0d3(999):1-0
16/05/2018:Défi intrigue(1640)-roquefort(1970):1-0
16/05/2018:Défi xercott(1730)-bouffon(1950):1-0
16/05/2018:Défi neddy(1130)-joelcouturier(1190):0-1
16/05/2018:Défi serjo(1300)-roidechecs(1240):1-0
16/05/2018:Défi leya(1700)-tomislav(1750):0-1
16/05/2018:Défi anglais(1680)-papymiche(1710):0-1
16/05/2018:Défi maya24(1590)-scarfield(1830):0-1
16/05/2018:Défi biquet(1850)-ryba(1940):0-1
16/05/2018:Défi turbo(1540)-owow44(1399):1-0
16/05/2018:Défi salut(1900)-kartush(2080):0-1
16/05/2018:Défi hberlioz(1630)-pascalou50(1790):0-1
16/05/2018:Défi wenoketo(1600)-cortaz(1770):0-1
16/05/2018:Défi zozo(1650)-ascensseur(1550):1-0
16/05/2018:Défi bastien1(1280)-pitchoune50(1190):0-1
16/05/2018:Défi pascalou50(1790)-pitchoune50(1200):1-0
16/05/2018:Noël 2017 n°1 alizarine(2350)-buats007(2720):0-1
16/05/2018:2200 2600 n°1 nunnmiles(2540)-lekaribou(2370):1/2-1/2
16/05/2018:Gisèle 37 legrillon(1680)-connecticcut(1770):1-0
16/05/2018:L Espagnole selon Marshall uji40(1590)-intrigue(1630):1-0
16/05/2018:wild karkaskat(2100)-pgo(1670):1-0
16/05/2018:wild zozo(1620)-karkaskat(2100):0-1
16/05/2018:wild karkaskat(2100)-zozo(1620):0-1
16/05/2018:Jeanmichelle karkaskat(2100)-ponyboy(1450):1-0
16/05/2018:Tournoi échelle division 3 bastien1(1230)-dpcarballo(2140):0-1
16/05/2018:Tournoi n°18104 legrillon(1680)-vvvv(1620):0-1
16/05/2018:Tournoi n°18093 magyar(1530)-panchoa(1510):0-1
16/05/2018:Eq:les grenades-O fou d hello : yab414(1590)-thebigchief(2070):0-1
16/05/2018:Eq:les modestes-Danielsen City : mpatruyo(2330)-eanouis(2090):1-0
16/05/2018:Coupe Niveau 2 senegaulois(1920)-jlr(1420):1-0
16/05/2018:Coupe Niveau 2 tiounet(1630)-senegaulois(1940):0-1
16/05/2018:Coupe Niveau 3 retraite53(2130)-elghribi(1960):1-0
16/05/2018:Défi maitreabord(2770)-anderssen(2430):1-0
16/05/2018:Défi mimie(1670)-patau(1790):0-1
16/05/2018:Défi kerenor(1590)-laurent69001(1260):1-0
16/05/2018:Défi cortaz(1750)-bibisept(1870):0-1
16/05/2018:Défi anumisme(1450)-zachilan(1340):1-0
16/05/2018:Défi patau(1800)-mathador93(1460):1-0
16/05/2018:Jeanmichelle mathador93(1440)-leet(1780):0-1
16/05/2018:Jeanmichelle leet(1780)-mathador93(1440):1-0
16/05/2018:Tournoi échelle division 3 cineyxp(2040)-clafouti(2009):0-1
17/05/2018:Tournoi n°18111 alena1(1800)-leredoutable(1630):1-0
17/05/2018:Défi ghostdog(1620)-cortaz(1750):1-0
17/05/2018:Rapide biquet(1670)-lepiton(1590):0-1
17/05/2018:Rapide yab414(1240)-coyotov(1290):1-0
17/05/2018:Défi tomislav(1760)-asvel69(1740):1-0
17/05/2018:Eq:O fou d hello-Pirates du Mat : rackam(2090)-boucher28(1540):1-0
17/05/2018:Tournoi n°18163 coyotov(1630)-doudou(1660):0-1
17/05/2018:Tournoi n°18126 simer(1710)-1thibou(1740):1-0
17/05/2018:Tournoi n°18081 artistepeintre(1510)-pilouface(1450):1-0
17/05/2018:Tournoi n°18082 verson(1850)-lepich(1770):1-0
17/05/2018:Tournoi n°18121 verson(1820)-patau(1800):1-0
17/05/2018:Coupe Niveau 2 legros(1710)-retraite53(2080):0-1
17/05/2018:Défi domisol(1510)-temistocles(1410):1-0
17/05/2018:Défi dan84(1440)-jlouism(1510):0-1
17/05/2018:Défi vvvv(1700)-cloclo(1810):1/2-1/2
17/05/2018:Défi asvel69(1730)-kaspadesbrik(1820):1-0
17/05/2018:Défi temistocles(1410)-pierrejean(1470):1-0
17/05/2018:Défi thierry22(1610)-patau(1790):0-1
17/05/2018:Défi sergiodevienne(1760)-cortaz(1750):1-0
17/05/2018:Défi matsonic(1910)-morloch(1880):0-1
17/05/2018:Défi pasq60(1160)-mdc(1730):0-1
17/05/2018:L Espagnole selon Marshall blackbishop(1870)-dragon(1890):0-1
17/05/2018:Parties ouvertes e4 e5 fly(1990)-flmnh(1770):1-0
17/05/2018:Le vieux Roi 12 tiounet(1660)-ascensseur(1550):1-0
17/05/2018:Le vieux Roi 12 ascensseur(1550)-tiounet(1660):0-1
17/05/2018:Le vieux Roi 12 zozo(1630)-ascensseur(1550):1-0
17/05/2018:Le vieux Roi 12 ascensseur(1550)-zozo(1630):0-1
17/05/2018:Le vieux Roi 12 ascensseur(1550)-legrillon(1710):0-1
17/05/2018:Le vieux Roi 12 ascensseur(1550)-turbo(1490):0-1
17/05/2018:albatros14 tiounet(1680)-legrillon(1710):0-1
17/05/2018:Tournoi n°18166 patau(1840)-verson(1840):1-0
17/05/2018:Tournoi n°18066 nicodemouscron(2170)-u27940(2000):0-1
17/05/2018:Tournoi n°18166 verson(1840)-jazzzz(1950):0-1
17/05/2018:Tournoi n°18173 verson(1840)-thomas(1660):0-1
17/05/2018:Eq:Royal Kids-les chics capons : kendo2d(1860)-skalfa(1750):1-0
17/05/2018:Eq:cotenstock-Mission Impossible : eldiablo90(2820)-akkullanu(2640):1/2-1/2
17/05/2018:Eq:Les Quebecois-Les Corsaires de Lechiquier : unsingeenhiver(2500)-flmnh(1710):1-0
17/05/2018:Eq:Les Corsaires de Lechiquier-Les Gens du Sud : buats007(2690)-verson(1840):1-0
17/05/2018:Défi ohnopleyel(1460)-hoturane(999):1-0
17/05/2018:Défi patau(1800)-bezug66(1770):0-1
17/05/2018:Défi ohnopleyel(1490)-nathalie(999):1-0
17/05/2018:Défi alain84(1720)-jyf(1840):0-1
17/05/2018:Défi anumisme(1410)-fenixor(999):1-0
17/05/2018:Défi alain34(2180)-jimi50(1910):1-0
17/05/2018:Défi kirkiwi(999)-tootsienet(1040):0-1
17/05/2018:Tournoi n°18090 berthe(1800)-upsalin(1890):0-1
17/05/2018:Tournoi n°18044 holyhour(1640)-azur(1630):0-1
17/05/2018:Tournoi n°18098 magyar(1540)-gonzok67(1680):0-1
17/05/2018:Tournoi n°18034 oscar(2330)-hachevitch(2470):1/2-1/2
17/05/2018:Tournoi n°18117 arno(1670)-patau(1800):0-1
17/05/2018:Tournoi n°18117 jipepe(1710)-papillon22(1820):0-1
17/05/2018:Eq:les modestes-Danielsen City : izemassalas(2680)-azerty1(2220):1-0
17/05/2018:Eq:Mission Impossible-les chics capons : joel(1400)-lepich(1790):1-0
17/05/2018:Eq:Pirates du Mat-Les Gens du Sud : philou(1870)-harrypotter(1730):1/2-1/2
17/05/2018:Eq:Pirates du Mat-Vikings : cobraxx10(2120)-blutch70(2260):0-1
17/05/2018:Eq:LA CITE ARDENTE-Les Seigneurs de l Atlantide : capitaine(2050)-hachevitch(2480):0-1
17/05/2018:Coupe Niveau 3 janolapin(1910)-jlr(1490):1-0
17/05/2018:Défi gervaise(1090)-titit1(1260):0-1
17/05/2018:Défi claudus(1680)-dan84(1440):1-0
17/05/2018:Défi kaspadesbrik(1810)-cineyxp(2030):1-0
17/05/2018:Défi anumisme(1420)-gina(1370):1-0
17/05/2018:Défi asvel69(1730)-fragol(1760):0-1
17/05/2018:Défi pascalou50(1790)-pitchoune50(1200):1-0
17/05/2018:La Française qui avance bis flmnh(1750)-spectre(1760):1/2-1/2
17/05/2018:L Espagnole selon Marshall tiounet(1670)-dragon(1890):0-1
17/05/2018:L Espagnole selon Marshall dragon(1890)-tiounet(1670):1-0
17/05/2018:Francaise avec e5 karkaskat(2100)-dpcarballo(1859):0-1
17/05/2018:Francaise avec e5 dpcarballo(1859)-flmnh(1720):1-0
17/05/2018:portes ouvertes en Espagnol spectre(1770)-flmnh(1720):1-0
17/05/2018:Le vieux Roi 12 ascensseur(1550)-roschecx(1650):0-1
17/05/2018:Le vieux Roi 12 turbo(1490)-ascensseur(1550):1-0
17/05/2018:Tournoi échelle division 1 salut(1900)-domenico(1800):1-0
17/05/2018:Tournoi échelle division 2 tumultusgallicus(1390)-fredbauduret(1980):0-1
17/05/2018:Tournoi n°18042 mistralgagnant(1970)-desaintfegor(1800):0-1
17/05/2018:Tournoi n°17986 patau(1810)-legrillon(1690):1-0
17/05/2018:Tournoi n°18080 vvvv(1630)-legrillon(1690):0-1
17/05/2018:Tournoi n°18094 mistralgagnant(1980)-fredbauduret(1960):0-1
17/05/2018:Tournoi n°18075 oliver5(1670)-zozo(1630):1-0
17/05/2018:Tournoi n°18085 legrillon(1690)-patau(1750):0-1
17/05/2018:Tournoi n°18083 magyar(1530)-qsdmlk(1580):0-1
17/05/2018:Tournoi n°18107 owow44(1499)-magyar(1510):1-0
17/05/2018:Tournoi n°18110 legrillon(1650)-coyotov(1630):1-0
17/05/2018:Tournoi n°18125 zax(1990)-uliczny(1940):1/2-1/2
17/05/2018:Tournoi n°18168 artistepeintre(1530)-coyotov(1620):1-0
17/05/2018:Eq:les modestes-Les Corsaires de Lechiquier : levelmax(2800)-sherezo(2830):1/2-1/2
17/05/2018:Coupe Niveau 3 verson(1870)-dpcarballo(2090):0-1
17/05/2018:Défi ramo(1780)-nassim(1799):0-1
17/05/2018:Défi wenoketo(1580)-tryphon(1560):1-0
17/05/2018:Défi crocro34(1569)-baloo(1570):0-1
17/05/2018:Défi lilou(1440)-pascalou50(1790):0-1
17/05/2018:Défi bilitis(1800)-jpjay(1770):1-0
17/05/2018:Défi bastien1(1260)-tootsienet(1010):1-0
17/05/2018:Gisèle 37 connecticcut(1770)-legrillon(1680):1-0
17/05/2018:Gisèle 37 pgo(1660)-karkaskat(2100):0-1
17/05/2018:Les cloches pgo(1680)-zorglub42(1930):0-1
17/05/2018:Fou de la reine zozo(1630)-pgo(1630):1-0
17/05/2018:Tournoi échelle division 2 uji40(1590)-tumultusgallicus(1390):1-0
17/05/2018:Tournoi échelle division 2 tumultusgallicus(1390)-clafouti(2030):0-1
17/05/2018:Tournoi n°18165 verson(1840)-simer(1730):1-0
17/05/2018:Tournoi n°18165 simer(1730)-upsalin(1900):1-0
17/05/2018:Tournoi n°17977 hilts(2120)-rvsinovitch(2040):1-0
17/05/2018:Tournoi n°18091 leredoutable(1630)-upsalin(1880):0-1
17/05/2018:Tournoi n°18107 buzz84(1450)-owow44(1499):0-1
17/05/2018:Tournoi n°18010 mistralgagnant(1960)-willkommen54(1970):1/2-1/2
17/05/2018:Tournoi n°18082 fooy33(1890)-lepich(1770):1-0
17/05/2018:Tournoi n°18117 arno(1660)-jipepe(1710):1-0
17/05/2018:Tournoi n°18121 juantonio(1770)-verson(1820):1-0
17/05/2018:Tournoi n°18118 epervier14(1470)-katastrofic(1460):0-1
17/05/2018:Tournoi n°18121 mayaapof(1700)-verson(1810):0-1
17/05/2018:Tournoi n°18143 simer(1720)-leredoutable(1660):1-0
17/05/2018:Tournoi n°18148 sergesee(1349)-laurent69001(1280):1-0
17/05/2018:Tournoi n°18173 simer(1730)-leredoutable(1660):0-1
17/05/2018:Tournoi n°18180 verson(1780)-simer(1740):1/2-1/2
17/05/2018:Eq:les modestes-cotenstock : izemassalas(2660)-alain64(2160):1-0
17/05/2018:Eq:Les Quebecois-les grenades : mayaapof(1670)-thebigchief(2090):0-1
17/05/2018:Eq:Les Gens du Sud-Les Quebecois : emmanuel69(1790)-mayaapof(1650):1-0
17/05/2018:Coupe Niveau 1 pascalou50(1790)-verson(1830):1-0
17/05/2018:Défi jlouism(1540)-colyoun(1550):0-1
17/05/2018:Défi cortaz(1760)-kiki38(1450):1-0
17/05/2018:Défi bastien1(1260)-anumisme(1440):1-0
17/05/2018:Défi intrigue(1640)-superman(1730):0-1
17/05/2018:Défi mc2108(1090)-bastien1(1290):0-1
17/05/2018:Défi buzz84(1510)-perepeinard34(1280):1-0
17/05/2018:Défi anumisme(1430)-largo(999):1-0
17/05/2018:Défi nicodemouscron(2150)-kaspi007(2100):1/2-1/2
17/05/2018:Défi intrigue(1640)-ramo(1790):0-1
17/05/2018:Défi siger72(1290)-anumisme(1450):0-1
17/05/2018:Défi bastien1(1290)-pitchoune50(1200):0-1
17/05/2018:Printemps 2018 n°3 saruman(1680)-sampiero2a(1330):1-0
17/05/2018:pour le plaisir61 turbo(1490)-petitlulu64(1620):0-1
17/05/2018:Francaise avec e5 tiounet(1630)-pitouwb(1710):0-1
17/05/2018:Le vieux Roi 12 intrigue(1640)-ascensseur(1550):1-0
17/05/2018:Le vieux Roi 12 ascensseur(1550)-intrigue(1640):0-1
17/05/2018:Le vieux Roi 12 legrillon(1710)-ascensseur(1550):1-0
17/05/2018:Tournoi n°17563 colyoun(1480)-yyyg(1499):1/2-1/2
17/05/2018:Tournoi n°18133 jhz(1519)-legrillon(1680):0-1
17/05/2018:Tournoi n°18103 domenico(1800)-scarfield(1800):0-1
17/05/2018:Tournoi n°18128 jhz(1519)-leet(1790):0-1
17/05/2018:Tournoi n°18011 ales17(1970)-luckyluc(2010):1/2-1/2
17/05/2018:Tournoi n°18045 bubblegum(1810)-verson(1840):0-1
17/05/2018:Tournoi n°18088 domisol(1540)-oliver5(1700):0-1
17/05/2018:Tournoi n°18127 leet(1790)-jhz(1809):1-0
17/05/2018:Eq:Mission Impossible-Danielsen City : eanouis(2080)-afeyte(1720):1-0
17/05/2018:Eq:Les Quebecois-O fou d hello : yab414(1560)-perepeinard34(1260):1-0
17/05/2018:Eq:les grenades-Royal Kids : pgo(1620)-zax(2020):0-1
17/05/2018:Coupe Niveau 1 bubblegum(1810)-elghribi(1980):0-1
17/05/2018:Coupe Niveau 2 verson(1850)-jhz(1810):1-0
17/05/2018:Défi felin(1750)-berjay(1710):0-1
17/05/2018:Défi nef1(1330)-kerenor(1600):1-0
17/05/2018:Défi plecocq357(2260)-bibisept(1860):1-0
17/05/2018:Défi tootsienet(1020)-marco858(999):0-1
17/05/2018:Défi mokanne(1580)-gilberthellemans(1610):0-1
17/05/2018:Défi cathy17(1040)-gaspard83(1520):0-1
17/05/2018:Défi tian(1330)-kerenor(1590):0-1
17/05/2018:Défi cloclo(1800)-bubblegum(1800):1-0
17/05/2018:Défi jmjustice(1580)-temistocles(1410):0-1
17/05/2018:Défi cathy17(1070)-chaton(1000):1-0
17/05/2018:Défi bigoudi(1000)-anumisme(1460):0-1
17/05/2018:Défi tomislav(1780)-pascalou50(1790):1-0
17/05/2018:Défi gobois(1670)-roschecx(1680):1-0
17/05/2018:Défi vvvv(1660)-calcedoine(1880):0-1
17/05/2018:Défi anumisme(1420)-gina(1380):0-1
17/05/2018:Défi maluel(1600)-hberlioz(1630):1-0
17/05/2018:Mémoire à David Bowie n°1 yyyg(1720)-fly(1910):0-1
17/05/2018:Memorial Lara XXX yyyg(1660)-fly(1940):0-1
17/05/2018:Et une Grunfeld une karkaskat(1980)-crca(1850):1-0
17/05/2018:Gisèle 37 legrillon(1680)-karkaskat(2100):0-1
17/05/2018:La Française qui avance bis yyyg(1580)-karkaskat(2130):0-1
17/05/2018:Mario et Luigi 47 mathador93(1450)-bastien1(1300):1-0
17/05/2018:Mario et Luigi 47 intrigue(1630)-mathador93(1450):1-0
17/05/2018:Jeanmichelle karkaskat(2100)-bubblegum(1810):1-0
17/05/2018:Open des ponts de mai alizarine(2390)-marmotte50(1990):1-0
17/05/2018:Le vieux Roi 12 ascensseur(1550)-yab414(1620):0-1
17/05/2018:coupe biquetoces mequinho(1820)-ascensseur(1620):1-0
17/05/2018:coupe biquetoces ascensseur(1620)-mequinho(1820):0-1
18/05/2018:Rapide pherce(1780)-salut(1620):1-0
18/05/2018:honolulu ptitefrez(2000)-brettsinclair(1790):1-0
18/05/2018:Tournoi échelle division 2 alena1(1810)-clafouti(2080):0-1
18/05/2018:Défi kawa750(1560)-steph65(1590):1-0
18/05/2018:Tournoi n°18034 oscar(2330)-breitenbach(2340):1-0
18/05/2018:Défi bilitis(1820)-cloclo(1840):1-0
18/05/2018:Tournoi n°18053 tartu(1690)-anibalou(1480):1-0
18/05/2018:Tournoi n°18027 tartu(1700)-patau(1780):0-1
18/05/2018:Eq:Les Gens du Sud-Royal Kids : verson(1840)-uliczny(1930):1/2-1/2
18/05/2018:Défi jimi50(1920)-hberlioz(1620):0-1
18/05/2018:Défi kaspy(1980)-apocalypce(1790):1-0
18/05/2018:Défi hoturane(999)-tetene(1740):0-1
18/05/2018:Défi stseb(1850)-trueman(1870):0-1
18/05/2018:Défi jeanluc88(2190)-marieange88(1480):1-0
18/05/2018:Défi sergiodevienne(1760)-ascensseur(1540):1-0
18/05/2018:Pour le plaisir 65 lecevenol(1390)-bastien1(1260):0-1
18/05/2018:Fou de la reine tiounet(1660)-zozo(1630):1-0
18/05/2018:Fou de la reine pgo(1630)-zozo(1630):1-0
18/05/2018:Tournoi échelle division 2 linselleschti(1570)-jlouism(1530):0-1
18/05/2018:Tournoi n°18104 vvvv(1620)-doudou(1630):1-0
18/05/2018:Tournoi n°18000 afeyte(1700)-wenoketo(1580):0-1
18/05/2018:Tournoi n°17789 chomi64(1970)-rvsinovitch(2010):1-0
18/05/2018:Tournoi n°18099 verson(1860)-mistralgagnant(1980):0-1
18/05/2018:Tournoi n°18147 tiounet(1620)-arno(1610):1/2-1/2
18/05/2018:Tournoi n°18170 fredoparis(1640)-verson(1820):1-0
18/05/2018:Eq:Les Corsaires de Lechiquier-London : rvsinovitch(2010)-blitzman(2660):0-1
18/05/2018:Eq:Les Gens du Sud-Royal Kids : uliczny(1930)-verson(1840):1/2-1/2
18/05/2018:Défi flo19(1400)-jm29(1530):0-1
18/05/2018:Défi pj612(1830)-tartu(1660):1-0
18/05/2018:Défi epervier14(1470)-tartu(1620):1-0
18/05/2018:honolulu verson(1810)-yyyg(1670):0-1
18/05/2018:La Française qui avance bis yyyg(1580)-blackbishop(1810):1-0
18/05/2018:L Espagnole selon Marshall intrigue(1630)-blackbishop(1870):0-1
18/05/2018:Pion de sa gente dame intrigue(1600)-tartu(1630):1/2-1/2
18/05/2018:Tournoi échelle élite volatile(2500)-chronik(2130):1-0
18/05/2018:Tournoi échelle division 1 kaspadesbrik(1800)-daniel1(1720):0-1
18/05/2018:Tournoi n°18146 vvvv(1660)-kala(1880):1-0
18/05/2018:Tournoi n°18164 leet(1800)-verson(1860):1-0
18/05/2018:Tournoi n°17919 hipyacine(1800)-manulatus(1850):0-1
18/05/2018:Tournoi n°18058 baranowsky(1730)-ghostdog(1650):1-0
18/05/2018:Tournoi n°18072 kaiser69(1650)-petrovich(1640):0-1
18/05/2018:Eq:La Crim Team-Les diplomates : zincou75(2090)-fabio985(1850):1-0
18/05/2018:Eq:La Crim Team-Les diplomates : fabio985(1850)-zincou75(2090):0-1
18/05/2018:Coupe Niveau 1 pitouwb(1680)-clafouti(1809):0-1
18/05/2018:Coupe Niveau 3 cereus69300(2130)-abc47(2070):1-0
18/05/2018:Coupe Niveau 5 retraite53(2160)-guig47(2060):1-0
18/05/2018:Coupe Niveau 3 dpcarballo(2110)-patau(1760):1-0
18/05/2018:Défi hoturane(999)-roger72(1490):0-1
18/05/2018:Défi jyf(1810)-patau(1850):1-0
18/05/2018:Défi oxteball(1449)-hberlioz(1690):0-1
18/05/2018:Défi ngeorget(2480)-bekheira(2160):1-0
18/05/2018:Défi abc47(2110)-feudevorant(1900):1-0
18/05/2018:Défi castor(1390)-maluel(1600):0-1
18/05/2018:Défi laurent69001(1280)-fisher22(2009):0-1
18/05/2018:Le vieux Roi 10 roschecx(1590)-yyyg(1630):0-1
18/05/2018:Fou de la reine pgo(1630)-tiounet(1660):1/2-1/2
18/05/2018:Tournoi échelle division 1 verson(1850)-spectre(1820):0-1
18/05/2018:Tournoi échelle champions elghribi(1960)-salut(1920):1-0
18/05/2018:Tournoi n°18105 katastrofic(1460)-epervier14(1490):1-0
18/05/2018:Tournoi n°18158 katastrofic(1470)-epervier14(1470):1-0
18/05/2018:Tournoi n°18049 magyar(1530)-jmjustice(1580):0-1
18/05/2018:Tournoi n°18069 baranowsky(1740)-brettsinclair(1840):0-1
18/05/2018:Tournoi n°18088 oliver5(1670)-ffred(1510):1-0
18/05/2018:Tournoi n°18110 magyar(1510)-coyotov(1630):0-1
18/05/2018:Coupe Niveau 8 pournelle(2670)-blitzman(2680):1-0
18/05/2018:Coupe Niveau 1 polo68(1609)-dpcarballo(1859):0-1
18/05/2018:Défi zayka(1830)-jimi50(1920):1-0
18/05/2018:Défi kaspy(1970)-bira47(1860):1-0
18/05/2018:Défi homer31(1730)-berjay(1710):0-1
18/05/2018:Défi bastien1(1340)-fhr(1070):1-0
18/05/2018:Défi cortaz(1790)-zozo(1640):0-1
18/05/2018:Défi moi50(1840)-regor(2020):0-1
18/05/2018:Défi bastien1(1290)-pitchoune50(1210):0-1
18/05/2018:Pour le plaisir 65 petitlulu64(1640)-tiounet(1630):1-0
18/05/2018:2200 2600 n°1 lekaribou(2370)-fredelebouric12(2550):0-1
18/05/2018:pour le plaisir61 petitlulu64(1620)-tiounet(1710):0-1
18/05/2018:Gisèle 37 karkaskat(2100)-pgo(1660):1-0
18/05/2018:Les cloches ptitefrez(2040)-zorglub42(1930):1-0
18/05/2018:portes ouvertes en Espagnol gregmasten(1350)-tiounet(1600):0-1
18/05/2018:Tournoi échelle division 1 patau(1800)-kartush(2070):0-1
18/05/2018:Tournoi n°18138 jhz(1519)-legrillon(1680):1-0
18/05/2018:Tournoi n°17854 vickort(2390)-terrifiant(2400):1/2-1/2
18/05/2018:Tournoi n°18065 jlr(1510)-kiki37(1360):1-0
18/05/2018:Tournoi n°17970 rons(2520)-pournelle(2670):1/2-1/2
18/05/2018:Tournoi n°18123 lantana(1290)-c0d3(1089):1-0
18/05/2018:Eq:les modestes-Pirates du Mat : mohamedramdane(2740)-volatile(2510):1/2-1/2
18/05/2018:Défi superman(1730)-pascalou50(1790):0-1
18/05/2018:Défi pascalou50(1790)-ratzi(2040):1-0
18/05/2018:Défi simer(1710)-jconetti(1710):1-0
18/05/2018:Défi zatopek(1580)-julie(1060):1-0
18/05/2018:Défi epervier14(1510)-katastrofic(1490):0-1
18/05/2018:Défi maitressesse(1099)-matlepuma(999):1-0
18/05/2018:Défi youliyouli(1800)-claudus(1690):1-0
18/05/2018:Défi marieclaire(1380)-minon(2050):0-1
18/05/2018:Défi mayaapof(1690)-dan84(1440):1-0
18/05/2018:Défi moi50(1840)-elghribi(1990):1-0
18/05/2018:Défi anumisme(1410)-pasq60(1150):0-1
18/05/2018:Défi tiounet(1650)-zozo(1620):1-0
18/05/2018:Défi jazzzz(1950)-pascalou50(1790):1-0
18/05/2018:Défi anumisme(1390)-pitchoune50(1200):1-0
18/05/2018:Défi pascalou50(1790)-pitchoune50(1210):1-0
18/05/2018:Pour le plaisir 65 pgo(1650)-petitlulu64(1640):0-1
18/05/2018:L Espagnole selon Marshall intrigue(1630)-uji40(1590):0-1
18/05/2018:L Espagnole selon Marshall tiounet(1670)-uji40(1590):0-1
18/05/2018:Les cloches vachefolle(1960)-zorglub42(1930):1-0
18/05/2018:Les cloches bazart(1940)-zorglub42(1930):1-0
18/05/2018:Pion de sa gente dame tartu(1630)-intrigue(1600):1/2-1/2
18/05/2018:coupe biquetoces bazart(2010)-mequinho(1820):1-0
18/05/2018:coupe biquetoces vachefolle(2010)-mequinho(1820):1-0
18/05/2018:Tournoi échelle division 3 desmoulins(2590)-bastien1(1280):1-0
18/05/2018:Tournoi n°18040 karadayi(1530)-panchoa(1510):0-1
18/05/2018:Tournoi n°18092 katastrofic(1470)-pierrejean(1450):1-0
18/05/2018:Tournoi n°18158 paradoxos00(1469)-katastrofic(1470):1-0
18/05/2018:Tournoi n°18065 cicerond(1410)-mathildedn(1390):1-0
18/05/2018:Tournoi n°18056 xercott(1730)-vvvv(1630):0-1
18/05/2018:Tournoi n°18118 katastrofic(1460)-mathildedn(1410):1-0
18/05/2018:Tournoi n°18163 katastrofic(1470)-coyotov(1630):0-1
18/05/2018:Tournoi n°18145 thierry06(1670)-legrillon(1700):0-1
18/05/2018:Tournoi n°18130 loco11(1900)-verson(1860):0-1
18/05/2018:Tournoi n°18165 patau(1780)-simer(1730):0-1
18/05/2018:Défi nassim(1799)-koi34(1840):1-0
18/05/2018:Défi zatopek(1590)-scarfield(1780):0-1
18/05/2018:Défi naxomi(1499)-aigle12(1420):1-0
18/05/2018:Défi marcol(1150)-joelcouturier(1190):0-1
18/05/2018:Défi hberlioz(1620)-pourquoipas(1480):0-1
18/05/2018:Gisèle 37 turbo(1510)-karkaskat(2100):0-1
18/05/2018:Le vieux Roi 12 johannes03(1690)-ascensseur(1550):1-0
18/05/2018:Le vieux Roi 12 yab414(1620)-ascensseur(1550):1-0
19/05/2018:Tournoi n°17775 thierry7ardeche(2010)-bobo(2240):0-1
19/05/2018:Défi jyf(1830)-bilitis(1800):0-1
19/05/2018:Rapide ryba(1560)-kaspadesbrik(1570):1-0
19/05/2018:Rapide lepiton(1590)-jhz(1899):0-1
19/05/2018:Rapide kaspadesbrik(1570)-foxie519(1410):1-0
19/05/2018:Le vieux Roi 12 roschecx(1650)-ascensseur(1550):1-0
19/05/2018:albatros14 tiounet(1680)-pgo(1640):0-1
19/05/2018:albatros14 pgo(1640)-tiounet(1680):0-1
19/05/2018:Fou de la reine tiounet(1660)-pgo(1630):0-1
19/05/2018:Tournoi échelle division 3 bam333(1499)-jpmr(1570):1-0
19/05/2018:Tournoi n°18091 leredoutable(1630)-clemm(1680):0-1
19/05/2018:Tournoi n°18173 simer(1730)-ghostdog(1640):1-0
19/05/2018:Défi gognol(1790)-anibalou(1480):1-0
19/05/2018:Coupe Niveau 6 scroff(2710)-schnibble(2370):1-0
19/05/2018:Tournoi n°18105 epervier14(1490)-jlr(1490):0-1
19/05/2018:Tournoi n°18158 epervier14(1470)-paradoxos00(1469):0-1
19/05/2018:Tournoi n°18165 scarfield(1770)-verson(1840):1/2-1/2
19/05/2018:Tournoi n°18127 petrovich(1660)-tartu(1690):1-0
19/05/2018:Tournoi n°18150 bezug66(1790)-leredoutable(1650):1-0
19/05/2018:Tournoi n°18033 mazdaroket(2020)-hilts(2140):0-1
19/05/2018:Tournoi n°18147 lychar(1700)-verson(1860):0-1
19/05/2018:Eq:Les Gens du Sud-O fou d hello : yab414(1600)-ninaleo06(1820):0-1
19/05/2018:Défi upsalin(1900)-jpjay(1780):1-0
19/05/2018:Défi zatopek(1590)-xao(1520):1-0
19/05/2018:Défi mc2108(1100)-pivoine78(1210):0-1
19/05/2018:Défi dilou(1270)-bastien1(1260):0-1
19/05/2018:La Française qui avance bis karkaskat(2130)-flmnh(1750):1-0
19/05/2018:Francaise avec e5 flmnh(1720)-karkaskat(2100):0-1
19/05/2018:Le vieux Roi 12 ascensseur(1550)-johannes03(1690):0-1
19/05/2018:Tournoi n°17750 jetjet91330(2140)-mazdaroket(2000):1-0
19/05/2018:Tournoi n°17919 oranmore(1920)-chomi64(2010):0-1
19/05/2018:Tournoi n°18054 mage(1780)-upsalin(1860):0-1
19/05/2018:Tournoi n°18040 azur(1640)-louis67(1530):0-1
19/05/2018:Tournoi n°18079 kala(1920)-philou(1880):1-0
19/05/2018:Tournoi n°18132 kiki37(1330)-katastrofic(1450):0-1
19/05/2018:Tournoi n°18168 coyotov(1620)-ffred(1510):1-0
19/05/2018:Défi deric(1580)-clsgr2n2(999):1-0
19/05/2018:Défi jm29(1510)-noos(1490):0-1
19/05/2018:Défi deric(1580)-hoturane(999):1-0
19/05/2018:Défi fragol(1710)-superman(1730):0-1
19/05/2018:Défi upsalin(1870)-aigle12(1430):1-0
19/05/2018:Avec des joueurs sympas 2 geantvert(1700)-tiounet(1620):0-1
19/05/2018:Tournoi n°17443 vangogh(2060)-fuji972(1930):1-0
19/05/2018:Tournoi n°18146 kala(1880)-darkchossete(1800):1/2-1/2
19/05/2018:Tournoi n°17627 bnj(1890)-fly(1950):0-1
19/05/2018:Tournoi n°18139 kala(1920)-desaintfegor(1810):1-0
19/05/2018:Tournoi n°18030 didactik44(1600)-legrillon(1690):1-0
19/05/2018:Tournoi n°17953 francis95(2110)-burgman(2080):0-1
19/05/2018:Tournoi n°18032 lantana(1230)-sayrene(999):1-0
19/05/2018:Tournoi n°18165 simer(1730)-scarfield(1770):0-1
19/05/2018:Tournoi n°18165 upsalin(1900)-scarfield(1770):1-0
19/05/2018:Tournoi n°18173 verson(1800)-simer(1730):1-0
19/05/2018:Tournoi n°18171 verson(1800)-jazzzz(1960):0-1
19/05/2018:Tournoi n°18123 bastien1(1300)-lantana(1290):1-0
19/05/2018:Tournoi n°18153 gognol(1810)-tiounet(1640):1-0
19/05/2018:Eq:les modestes-Les Seigneurs de l Atlantide : chronik(2110)-berniz(2230):0-1
19/05/2018:Eq:1pur-ThalesTeam : bastien1(1260)-pozzine(1499):0-1
19/05/2018:Eq:1pur-ThalesTeam : pozzine(1499)-bastien1(1260):1-0
19/05/2018:Coupe Niveau 1 retraite53(1809)-linselleschti(1600):1-0
19/05/2018:Défi roidechecs(1170)-anumisme(1430):0-1
19/05/2018:Défi pierrejean(1450)-bonheurinterdit(1240):1-0
19/05/2018:Défi bertelsen(1650)-patau(1770):0-1
19/05/2018:Défi vvvv(1660)-pgo(1640):1-0
19/05/2018:Défi turbo(1500)-katastrofic(1460):1-0
19/05/2018:Défi roschecx(1680)-hberlioz(1640):1-0
19/05/2018:Défi bastet(1000)-anumisme(1410):0-1
19/05/2018:Défi kousso(1270)-anumisme(1420):1-0
19/05/2018:Défi temistocles(1450)-bnj(1830):0-1
19/05/2018:Défi moi50(1800)-madal222(1800):0-1
19/05/2018:Défi morloch(1890)-fisher22(1799):0-1
19/05/2018:Défi turbo(1540)-perepeinard34(1260):1-0
19/05/2018:Défi anumisme(1410)-pasq60(1160):1-0
19/05/2018:Défi bastien1(1280)-pivoine78(1190):1-0
19/05/2018:Défi anumisme(1410)-bastien1(1290):0-1
19/05/2018:Pour le plaisir 65 bastien1(1260)-lecevenol(1390):1-0
19/05/2018:L Espagnole selon Marshall tiounet(1670)-intrigue(1630):0-1
19/05/2018:Open des ponts de mai yyyg(1670)-alizarine(2390):0-1
19/05/2018:Tournoi échelle champions fly(2010)-ptitefrez(2020):1-0
19/05/2018:Tournoi échelle division 3 bigkahuna(1760)-bastien1(1250):1-0
19/05/2018:Tournoi échelle division 1 domenico(1800)-karkaskat(2080):0-1
19/05/2018:Tournoi échelle division 1 gulliver(2080)-verson(1850):1-0
19/05/2018:Tournoi n°18098 mokanne(1560)-coyotov(1610):1-0
19/05/2018:Tournoi n°17684 burgman(2100)-mazdaroket(1990):1/2-1/2
19/05/2018:Tournoi n°18179 c0d3(1049)-bastien1(1300):1-0
19/05/2018:Tournoi n°17834 willkommen54(2010)-chomi64(1960):1-0
19/05/2018:Tournoi n°17812 chomi64(1980)-verson(1860):0-1
19/05/2018:Tournoi n°18023 tiounet(1670)-selmoun(1480):1-0
19/05/2018:Tournoi n°18174 geantvert(1700)-kala(1880):0-1
19/05/2018:Tournoi n°18069 brettsinclair(1840)-lychar(1750):1-0
19/05/2018:Tournoi n°18122 uji40(1580)-coyotov(1630):0-1
19/05/2018:Eq:LA CITE ARDENTE-Pirates du Mat : osteo(2530)-volatile(2500):1/2-1/2
19/05/2018:Eq:LA CITE ARDENTE-Pirates du Mat : volatile(2500)-osteo(2530):1/2-1/2
19/05/2018:Eq:Les Corsaires de Lechiquier-Les Seigneurs de l Atlantide : gwen(1960)-unsingeenhiver(2490):0-1
19/05/2018:Eq:Les Gens du Sud-Danielsen City : verson(1880)-philippelg(2140):1/2-1/2
19/05/2018:Eq:Danielsen City-Pirates du Mat : xao(1500)-alizarine(2390):0-1
19/05/2018:Eq:les chics capons-1pur : chessgaston(2080)-dukehemon(2070):0-1
19/05/2018:Eq:CHESS MASTER-Les Gens du Sud : pj612(1810)-verson(1790):0-1
19/05/2018:Eq:CHESS MASTER-Les Gens du Sud : verson(1790)-pj612(1810):1-0
19/05/2018:Coupe Niveau 1 bastien1(1300)-c0d3(1089):1-0
19/05/2018:Coupe Niveau 1 verson(1780)-bastien1(1300):1-0
19/05/2018:Défi vvvv(1660)-gobois(1690):0-1
19/05/2018:Défi tian(1310)-zacharie(1499):0-1
19/05/2018:Défi titit1(1280)-anumisme(1410):0-1
19/05/2018:Défi den(1920)-marco858(999):1-0
19/05/2018:Défi jyf(1840)-chevalice(1690):1-0
19/05/2018:Défi manulatus(1880)-fisher22(1799):0-1
19/05/2018:Défi upsalin(1900)-morloch(1880):1-0
19/05/2018:Gisèle 37 karkaskat(2100)-turbo(1510):1-0
19/05/2018:Tournoi échelle division 2 pgo(1680)-chrislee76(2040):1-0
19/05/2018:Tournoi n°18118 epervier14(1460)-muk(1199):0-1
19/05/2018:Tournoi n°18005 intrigue(1590)-brettsinclair(1880):1-0
19/05/2018:Tournoi n°18071 manulatus(1890)-brettsinclair(1840):0-1
19/05/2018:Eq:les modestes-cotenstock : sherezo(2780)-akkullanu(2590):1/2-1/2
19/05/2018:Eq:Vikings-LES CHATTERBOX : casparuf(1500)-bistro1(1630):1-0
19/05/2018:Eq:Les Corsaires de Lechiquier-Les Gens du Sud : swallow(1980)-buats007(2690):0-1
19/05/2018:Eq:Pirates du Mat-Danielsen City : volatile(2510)-azerty1(2230):1-0
19/05/2018:Eq:Danielsen City-Les Corsaires de Lechiquier : azerty1(2230)-buats007(2690):0-1
19/05/2018:Eq:Royal Kids-Vikings : ratzi(2090)-skalfa(1730):1-0
19/05/2018:Eq:Les diplomates-Pirates du Mat : philou(1880)-mc2108(1080):1-0
19/05/2018:Défi patau(1800)-anibalou(1480):1-0
19/05/2018:Défi elghribi(1990)-zayka(1850):1/2-1/2
19/05/2018:Défi scarfield(1760)-zatopek(1610):1-0
19/05/2018:Défi anumisme(1380)-bastet(1000):1-0
19/05/2018:Défi asvel69(1740)-retraite53(1809):0-1
19/05/2018:Défi francis94(2020)-christianlabat(1919):1-0
19/05/2018:Défi wenoketo(1580)-chess54(1570):1-0
19/05/2018:Défi tartu(1620)-eric34(1599):0-1
19/05/2018:Défi blueberry(1869)-boxit(1830):1-0
19/05/2018:Défi cortaz(1800)-hberlioz(1620):1-0
19/05/2018:honolulu brettsinclair(1790)-spectre(1770):0-1
19/05/2018:Gisèle 37 spectre(1760)-karkaskat(2100):0-1
19/05/2018:L Espagnole selon Marshall blackbishop(1870)-intrigue(1630):0-1
19/05/2018:wild brettsinclair(1840)-intrigue(1650):1-0
19/05/2018:wild karkaskat(2100)-brettsinclair(1840):1-0
19/05/2018:wild brettsinclair(1840)-karkaskat(2100):0-1
19/05/2018:Le vieux Roi 12 turbo(1490)-intrigue(1640):0-1
19/05/2018:albatros14 tiounet(1680)-bigkahuna(1760):0-1
19/05/2018:Fou de la reine zozo(1630)-tiounet(1660):1/2-1/2
19/05/2018:Tournoi échelle division 2 thomas(1660)-tumultusgallicus(1390):1-0
19/05/2018:Tournoi échelle division 3 vachefolle(2020)-bastien1(1300):1-0
19/05/2018:Tournoi n°18107 magyar(1510)-selmoun(1480):1-0
19/05/2018:Tournoi n°18068 deric(1550)-magyar(1530):0-1
19/05/2018:Tournoi n°18110 magyar(1510)-legrillon(1650):0-1
19/05/2018:Tournoi n°18145 thierry06(1670)-jhz(1580):0-1
19/05/2018:Tournoi n°18149 tiounet(1640)-panchoa(1540):0-1
19/05/2018:Eq:les modestes-Pirates du Mat : volatile(2500)-sherezo(2790):1/2-1/2
19/05/2018:Eq:Vikings-Danielsen City : eanouis(2100)-tombelaine(2180):0-1
19/05/2018:Défi tiounet(1570)-gaspard83(1540):0-1
19/05/2018:Défi feudevorant(1900)-ecjc(1980):0-1
19/05/2018:Défi mokanne(1570)-roschecx(1630):1-0
19/05/2018:Défi tonio14(1410)-geantvert06(1400):0-1
19/05/2018:Défi val112006(999)-quasar999(1950):0-1
19/05/2018:Défi fredoparis(1640)-bigkahuna(1750):0-1
19/05/2018:Défi verone(2010)-fisher22(1799):1-0
19/05/2018:Défi mick(1950)-fisher22(1799):1-0
19/05/2018:Défi tiounet(1620)-bouffon(1950):0-1
19/05/2018:les pirates interne philou(1870)-blutch70(2260):0-1
19/05/2018:coupe biquetoces mequinho(1820)-estrafolis(1400):1-0
20/05/2018:Tournoi n°18148 laurent69001(1280)-amoursincere(1110):0-1
20/05/2018:Coupe Niveau 1 cereus69300(1759)-dukehemon(1499):1-0
20/05/2018:Rapide crca(1440)-scarfield(1450):1-0
20/05/2018:Rapide jhz(1949)-kaspadesbrik(1570):0-1
20/05/2018:Défi boxit(1810)-fisher22(1799):0-1
20/05/2018:Helleborus argutifolius karkaskat(1970)-crca(1860):1-0
20/05/2018:Tournoi n°18126 mojo(1730)-verson(1810):0-1
20/05/2018:Tournoi n°18047 berniz(2220)-u27940(1990):0-1
20/05/2018:Tournoi n°18053 anibalou(1480)-legrillon(1690):0-1
20/05/2018:Tournoi n°17994 arno(1700)-yann56(1770):1-0
20/05/2018:Tournoi n°18084 cicerond(1410)-nef1(1350):0-1
20/05/2018:Défi quasar999(1940)-karhu(1399):1-0
20/05/2018:Défi bigoudi(1000)-fisher22(2080):0-1
20/05/2018:Défi dan84(1440)-framar(1690):0-1
20/05/2018:Défi gambitor(1410)-minecraft(1439):0-1
20/05/2018:Défi castor(1400)-dan84(1450):0-1
20/05/2018:Défi mc2108(1060)-fisher22(2080):0-1
20/05/2018:wild intrigue(1650)-fooy33(1890):1-0
20/05/2018:Pion de sa gente dame tiounet(1650)-verson(1790):0-1
20/05/2018:Tournoi n°18141 thierry7ardeche(1980)-gulliver(2070):1-0
20/05/2018:Tournoi n°18160 scarfield(1760)-verson(1860):0-1
20/05/2018:Tournoi n°17839 philou(1860)-chrislee76(1990):1-0
20/05/2018:Tournoi n°18049 karclop(1660)-jmjustice(1580):1-0
20/05/2018:Tournoi n°18096 legros(1730)-upsalin(1880):0-1
20/05/2018:Tournoi n°18144 zozo(1630)-owow44(1669):1/2-1/2
20/05/2018:Tournoi n°18137 verson(1820)-geantvert(1730):1-0
20/05/2018:Tournoi n°18132 epervier14(1460)-katastrofic(1470):0-1
20/05/2018:Tournoi n°18129 geantvert(1710)-intrigue(1620):1-0
20/05/2018:Tournoi n°17959 philou(1870)-marmotte50(1940):1/2-1/2
20/05/2018:Tournoi n°18008 geantvert(1680)-legrillon(1660):0-1
20/05/2018:Tournoi n°18129 geantvert(1720)-tartu(1680):1-0
20/05/2018:Coupe Niveau 1 mage(1830)-dpcarballo(1859):0-1
20/05/2018:Défi apocalypce(1790)-calcedoine(1880):0-1
20/05/2018:Défi marcol(1130)-bastien1(1399):1-0
20/05/2018:Défi ryba(1950)-alain34(2190):0-1
20/05/2018:Défi perepeinard34(1270)-bastien1(1240):1-0
20/05/2018:Défi felin(1770)-chobi(1690):1-0
20/05/2018:Défi berjay(1710)-cortaz(1740):0-1
20/05/2018:Défi albescab(1530)-gilberthellemans(1570):0-1
20/05/2018:Défi roidechecs(1170)-christianlabat(1859):1-0
20/05/2018:Défi lantana(1300)-malvina(1270):0-1
20/05/2018:Défi perepeinard34(1270)-hberlioz(1660):0-1
20/05/2018:Défi hberlioz(1630)-pgo(1620):1/2-1/2
20/05/2018:albatros14 tartu(1610)-lecevenol(1370):1-0
20/05/2018:albatros14 tartu(1610)-pgo(1640):1-0
20/05/2018:albatros14 pgo(1640)-tartu(1610):0-1
20/05/2018:Pion de sa gente dame tartu(1630)-verson(1790):1-0
20/05/2018:Pion de sa gente dame verson(1790)-intrigue(1600):1-0
20/05/2018:Tournoi n°17797 johan1977(2120)-burgman(2100):0-1
20/05/2018:Tournoi n°18011 ales17(1970)-virinc(2050):0-1
20/05/2018:Eq:Danielsen City-Les Quebecois : pasctin(1950)-pionfou(1770):1/2-1/2
20/05/2018:Eq:Danielsen City-Pirates du Mat : alizarine(2390)-xao(1500):1-0
20/05/2018:Eq:CHESS MASTER-les fous de bassans : c69(1370)-vachefolle(2010):0-1
20/05/2018:Eq:CHESS MASTER-les fous de bassans : vachefolle(2010)-c69(1370):1-0
20/05/2018:Coupe Niveau 1 bastien1(1260)-jlr(1530):0-1
20/05/2018:Coupe Niveau 1 spectre(1810)-jlr(1530):1-0
20/05/2018:Défi vachefolle(2020)-bastien1(1320):1-0
20/05/2018:Défi vvvv(1670)-mayaapof(1650):1-0
20/05/2018:Défi xao(1500)-intrigue(1640):0-1
20/05/2018:Défi perepeinard34(1310)-mayaapof(1650):0-1
20/05/2018:Défi julia(1500)-roidechecs(1190):1-0
20/05/2018:Défi mayaapof(1650)-tartu(1680):0-1
20/05/2018:Défi geantvert(1700)-zozo(1640):1-0
20/05/2018:Défi vb83(1400)-jlr(1480):0-1
20/05/2018:Défi papymiche(1670)-cortaz(1800):1-0
20/05/2018:Défi bibisept(1880)-christianlabat(1859):1-0
20/05/2018:Défi mokanne(1580)-ascensseur(1560):1-0
20/05/2018:Avec des joueurs sympas 2 tiounet(1620)-geantvert(1700):0-1
20/05/2018:L Espagnole selon Marshall intrigue(1630)-tiounet(1670):1-0
20/05/2018:albatros14 tartu(1610)-tiounet(1680):0-1
20/05/2018:Pion de sa gente dame tartu(1630)-tiounet(1650):0-1
20/05/2018:Pion de sa gente dame tiounet(1650)-tartu(1630):1-0
20/05/2018:Pion de sa gente dame verson(1790)-tartu(1630):1-0
20/05/2018:Pion de sa gente dame verson(1790)-tiounet(1650):1-0
20/05/2018:Tournoi n°18166 verson(1840)-jhz(1800):1-0
20/05/2018:Tournoi n°17797 burgman(2100)-chrislee76(2020):1-0
20/05/2018:Tournoi n°18123 c0d3(999)-ak47(999):1-0
20/05/2018:Tournoi n°18161 tiounet(1670)-tartu(1620):1-0
20/05/2018:Tournoi n°18145 tartu(1600)-jhz(1820):1-0
20/05/2018:Tournoi n°18151 verson(1850)-desaintfegor(1820):0-1
20/05/2018:Tournoi n°18179 katastrofic(1490)-bastien1(1300):0-1
20/05/2018:Eq:O fou d hello-Du sucre et des vices : gonzok67(1710)-yab414(1600):1-0
20/05/2018:Défi bastet(1000)-lug(1350):0-1
20/05/2018:Défi bibisept(1860)-bonheurinterdit(1199):1-0
20/05/2018:Défi wenoketo(1560)-hugues(1540):1-0
20/05/2018:Défi moi50(1810)-seb0108(2000):1-0
20/05/2018:Défi osteo(2510)-roka(2400):1-0
20/05/2018:Défi matsonic(1910)-apocalypce(1790):1-0
20/05/2018:Défi ecjc(1980)-alain34(2180):1/2-1/2
20/05/2018:Défi wenoketo(1610)-tartu(1620):0-1
20/05/2018:Défi fisher(1620)-tartu(1620):1-0
20/05/2018:Défi retikan(1809)-pj612(1810):0-1
20/05/2018:Défi wenoketo(1610)-pgo(1620):0-1
20/05/2018:honolulu spectre(1770)-brettsinclair(1790):1-0
20/05/2018:wild intrigue(1650)-brettsinclair(1840):1/2-1/2
20/05/2018:albatros14 pgo(1640)-bigkahuna(1760):1-0
20/05/2018:Pion de sa gente dame tiounet(1650)-intrigue(1600):0-1
20/05/2018:Tournoi n°18101 brettsinclair(1820)-patau(1800):1-0
20/05/2018:Tournoi n°17973 gonzok67(1690)-afeyte(1680):0-1
20/05/2018:Tournoi n°18137 fredoparis(1640)-patau(1800):1-0
20/05/2018:Tournoi n°17919 oranmore(1930)-hipyacine(1800):0-1
20/05/2018:Tournoi n°18091 upsalin(1880)-clemm(1680):0-1
20/05/2018:Tournoi n°17968 yann56(1770)-spectre(1690):0-1
20/05/2018:Tournoi n°18040 zozo(1680)-karadayi(1530):0-1
20/05/2018:Tournoi n°18126 1thibou(1740)-mojo(1730):1-0
20/05/2018:Tournoi n°18142 intrigue(1640)-wenoketo(1600):1-0
20/05/2018:Tournoi n°18143 leredoutable(1650)-supertomate(1890):1-0
20/05/2018:Tournoi n°18132 kiki37(1330)-epervier14(1470):0-1
20/05/2018:Eq:Les Quebecois-Vikings : flmnh(1730)-tombelaine(2220):0-1
20/05/2018:Défi tinenfant(1890)-intrigue(1640):1-0
20/05/2018:Défi pgo(1640)-jpjay(1780):1-0
20/05/2018:Défi azur(1580)-lacrampe(1499):1-0
20/05/2018:Défi lacrampe(1589)-tbeau44(1680):0-1
20/05/2018:Défi pionfou(1710)-samjf(1499):1-0
20/05/2018:Défi ramo(1760)-lacrampe(1549):1-0
20/05/2018:Défi carabas(1980)-moi50(1810):1-0
20/05/2018:Défi tbeau44(1680)-julie(1040):1-0
20/05/2018:Défi matlepuma(999)-tootsienet(1010):1-0
20/05/2018:Défi lacrampe(1309)-koi34(1840):0-1
20/05/2018:Défi alena1(1770)-pahlo111(1760):0-1
20/05/2018:Défi ghostdog(1620)-toucco67(1720):1-0
20/05/2018:Défi doudou(1620)-gilberthellemans(1560):1-0
20/05/2018:Défi tinenfant(1860)-lacrampe(1549):1-0
20/05/2018:Défi cowboyarthur(1900)-tartu(1620):0-1
20/05/2018:Défi tiounet(1620)-maluel(1600):1-0
20/05/2018:Défi electronlibre(1840)-alain84(1740):1-0
20/05/2018:Défi upsalin(1870)-wenoketo(1620):1-0
20/05/2018:L Espagnole selon Marshall dragon(1890)-intrigue(1630):1-0
20/05/2018:L Espagnole selon Marshall intrigue(1630)-dragon(1890):0-1
20/05/2018:Le vieux Roi 12 intrigue(1640)-turbo(1490):1-0
20/05/2018:Tournoi n°17854 oscar(2320)-vickort(2390):1-0
20/05/2018:Tournoi n°17999 manulatus(1840)-loco11(1950):1-0
20/05/2018:Tournoi n°18072 kaiser69(1650)-panchoa(1510):0-1
20/05/2018:Eq:Vikings-LES CHATTERBOX : anderssen(2450)-jazzzz(1890):1-0
20/05/2018:Eq:CHESS MASTER-Fair play : ciboulette(2090)-ramo(1760):0-1
20/05/2018:Coupe Niveau 1 mayaapof(1720)-uji40(1580):1-0
21/05/2018:Tournoi n°17916 cathy17(1030)-bubbly(1270):0-1
21/05/2018:Défi panchoa(1530)-hberlioz(1610):0-1
21/05/2018:Défi zacharie(1499)-roidechecs(1260):1-0
21/05/2018:Défi garlik(1970)-christianlabat(1919):1-0
21/05/2018:Défi berjay(1700)-champignac(1790):0-1
21/05/2018:Défi cortaz(1800)-chobi(1740):1-0
21/05/2018:Défi vincentcoste(1610)-ascensseur(1560):1-0
21/05/2018:Rapide biquet(1590)-ryba(1560):1-0
21/05/2018:Rapide blackrider(1400)-ryba(1570):0-1
21/05/2018:Francaise avec e5 pitouwb(1710)-spectre(1760):1-0
21/05/2018:Open des ponts de mai marmotte50(1990)-pgo(1670):0-1
21/05/2018:Coupe Niveau 5 abc47(2100)-guig47(2090):1-0
21/05/2018:Francaise avec e5 pitouwb(1710)-tiounet(1630):0-1
21/05/2018:Défi anumisme(1410)-tootsienet(1030):1-0
21/05/2018:Tournoi n°18157 gregmasten(1450)-coyotov(1630):0-1
21/05/2018:Tournoi n°17797 johan1977(2120)-emmanuel(2010):0-1
21/05/2018:Tournoi n°18076 tiounet(1610)-saruman(1730):0-1
21/05/2018:Tournoi n°18101 brettsinclair(1820)-leredoutable(1630):1/2-1/2
21/05/2018:Tournoi n°18156 verson(1850)-supertomate(1960):1-0
21/05/2018:Tournoi n°18180 papillon22(1850)-tjspret(1760):1-0
21/05/2018:Coupe Niveau 3 tiounet(1640)-verson(1810):0-1
21/05/2018:Défi turbo(1520)-ziviol(1480):1-0
21/05/2018:Défi zozo(1630)-tiounet(1630):1-0
21/05/2018:Défi christianlabat(1919)-ecjc(1980):0-1
21/05/2018:Défi doudou(1630)-anglais(1690):0-1
21/05/2018:Défi regor(1990)-retikan(1809):1-0
21/05/2018:Open des ponts de mai marmotte50(1990)-tiounet(1570):1-0
21/05/2018:coupe biquetoces karkaskat(2100)-biquet(1850):1-0
21/05/2018:Tournoi échelle division 1 spectre(1800)-kaspadesbrik(1810):1-0
21/05/2018:Tournoi n°18156 patau(1840)-supertomate(1950):1-0
21/05/2018:Tournoi n°18164 arno(1630)-verson(1840):0-1
21/05/2018:Tournoi n°18098 gonzok67(1680)-marco(1600):1-0
21/05/2018:Tournoi n°18053 anibalou(1480)-geantvert(1670):0-1
21/05/2018:Tournoi n°18094 fredbauduret(1960)-willkommen54(2000):1-0
21/05/2018:Tournoi n°18064 kendo2d(1830)-mandrak(1630):1-0
21/05/2018:Tournoi n°18143 patau(1780)-supertomate(1890):1-0
21/05/2018:Eq:Pirates du Mat-Les Gens du Sud : daiwen(2340)-dragon(1890):1-0
21/05/2018:Eq:Pirates du Mat-Vikings : sp52(2410)-ngeorget(2490):0-1
21/05/2018:Coupe Niveau 3 dpcarballo(2080)-retraite53(2130):0-1
21/05/2018:Défi chaton(999)-steflam(1410):0-1
21/05/2018:Défi roquefort(1970)-apocalypce(1790):1-0
21/05/2018:Défi plaisance(1940)-kynyo(1499):1-0
21/05/2018:Défi christianlabat(1859)-roquefort(1970):0-1
21/05/2018:Défi bastien1(1330)-gervaise(1110):0-1
21/05/2018:Défi pgo(1670)-cyrano(2379):0-1
21/05/2018:Défi blueberry(1869)-degun(1900):1-0
21/05/2018:Défi jm29(1470)-ziviol(1470):1-0
21/05/2018:Défi gobois(1670)-longjohn(1570):1-0
21/05/2018:Saint-Valentin 2018 n°6 mimie(1660)-redqueen(1560):1-0
21/05/2018:les pirates interne philou(1870)-volatile(2510):0-1
21/05/2018:les pirates interne volatile(2510)-sp52(2410):1-0
21/05/2018:Tournoi n°18146 darkchossete(1800)-vvvv(1660):1-0
21/05/2018:Tournoi n°18133 intrigue(1640)-legrillon(1680):0-1
21/05/2018:Tournoi n°18053 wenoketo(1550)-anibalou(1480):1-0
21/05/2018:Tournoi n°18144 owow44(1669)-mimie(1680):1-0
21/05/2018:Tournoi n°18086 tiounet(1640)-afeyte(1750):0-1
21/05/2018:Tournoi n°18159 emmanuel(1910)-jhz(1800):1-0
21/05/2018:Tournoi n°18150 jhz(1840)-scarfield(1750):0-1
21/05/2018:Eq:les modestes-Danielsen City : fuji972(1930)-jetjet91330(2110):1-0
21/05/2018:Eq:Les Corsaires de Lechiquier-O fou d hello : sanvic76(1920)-blitzman(2680):0-1
21/05/2018:Eq:Mission Impossible-Royal Kids : eldiablo90(2820)-uliczny(1910):1-0
21/05/2018:Défi anumisme(1450)-pivoine78(1190):1-0
21/05/2018:Défi zacharie(1499)-anumisme(1420):1-0
21/05/2018:Défi bastien1(1320)-lantana(1290):1-0
21/05/2018:Défi gregmasten(1590)-bastien1(1320):1-0
21/05/2018:Défi anibalou(1480)-gognol(1790):0-1
21/05/2018:Défi pascalou50(1790)-alpinfresh(1879):0-1
21/05/2018:Avec des joueurs sympas 2 yyyg(1670)-geantvert(1700):0-1
21/05/2018:Et une Grunfeld une crca(1850)-intrigue(1650):1-0
21/05/2018:Mario et Luigi 47 intrigue(1630)-nathalie(1369):1-0
21/05/2018:albatros14 tiounet(1680)-lecevenol(1370):1-0
21/05/2018:albatros14 pgo(1640)-gregmasten(1580):0-1
21/05/2018:albatros14 legrillon(1710)-pgo(1640):1/2-1/2
21/05/2018:Fou de la reine gregmasten(1580)-pgo(1630):1-0
21/05/2018:Tournoi n°18164 verson(1840)-baranowsky(1740):1-0
21/05/2018:Tournoi n°18149 gilcello(1650)-jhz(1800):1-0
21/05/2018:Tournoi n°18077 geantvert(1680)-epervier14(1520):1-0
21/05/2018:Tournoi n°18173 ghostdog(1630)-verson(1820):0-1
21/05/2018:Tournoi n°18170 verson(1800)-ghostdog(1640):1-0
21/05/2018:Eq:les modestes-Les Corsaires de Lechiquier : izemassalas(2680)-apollon(2690):0-1
21/05/2018:Eq:les modestes-Les Corsaires de Lechiquier : apollon(2690)-izemassalas(2680):1-0
21/05/2018:Eq:les modestes-LA CITE ARDENTE : jetjet91330(2140)-quasar999(1950):1-0
21/05/2018:Eq:les modestes-Les Corsaires de Lechiquier : sherezo(2810)-ychiduodlatour(2780):1/2-1/2
21/05/2018:Eq:Danielsen City-Royal Kids : philippelg(2090)-manulatus(1860):1-0
21/05/2018:Eq:Danielsen City-cotenstock : eloyoy(1980)-pasctin(1910):1/2-1/2
21/05/2018:Eq:Vikings-les modestes : ghostdog(1610)-thierry7ardeche(1970):0-1
21/05/2018:Défi titit1(1260)-anumisme(1340):0-1
21/05/2018:Défi katastrofic(1450)-lecavaliernoir(1520):0-1
21/05/2018:Défi asvel69(1740)-hebro(1770):1-0
21/05/2018:Défi roger72(1480)-julie(999):1-0
21/05/2018:Défi intrigue(1640)-doudou(1630):1/2-1/2
21/05/2018:Défi anumisme(1430)-neddy(1160):1-0
21/05/2018:Défi cortaz(1820)-algors(1730):1-0
21/05/2018:Défi pierrejean(1480)-joel(1430):1-0
21/05/2018:Défi pgo(1620)-cortaz(1820):0-1
21/05/2018:Nom d un chien titit1(1280)-zozo(1640):0-1
21/05/2018:wild fooy33(1890)-intrigue(1650):0-1
21/05/2018:Le vieux Roi 12 zozo(1630)-intrigue(1640):0-1
21/05/2018:Pion de sa gente dame intrigue(1600)-verson(1790):0-1
21/05/2018:Tournoi n°17900 rvsinovitch(2010)-kichmat(2050):0-1
21/05/2018:Tournoi n°18154 verson(1840)-legrillon(1710):1-0
21/05/2018:Tournoi n°18161 legrillon(1700)-tiounet(1670):1-0
21/05/2018:Tournoi n°18154 gonzok67(1720)-verson(1850):1-0
21/05/2018:Tournoi n°18102 wenoketo(1570)-gonzok67(1670):1/2-1/2
21/05/2018:Tournoi n°18006 vickort(2410)-mudra(2230):0-1
21/05/2018:Tournoi n°18095 julie(1029)-sergesee(1219):0-1
21/05/2018:Tournoi n°18134 verson(1810)-kendo2d(1820):0-1
21/05/2018:Tournoi n°18074 pitouwb(1710)-brettsinclair(1840):1-0
21/05/2018:Tournoi n°18110 coyotov(1630)-pilouface(1480):1-0
21/05/2018:Tournoi n°18157 magyar(1500)-gregmasten(1440):0-1
21/05/2018:Eq:Les Corsaires de Lechiquier-Royal Kids : vickort(2380)-blitzman(2650):0-1
21/05/2018:Eq:Danielsen City-Royal Kids : manulatus(1860)-philippelg(2090):1/2-1/2
21/05/2018:Coupe Niveau 2 patau(1810)-morice(1910):1-0
21/05/2018:Coupe Niveau 2 baranowsky(1760)-verson(1790):1-0
21/05/2018:Coupe Niveau 2 elghribi(1960)-verson(1790):1/2-1/2
21/05/2018:Défi badger(1879)-fisher22(1799):1-0
21/05/2018:Défi intrigue(1640)-den(1910):0-1
21/05/2018:Défi ghostdog(1610)-vvvv(1670):1/2-1/2
21/05/2018:Défi jetjet91330(2170)-katastrofic(1470):1-0
21/05/2018:Défi superman(1730)-chobi(1710):1/2-1/2
21/05/2018:Défi wenoketo(1580)-tousostade(1570):0-1
21/05/2018:Défi xao(1500)-wenoketo(1560):1-0
21/05/2018:Défi vvvv(1660)-pj612(1820):0-1
21/05/2018:Défi cathy17(1060)-hberlioz(1630):0-1
21/05/2018:Défi julia(1500)-anumisme(1410):1-0
21/05/2018:Défi maitressesse(1300)-choderlos69(1270):0-1
21/05/2018:Défi youliyouli(1840)-ghostdog(1630):1-0
21/05/2018:Défi malvina(1300)-pierrejean(1460):1-0
21/05/2018:Défi anumisme(1440)-chaton(1000):1-0
21/05/2018:Défi cortaz(1740)-jmr(1590):0-1
21/05/2018:Défi maluel(1600)-zozo(1640):1/2-1/2
21/05/2018:Défi gregmasten(1580)-sergesee(1420):0-1
21/05/2018:Défi hberlioz(1630)-pascalou50(1790):1-0
21/05/2018:Défi anumisme(1400)-pitchoune50(1220):1-0
21/05/2018:Défi elghribi(1950)-moi50(1850):1-0
21/05/2018:Défi pitchoune50(1230)-pascalou50(1790):0-1
21/05/2018:Avec des joueurs sympas 2 ascensseur(1590)-legrillon(1670):0-1
21/05/2018:Avec des joueurs sympas 2 legrillon(1670)-ascensseur(1590):1-0
21/05/2018:L Espagnole selon Marshall uji40(1590)-tiounet(1670):0-1
21/05/2018:Parties ouvertes e4 e5 ascensseur(1620)-crca(1830):0-1
21/05/2018:Open des ponts de mai ascensseur(1610)-marmotte50(1990):0-1
21/05/2018:Le vieux Roi 12 tiounet(1660)-legrillon(1710):1-0
21/05/2018:albatros14 lecevenol(1370)-tartu(1610):0-1
21/05/2018:albatros14 lecevenol(1370)-pgo(1640):0-1
21/05/2018:Tournoi échelle division 3 alena1(1780)-choderlos69(1320):1-0
21/05/2018:Tournoi échelle division 1 pascalou50(1800)-patau(1820):1-0
21/05/2018:Tournoi échelle division 3 bastien1(1270)-supertomate(1960):1-0
21/05/2018:Tournoi échelle division 1 dragon(1890)-verson(1780):1-0
21/05/2018:Tournoi n°17651 fly(1910)-warriorette(1910):1-0
21/05/2018:Tournoi n°18156 supertomate(1950)-silveur(1910):0-1
21/05/2018:Tournoi n°18149 tiounet(1680)-gilcello(1650):1-0
21/05/2018:Eq:Les Corsaires de Lechiquier-Vikings : ludovique(2450)-tombelaine(2180):0-1
21/05/2018:Eq:Les Corsaires de Lechiquier-Vikings : tombelaine(2180)-ludovique(2450):1-0
21/05/2018:Eq:Mission Impossible-Royal Kids : uliczny(1910)-eldiablo90(2820):0-1
21/05/2018:Défi lantana(1140)-cathy17(1030):1-0
21/05/2018:Défi lancov(1890)-superman(1730):1-0
21/05/2018:Défi joelcouturier(1190)-anumisme(1420):0-1
21/05/2018:Défi jimi50(1890)-pascalou50(1790):1-0
21/05/2018:Défi anumisme(1460)-julie(1060):1-0
21/05/2018:Défi lancov(1930)-roquefort(1970):0-1
21/05/2018:Défi baudoin(1980)-gari(1960):1-0
21/05/2018:Défi anglais(1670)-gobois(1670):1/2-1/2
21/05/2018:Défi alena1(1810)-pascalou50(1780):0-1
21/05/2018:Défi jmr(1590)-gilberthellemans(1580):1-0
21/05/2018:Défi minon(2060)-tichaton(1460):1-0
21/05/2018:Défi zozo(1630)-gilberthellemans(1560):1-0
21/05/2018:Défi den(1930)-feudevorant(1900):1-0
21/05/2018:Défi doudou(1620)-maluel(1600):1-0
21/05/2018:Défi gregmasten(1540)-pgo(1640):0-1
22/05/2018:Tournoi n°18022 jazzzz(1930)-bubblegum(1800):1-0
22/05/2018:Tournoi n°18045 bubblegum(1810)-annakhine(1950):0-1
22/05/2018:Tournoi n°18056 brettsinclair(1830)-kynyo(1719):0-1
22/05/2018:Défi pascalou50(1790)-anumisme(1410):1-0
22/05/2018:Défi zatopek(1610)-pgo(1620):1-0
22/05/2018:Avec des joueurs sympas 2 spectre(1770)-legrillon(1670):0-1
22/05/2018:honolulu ascensseur(1590)-brettsinclair(1790):0-1
22/05/2018:honolulu brettsinclair(1790)-ascensseur(1590):1-0
22/05/2018:Parties ouvertes e4 e5 bubblegum(1800)-flmnh(1770):0-1
22/05/2018:Fou de la reine pgo(1630)-gregmasten(1580):1-0
22/05/2018:Tournoi n°18143 leredoutable(1650)-patau(1780):0-1
22/05/2018:Tournoi n°18130 supertomate(1970)-pahlo111(1810):0-1
22/05/2018:Défi christianlabat(1859)-bb7553(1820):0-1
22/05/2018:portes ouvertes en Espagnol salut(1880)-saruman(1750):1-0
22/05/2018:Eq:les modestes-Pirates du Mat : izemassalas(2660)-gonca90(2410):1-0
22/05/2018:Tournoi n°18159 verson(1850)-desaintfegor(1810):1-0
22/05/2018:Tournoi n°18161 oliver5(1660)-tiounet(1670):1-0
22/05/2018:Tournoi n°18180 patau(1800)-verson(1790):0-1
22/05/2018:Eq:Danielsen City-Les Oiseaux d Amsterdam : pasctin(1930)-crca(1840):1/2-1/2
22/05/2018:Eq:LA CITE ARDENTE-Les Quebecois : kieffer51(2140)-flmnh(1730):1-0
22/05/2018:Eq:Les Quebecois-Les Corsaires de Lechiquier : flmnh(1710)-unsingeenhiver(2500):0-1
22/05/2018:Eq:1pur-ThalesTeam : anmaropa(999)-c0d3(999):0-1
22/05/2018:Eq:les grenades-Royal Kids : ecjc(1980)-supertomate(1950):1-0
22/05/2018:Eq:les grenades-Royal Kids : supertomate(1950)-ecjc(1980):0-1
22/05/2018:Défi colyoun(1550)-pierrejean(1410):1-0
22/05/2018:Défi mokanne(1580)-steph65(1590):1-0
22/05/2018:Défi steph65(1590)-turbo(1510):0-1
22/05/2018:Défi hberlioz(1610)-bertelsen(1650):1-0
22/05/2018:Défi temistocles(1410)-petain(1580):0-1
22/05/2018:Défi pascalou50(1760)-patau(1750):1-0
22/05/2018:Défi atestamora(1570)-prince(1770):0-1
22/05/2018:honolulu yyyg(1670)-fly(2010):0-1
22/05/2018:L Espagnole selon Marshall tiounet(1670)-flmnh(1700):1-0
22/05/2018:Tournoi n°18170 arno(1630)-verson(1840):1-0
22/05/2018:Tournoi n°18156 supertomate(1960)-jhz(1800):0-1
22/05/2018:Tournoi n°18010 mistralgagnant(1960)-patau(1790):1-0
22/05/2018:Tournoi n°18054 bubblegum(1810)-mage(1780):0-1
22/05/2018:Tournoi n°18072 maldorox(1500)-kaiser69(1650):1-0
22/05/2018:Tournoi n°18173 thomas(1660)-simer(1730):0-1
22/05/2018:Tournoi n°17966 vabre81(2020)-cobraxx10(2120):0-1
22/05/2018:Tournoi n°18180 simer(1740)-patau(1800):0-1
22/05/2018:Eq:les grenades-Les diplomates : pgcbies(2820)-tatar(2760):1-0
22/05/2018:Eq:Les Corsaires de Lechiquier-Les Seigneurs de l Atlantide : april(2090)-bubblegum(1810):1-0
22/05/2018:Coupe Niveau 2 patau(1730)-dodogod(2040):0-1
22/05/2018:Coupe Niveau 5 pilinapolgar(2530)-elghribi(2000):1/2-1/2
22/05/2018:Coupe Niveau 1 alena1(1740)-bubblegum(1820):1-0
22/05/2018:Coupe Niveau 1 bubblegum(1810)-retraite53(1809):1/2-1/2
22/05/2018:Défi largo(999)-roger72(1450):0-1
22/05/2018:Défi kawa750(1560)-roger72(1480):0-1
22/05/2018:Défi calcedoine(1870)-bilitis(1820):1/2-1/2
22/05/2018:Défi maluel(1600)-pgo(1630):0-1
22/05/2018:Défi atestamora(1590)-wenoketo(1610):1-0
22/05/2018:portes ouvertes en Espagnol saruman(1750)-tiounet(1600):1-0
22/05/2018:Open des ponts de mai janolapin(1880)-ascensseur(1610):1-0